<?xml version="1.0" encoding="UTF-8" standalone="no" ?>
<gpx xmlns="http://www.topografix.com/GPX/1/1" xmlns:xsi="http://www.w3.org/2001/XMLSchema-instance" xsi:schemaLocation="http://www.topografix.com/GPX/1/1 http://www.topografix.com/GPX/1/1/gpx.xsd" version="1.1" creator="VisuGPX - https://www.visugpx.com">
  <metadata>
    <name>ThePetitTour</name>
  </metadata>
  <trk>
    <name><![CDATA[ThePetitTour_1]]></name>
    <trkseg>
      <trkpt lat="44.91611" lon="6.62614">
        <ele>1366.1</ele>
        <time>2022-08-07T17:24:44+0200</time>
      </trkpt>
      <trkpt lat="44.91615" lon="6.62611">
        <ele>1366.7</ele>
        <time>2022-08-07T17:24:47+0200</time>
      </trkpt>
      <trkpt lat="44.91618" lon="6.62606">
        <ele>1367.2</ele>
        <time>2022-08-07T17:24:50+0200</time>
      </trkpt>
      <trkpt lat="44.91624" lon="6.62605">
        <ele>1368.4</ele>
        <time>2022-08-07T17:24:53+0200</time>
      </trkpt>
      <trkpt lat="44.9163" lon="6.62602">
        <ele>1369.4</ele>
        <time>2022-08-07T17:24:56+0200</time>
      </trkpt>
      <trkpt lat="44.91632" lon="6.62595">
        <ele>1369.6</ele>
        <time>2022-08-07T17:24:58+0200</time>
      </trkpt>
      <trkpt lat="44.91638" lon="6.62593">
        <ele>1370.4</ele>
        <time>2022-08-07T17:25:02+0200</time>
      </trkpt>
      <trkpt lat="44.91642" lon="6.62595">
        <ele>1371.4</ele>
        <time>2022-08-07T17:25:06+0200</time>
      </trkpt>
      <trkpt lat="44.91647" lon="6.62591">
        <ele>1372</ele>
        <time>2022-08-07T17:25:10+0200</time>
      </trkpt>
      <trkpt lat="44.91652" lon="6.62593">
        <ele>1373</ele>
        <time>2022-08-07T17:25:13+0200</time>
      </trkpt>
      <trkpt lat="44.91654" lon="6.62598">
        <ele>1373.8</ele>
        <time>2022-08-07T17:25:16+0200</time>
      </trkpt>
      <trkpt lat="44.91653" lon="6.62605">
        <ele>1374.2</ele>
        <time>2022-08-07T17:25:19+0200</time>
      </trkpt>
      <trkpt lat="44.91652" lon="6.62611">
        <ele>1374.3</ele>
        <time>2022-08-07T17:25:22+0200</time>
      </trkpt>
      <trkpt lat="44.91651" lon="6.62618">
        <ele>1374.7</ele>
        <time>2022-08-07T17:25:26+0200</time>
      </trkpt>
      <trkpt lat="44.9165" lon="6.62625">
        <ele>1375</ele>
        <time>2022-08-07T17:25:29+0200</time>
      </trkpt>
      <trkpt lat="44.91651" lon="6.62633">
        <ele>1375.8</ele>
        <time>2022-08-07T17:25:36+0200</time>
      </trkpt>
      <trkpt lat="44.91651" lon="6.6264">
        <ele>1376.2</ele>
        <time>2022-08-07T17:25:39+0200</time>
      </trkpt>
      <trkpt lat="44.9165" lon="6.62647">
        <ele>1376.6</ele>
        <time>2022-08-07T17:25:42+0200</time>
      </trkpt>
      <trkpt lat="44.9165" lon="6.62656">
        <ele>1377.5</ele>
        <time>2022-08-07T17:25:45+0200</time>
      </trkpt>
      <trkpt lat="44.91654" lon="6.6266">
        <ele>1378.6</ele>
        <time>2022-08-07T17:25:47+0200</time>
      </trkpt>
      <trkpt lat="44.91659" lon="6.62662">
        <ele>1379.8</ele>
        <time>2022-08-07T17:25:51+0200</time>
      </trkpt>
      <trkpt lat="44.91663" lon="6.62663">
        <ele>1380.8</ele>
        <time>2022-08-07T17:25:57+0200</time>
      </trkpt>
      <trkpt lat="44.91668" lon="6.62662">
        <ele>1381.8</ele>
        <time>2022-08-07T17:26:01+0200</time>
      </trkpt>
      <trkpt lat="44.91674" lon="6.62661">
        <ele>1382.9</ele>
        <time>2022-08-07T17:26:04+0200</time>
      </trkpt>
      <trkpt lat="44.9168" lon="6.62663">
        <ele>1384.5</ele>
        <time>2022-08-07T17:26:07+0200</time>
      </trkpt>
      <trkpt lat="44.91683" lon="6.62668">
        <ele>1385.6</ele>
        <time>2022-08-07T17:26:10+0200</time>
      </trkpt>
      <trkpt lat="44.91685" lon="6.62675">
        <ele>1386.9</ele>
        <time>2022-08-07T17:26:16+0200</time>
      </trkpt>
      <trkpt lat="44.91687" lon="6.62681">
        <ele>1387.9</ele>
        <time>2022-08-07T17:26:21+0200</time>
      </trkpt>
      <trkpt lat="44.91687" lon="6.62688">
        <ele>1388.7</ele>
        <time>2022-08-07T17:26:25+0200</time>
      </trkpt>
      <trkpt lat="44.91687" lon="6.62696">
        <ele>1389.6</ele>
        <time>2022-08-07T17:26:29+0200</time>
      </trkpt>
      <trkpt lat="44.91691" lon="6.627">
        <ele>1391.1</ele>
        <time>2022-08-07T17:26:32+0200</time>
      </trkpt>
      <trkpt lat="44.91696" lon="6.62702">
        <ele>1392.3</ele>
        <time>2022-08-07T17:26:35+0200</time>
      </trkpt>
      <trkpt lat="44.917" lon="6.62698">
        <ele>1392.6</ele>
        <time>2022-08-07T17:26:38+0200</time>
      </trkpt>
      <trkpt lat="44.91704" lon="6.62702">
        <ele>1393.9</ele>
        <time>2022-08-07T17:26:44+0200</time>
      </trkpt>
      <trkpt lat="44.91708" lon="6.62696">
        <ele>1394.2</ele>
        <time>2022-08-07T17:26:50+0200</time>
      </trkpt>
      <trkpt lat="44.91714" lon="6.62693">
        <ele>1395.2</ele>
        <time>2022-08-07T17:26:54+0200</time>
      </trkpt>
      <trkpt lat="44.9172" lon="6.62692">
        <ele>1396.3</ele>
        <time>2022-08-07T17:26:57+0200</time>
      </trkpt>
      <trkpt lat="44.91724" lon="6.62696">
        <ele>1397.6</ele>
        <time>2022-08-07T17:27:00+0200</time>
      </trkpt>
      <trkpt lat="44.91727" lon="6.62701">
        <ele>1398.8</ele>
        <time>2022-08-07T17:27:05+0200</time>
      </trkpt>
      <trkpt lat="44.91727" lon="6.62709">
        <ele>1399.8</ele>
        <time>2022-08-07T17:27:09+0200</time>
      </trkpt>
      <trkpt lat="44.91728" lon="6.62716">
        <ele>1400.6</ele>
        <time>2022-08-07T17:27:12+0200</time>
      </trkpt>
      <trkpt lat="44.91727" lon="6.62724">
        <ele>1401.4</ele>
        <time>2022-08-07T17:27:16+0200</time>
      </trkpt>
      <trkpt lat="44.91726" lon="6.6273">
        <ele>1402.3</ele>
        <time>2022-08-07T17:27:23+0200</time>
      </trkpt>
      <trkpt lat="44.9172" lon="6.62732">
        <ele>1401.6</ele>
        <time>2022-08-07T17:27:27+0200</time>
      </trkpt>
      <trkpt lat="44.91717" lon="6.62738">
        <ele>1402.4</ele>
        <time>2022-08-07T17:27:30+0200</time>
      </trkpt>
      <trkpt lat="44.91717" lon="6.62747">
        <ele>1404.2</ele>
        <time>2022-08-07T17:27:32+0200</time>
      </trkpt>
      <trkpt lat="44.91718" lon="6.62754">
        <ele>1406</ele>
        <time>2022-08-07T17:27:34+0200</time>
      </trkpt>
      <trkpt lat="44.91723" lon="6.62756">
        <ele>1407.3</ele>
        <time>2022-08-07T17:27:40+0200</time>
      </trkpt>
      <trkpt lat="44.91726" lon="6.62762">
        <ele>1409.1</ele>
        <time>2022-08-07T17:27:47+0200</time>
      </trkpt>
      <trkpt lat="44.91731" lon="6.62764">
        <ele>1410.4</ele>
        <time>2022-08-07T17:27:50+0200</time>
      </trkpt>
      <trkpt lat="44.91737" lon="6.62764">
        <ele>1411.4</ele>
        <time>2022-08-07T17:27:53+0200</time>
      </trkpt>
      <trkpt lat="44.91741" lon="6.62766">
        <ele>1412.5</ele>
        <time>2022-08-07T17:27:57+0200</time>
      </trkpt>
      <trkpt lat="44.91747" lon="6.62767">
        <ele>1413.6</ele>
        <time>2022-08-07T17:28:00+0200</time>
      </trkpt>
      <trkpt lat="44.91751" lon="6.62763">
        <ele>1413.6</ele>
        <time>2022-08-07T17:28:03+0200</time>
      </trkpt>
      <trkpt lat="44.91756" lon="6.6276">
        <ele>1413.9</ele>
        <time>2022-08-07T17:28:07+0200</time>
      </trkpt>
      <trkpt lat="44.9176" lon="6.62752">
        <ele>1413.5</ele>
        <time>2022-08-07T17:28:10+0200</time>
      </trkpt>
      <trkpt lat="44.91766" lon="6.62756">
        <ele>1415.2</ele>
        <time>2022-08-07T17:28:15+0200</time>
      </trkpt>
      <trkpt lat="44.91766" lon="6.62764">
        <ele>1416.3</ele>
        <time>2022-08-07T17:28:19+0200</time>
      </trkpt>
      <trkpt lat="44.91766" lon="6.62772">
        <ele>1417.4</ele>
        <time>2022-08-07T17:28:25+0200</time>
      </trkpt>
      <trkpt lat="44.91767" lon="6.62779">
        <ele>1418.6</ele>
        <time>2022-08-07T17:28:28+0200</time>
      </trkpt>
      <trkpt lat="44.91763" lon="6.62785">
        <ele>1418.9</ele>
        <time>2022-08-07T17:28:32+0200</time>
      </trkpt>
      <trkpt lat="44.9176" lon="6.6279">
        <ele>1419.4</ele>
        <time>2022-08-07T17:28:36+0200</time>
      </trkpt>
      <trkpt lat="44.91756" lon="6.62793">
        <ele>1419.3</ele>
        <time>2022-08-07T17:28:39+0200</time>
      </trkpt>
      <trkpt lat="44.9175" lon="6.62796">
        <ele>1419.3</ele>
        <time>2022-08-07T17:28:44+0200</time>
      </trkpt>
      <trkpt lat="44.91746" lon="6.62803">
        <ele>1420.4</ele>
        <time>2022-08-07T17:28:47+0200</time>
      </trkpt>
      <trkpt lat="44.91747" lon="6.62811">
        <ele>1422.4</ele>
        <time>2022-08-07T17:28:50+0200</time>
      </trkpt>
      <trkpt lat="44.91752" lon="6.62815">
        <ele>1423.9</ele>
        <time>2022-08-07T17:28:55+0200</time>
      </trkpt>
      <trkpt lat="44.91757" lon="6.62817">
        <ele>1424.5</ele>
        <time>2022-08-07T17:29:02+0200</time>
      </trkpt>
      <trkpt lat="44.91761" lon="6.6282">
        <ele>1425.5</ele>
        <time>2022-08-07T17:29:04+0200</time>
      </trkpt>
      <trkpt lat="44.91766" lon="6.6282">
        <ele>1425.7</ele>
        <time>2022-08-07T17:29:07+0200</time>
      </trkpt>
      <trkpt lat="44.91771" lon="6.62819">
        <ele>1425.5</ele>
        <time>2022-08-07T17:29:10+0200</time>
      </trkpt>
      <trkpt lat="44.91775" lon="6.62824">
        <ele>1426.9</ele>
        <time>2022-08-07T17:29:14+0200</time>
      </trkpt>
      <trkpt lat="44.9178" lon="6.62826">
        <ele>1427.7</ele>
        <time>2022-08-07T17:29:17+0200</time>
      </trkpt>
      <trkpt lat="44.91786" lon="6.62829">
        <ele>1428.8</ele>
        <time>2022-08-07T17:29:20+0200</time>
      </trkpt>
      <trkpt lat="44.91791" lon="6.62828">
        <ele>1429</ele>
        <time>2022-08-07T17:29:23+0200</time>
      </trkpt>
      <trkpt lat="44.91798" lon="6.62821">
        <ele>1428.8</ele>
        <time>2022-08-07T17:29:26+0200</time>
      </trkpt>
      <trkpt lat="44.91803" lon="6.6282">
        <ele>1429.3</ele>
        <time>2022-08-07T17:29:28+0200</time>
      </trkpt>
      <trkpt lat="44.91805" lon="6.62815">
        <ele>1428.9</ele>
        <time>2022-08-07T17:29:31+0200</time>
      </trkpt>
      <trkpt lat="44.91805" lon="6.62822">
        <ele>1429.6</ele>
        <time>2022-08-07T17:29:41+0200</time>
      </trkpt>
      <trkpt lat="44.91803" lon="6.62829">
        <ele>1430.3</ele>
        <time>2022-08-07T17:29:44+0200</time>
      </trkpt>
      <trkpt lat="44.91799" lon="6.62832">
        <ele>1430.4</ele>
        <time>2022-08-07T17:29:48+0200</time>
      </trkpt>
      <trkpt lat="44.91794" lon="6.62833">
        <ele>1430</ele>
        <time>2022-08-07T17:29:51+0200</time>
      </trkpt>
      <trkpt lat="44.91789" lon="6.62837">
        <ele>1430.6</ele>
        <time>2022-08-07T17:29:54+0200</time>
      </trkpt>
      <trkpt lat="44.91784" lon="6.6284">
        <ele>1431.1</ele>
        <time>2022-08-07T17:29:57+0200</time>
      </trkpt>
      <trkpt lat="44.91778" lon="6.6284">
        <ele>1431</ele>
        <time>2022-08-07T17:30:00+0200</time>
      </trkpt>
      <trkpt lat="44.91772" lon="6.62839">
        <ele>1430.7</ele>
        <time>2022-08-07T17:30:03+0200</time>
      </trkpt>
      <trkpt lat="44.91767" lon="6.62841">
        <ele>1431.3</ele>
        <time>2022-08-07T17:30:08+0200</time>
      </trkpt>
      <trkpt lat="44.91762" lon="6.62839">
        <ele>1431</ele>
        <time>2022-08-07T17:30:12+0200</time>
      </trkpt>
      <trkpt lat="44.91758" lon="6.62837">
        <ele>1430.3</ele>
        <time>2022-08-07T17:30:15+0200</time>
      </trkpt>
      <trkpt lat="44.91752" lon="6.62838">
        <ele>1430.5</ele>
        <time>2022-08-07T17:30:18+0200</time>
      </trkpt>
      <trkpt lat="44.91747" lon="6.62838">
        <ele>1430.6</ele>
        <time>2022-08-07T17:30:21+0200</time>
      </trkpt>
      <trkpt lat="44.91742" lon="6.62841">
        <ele>1432.1</ele>
        <time>2022-08-07T17:30:24+0200</time>
      </trkpt>
      <trkpt lat="44.91737" lon="6.62838">
        <ele>1431.1</ele>
        <time>2022-08-07T17:30:27+0200</time>
      </trkpt>
      <trkpt lat="44.91733" lon="6.62837">
        <ele>1431</ele>
        <time>2022-08-07T17:30:29+0200</time>
      </trkpt>
      <trkpt lat="44.91728" lon="6.62838">
        <ele>1431.5</ele>
        <time>2022-08-07T17:30:31+0200</time>
      </trkpt>
      <trkpt lat="44.91724" lon="6.62833">
        <ele>1429.8</ele>
        <time>2022-08-07T17:30:33+0200</time>
      </trkpt>
      <trkpt lat="44.9172" lon="6.62829">
        <ele>1428.4</ele>
        <time>2022-08-07T17:30:37+0200</time>
      </trkpt>
      <trkpt lat="44.91713" lon="6.6283">
        <ele>1428</ele>
        <time>2022-08-07T17:30:40+0200</time>
      </trkpt>
      <trkpt lat="44.91706" lon="6.6283">
        <ele>1427.6</ele>
        <time>2022-08-07T17:30:42+0200</time>
      </trkpt>
      <trkpt lat="44.917" lon="6.62833">
        <ele>1428.2</ele>
        <time>2022-08-07T17:30:45+0200</time>
      </trkpt>
      <trkpt lat="44.91695" lon="6.62837">
        <ele>1429.3</ele>
        <time>2022-08-07T17:30:48+0200</time>
      </trkpt>
      <trkpt lat="44.91691" lon="6.6284">
        <ele>1430.1</ele>
        <time>2022-08-07T17:30:50+0200</time>
      </trkpt>
      <trkpt lat="44.91686" lon="6.62847">
        <ele>1432</ele>
        <time>2022-08-07T17:30:53+0200</time>
      </trkpt>
      <trkpt lat="44.91681" lon="6.62851">
        <ele>1432.7</ele>
        <time>2022-08-07T17:30:56+0200</time>
      </trkpt>
      <trkpt lat="44.91677" lon="6.62856">
        <ele>1433.9</ele>
        <time>2022-08-07T17:30:59+0200</time>
      </trkpt>
      <trkpt lat="44.91673" lon="6.62861">
        <ele>1435.2</ele>
        <time>2022-08-07T17:31:01+0200</time>
      </trkpt>
      <trkpt lat="44.91669" lon="6.62866">
        <ele>1436.2</ele>
        <time>2022-08-07T17:31:05+0200</time>
      </trkpt>
      <trkpt lat="44.91665" lon="6.62871">
        <ele>1437</ele>
        <time>2022-08-07T17:31:08+0200</time>
      </trkpt>
      <trkpt lat="44.91661" lon="6.62873">
        <ele>1436.6</ele>
        <time>2022-08-07T17:31:11+0200</time>
      </trkpt>
      <trkpt lat="44.91658" lon="6.62878">
        <ele>1437.5</ele>
        <time>2022-08-07T17:31:14+0200</time>
      </trkpt>
      <trkpt lat="44.91654" lon="6.62883">
        <ele>1437.9</ele>
        <time>2022-08-07T17:31:17+0200</time>
      </trkpt>
      <trkpt lat="44.91651" lon="6.62888">
        <ele>1438.6</ele>
        <time>2022-08-07T17:31:19+0200</time>
      </trkpt>
      <trkpt lat="44.9165" lon="6.62894">
        <ele>1440.1</ele>
        <time>2022-08-07T17:31:21+0200</time>
      </trkpt>
      <trkpt lat="44.91647" lon="6.62901">
        <ele>1441.6</ele>
        <time>2022-08-07T17:31:23+0200</time>
      </trkpt>
      <trkpt lat="44.91646" lon="6.62908">
        <ele>1443.7</ele>
        <time>2022-08-07T17:31:26+0200</time>
      </trkpt>
      <trkpt lat="44.91646" lon="6.62915">
        <ele>1445.7</ele>
        <time>2022-08-07T17:31:28+0200</time>
      </trkpt>
      <trkpt lat="44.91644" lon="6.62923">
        <ele>1447.6</ele>
        <time>2022-08-07T17:31:31+0200</time>
      </trkpt>
      <trkpt lat="44.91642" lon="6.62931">
        <ele>1449.5</ele>
        <time>2022-08-07T17:31:35+0200</time>
      </trkpt>
      <trkpt lat="44.9164" lon="6.62937">
        <ele>1451.2</ele>
        <time>2022-08-07T17:31:38+0200</time>
      </trkpt>
      <trkpt lat="44.91638" lon="6.62943">
        <ele>1452.2</ele>
        <time>2022-08-07T17:31:41+0200</time>
      </trkpt>
      <trkpt lat="44.91636" lon="6.6295">
        <ele>1453.9</ele>
        <time>2022-08-07T17:31:44+0200</time>
      </trkpt>
      <trkpt lat="44.91632" lon="6.62955">
        <ele>1454.4</ele>
        <time>2022-08-07T17:31:47+0200</time>
      </trkpt>
      <trkpt lat="44.91629" lon="6.6296">
        <ele>1454.8</ele>
        <time>2022-08-07T17:31:49+0200</time>
      </trkpt>
      <trkpt lat="44.91626" lon="6.62965">
        <ele>1455.9</ele>
        <time>2022-08-07T17:31:51+0200</time>
      </trkpt>
      <trkpt lat="44.91623" lon="6.6297">
        <ele>1456.3</ele>
        <time>2022-08-07T17:31:53+0200</time>
      </trkpt>
      <trkpt lat="44.9162" lon="6.62975">
        <ele>1457.4</ele>
        <time>2022-08-07T17:31:55+0200</time>
      </trkpt>
      <trkpt lat="44.91616" lon="6.62981">
        <ele>1458.3</ele>
        <time>2022-08-07T17:31:58+0200</time>
      </trkpt>
      <trkpt lat="44.91611" lon="6.62984">
        <ele>1457.7</ele>
        <time>2022-08-07T17:32:01+0200</time>
      </trkpt>
      <trkpt lat="44.91606" lon="6.62988">
        <ele>1457.6</ele>
        <time>2022-08-07T17:32:04+0200</time>
      </trkpt>
      <trkpt lat="44.91602" lon="6.62994">
        <ele>1458.8</ele>
        <time>2022-08-07T17:32:07+0200</time>
      </trkpt>
      <trkpt lat="44.91598" lon="6.63">
        <ele>1459.8</ele>
        <time>2022-08-07T17:32:10+0200</time>
      </trkpt>
      <trkpt lat="44.91592" lon="6.63002">
        <ele>1458.5</ele>
        <time>2022-08-07T17:32:15+0200</time>
      </trkpt>
      <trkpt lat="44.91587" lon="6.63005">
        <ele>1458.5</ele>
        <time>2022-08-07T17:32:18+0200</time>
      </trkpt>
      <trkpt lat="44.91582" lon="6.63008">
        <ele>1458</ele>
        <time>2022-08-07T17:32:22+0200</time>
      </trkpt>
      <trkpt lat="44.91577" lon="6.63008">
        <ele>1457</ele>
        <time>2022-08-07T17:32:24+0200</time>
      </trkpt>
      <trkpt lat="44.91572" lon="6.63012">
        <ele>1457.2</ele>
        <time>2022-08-07T17:32:28+0200</time>
      </trkpt>
      <trkpt lat="44.91567" lon="6.63014">
        <ele>1456.7</ele>
        <time>2022-08-07T17:32:31+0200</time>
      </trkpt>
      <trkpt lat="44.91562" lon="6.6302">
        <ele>1457.7</ele>
        <time>2022-08-07T17:32:34+0200</time>
      </trkpt>
      <trkpt lat="44.91558" lon="6.63027">
        <ele>1459.3</ele>
        <time>2022-08-07T17:32:36+0200</time>
      </trkpt>
      <trkpt lat="44.91559" lon="6.63034">
        <ele>1462.4</ele>
        <time>2022-08-07T17:32:39+0200</time>
      </trkpt>
      <trkpt lat="44.91564" lon="6.63036">
        <ele>1464.8</ele>
        <time>2022-08-07T17:32:45+0200</time>
      </trkpt>
      <trkpt lat="44.91569" lon="6.63035">
        <ele>1466</ele>
        <time>2022-08-07T17:32:49+0200</time>
      </trkpt>
      <trkpt lat="44.91574" lon="6.63032">
        <ele>1466.1</ele>
        <time>2022-08-07T17:32:53+0200</time>
      </trkpt>
      <trkpt lat="44.91579" lon="6.63032">
        <ele>1467.5</ele>
        <time>2022-08-07T17:32:57+0200</time>
      </trkpt>
      <trkpt lat="44.91584" lon="6.6303">
        <ele>1468.3</ele>
        <time>2022-08-07T17:33:00+0200</time>
      </trkpt>
      <trkpt lat="44.91589" lon="6.63029">
        <ele>1469.6</ele>
        <time>2022-08-07T17:33:03+0200</time>
      </trkpt>
      <trkpt lat="44.91595" lon="6.63031">
        <ele>1472.1</ele>
        <time>2022-08-07T17:33:06+0200</time>
      </trkpt>
      <trkpt lat="44.91601" lon="6.63026">
        <ele>1471.6</ele>
        <time>2022-08-07T17:33:10+0200</time>
      </trkpt>
      <trkpt lat="44.91606" lon="6.63024">
        <ele>1472.9</ele>
        <time>2022-08-07T17:33:13+0200</time>
      </trkpt>
      <trkpt lat="44.91612" lon="6.63019">
        <ele>1472.3</ele>
        <time>2022-08-07T17:33:16+0200</time>
      </trkpt>
      <trkpt lat="44.91617" lon="6.63017">
        <ele>1473.5</ele>
        <time>2022-08-07T17:33:18+0200</time>
      </trkpt>
      <trkpt lat="44.91622" lon="6.63014">
        <ele>1474.4</ele>
        <time>2022-08-07T17:33:22+0200</time>
      </trkpt>
      <trkpt lat="44.91628" lon="6.63014">
        <ele>1476.6</ele>
        <time>2022-08-07T17:33:25+0200</time>
      </trkpt>
      <trkpt lat="44.91634" lon="6.63011">
        <ele>1477.7</ele>
        <time>2022-08-07T17:33:29+0200</time>
      </trkpt>
      <trkpt lat="44.91639" lon="6.63007">
        <ele>1478.2</ele>
        <time>2022-08-07T17:33:32+0200</time>
      </trkpt>
      <trkpt lat="44.91645" lon="6.63008">
        <ele>1480.7</ele>
        <time>2022-08-07T17:33:35+0200</time>
      </trkpt>
      <trkpt lat="44.9165" lon="6.63004">
        <ele>1480.5</ele>
        <time>2022-08-07T17:33:38+0200</time>
      </trkpt>
      <trkpt lat="44.91654" lon="6.63002">
        <ele>1481.3</ele>
        <time>2022-08-07T17:33:40+0200</time>
      </trkpt>
      <trkpt lat="44.91658" lon="6.62997">
        <ele>1480.4</ele>
        <time>2022-08-07T17:33:43+0200</time>
      </trkpt>
      <trkpt lat="44.91663" lon="6.62997">
        <ele>1482.3</ele>
        <time>2022-08-07T17:33:45+0200</time>
      </trkpt>
      <trkpt lat="44.91667" lon="6.62991">
        <ele>1481</ele>
        <time>2022-08-07T17:33:48+0200</time>
      </trkpt>
      <trkpt lat="44.91673" lon="6.62988">
        <ele>1482.3</ele>
        <time>2022-08-07T17:33:51+0200</time>
      </trkpt>
      <trkpt lat="44.91679" lon="6.62987">
        <ele>1484.3</ele>
        <time>2022-08-07T17:33:53+0200</time>
      </trkpt>
      <trkpt lat="44.91683" lon="6.62983">
        <ele>1484.2</ele>
        <time>2022-08-07T17:33:57+0200</time>
      </trkpt>
      <trkpt lat="44.91688" lon="6.62981">
        <ele>1485.3</ele>
        <time>2022-08-07T17:34:00+0200</time>
      </trkpt>
      <trkpt lat="44.91693" lon="6.62978">
        <ele>1485.8</ele>
        <time>2022-08-07T17:34:02+0200</time>
      </trkpt>
      <trkpt lat="44.91697" lon="6.62973">
        <ele>1485</ele>
        <time>2022-08-07T17:34:04+0200</time>
      </trkpt>
      <trkpt lat="44.917" lon="6.62969">
        <ele>1484.5</ele>
        <time>2022-08-07T17:34:06+0200</time>
      </trkpt>
      <trkpt lat="44.91705" lon="6.62965">
        <ele>1484.1</ele>
        <time>2022-08-07T17:34:09+0200</time>
      </trkpt>
      <trkpt lat="44.9171" lon="6.62959">
        <ele>1483.1</ele>
        <time>2022-08-07T17:34:12+0200</time>
      </trkpt>
      <trkpt lat="44.91715" lon="6.62956">
        <ele>1483.1</ele>
        <time>2022-08-07T17:34:15+0200</time>
      </trkpt>
      <trkpt lat="44.91721" lon="6.62953">
        <ele>1483.3</ele>
        <time>2022-08-07T17:34:18+0200</time>
      </trkpt>
      <trkpt lat="44.91719" lon="6.62961">
        <ele>1486.4</ele>
        <time>2022-08-07T17:34:24+0200</time>
      </trkpt>
      <trkpt lat="44.91716" lon="6.62966">
        <ele>1487.6</ele>
        <time>2022-08-07T17:34:27+0200</time>
      </trkpt>
      <trkpt lat="44.91711" lon="6.62966">
        <ele>1486.4</ele>
        <time>2022-08-07T17:34:32+0200</time>
      </trkpt>
      <trkpt lat="44.91707" lon="6.62971">
        <ele>1487.2</ele>
        <time>2022-08-07T17:34:37+0200</time>
      </trkpt>
      <trkpt lat="44.91703" lon="6.62977">
        <ele>1488.7</ele>
        <time>2022-08-07T17:34:41+0200</time>
      </trkpt>
      <trkpt lat="44.91698" lon="6.62977">
        <ele>1487</ele>
        <time>2022-08-07T17:34:46+0200</time>
      </trkpt>
      <trkpt lat="44.91694" lon="6.6298">
        <ele>1487</ele>
        <time>2022-08-07T17:34:49+0200</time>
      </trkpt>
      <trkpt lat="44.91691" lon="6.62987">
        <ele>1488.9</ele>
        <time>2022-08-07T17:34:54+0200</time>
      </trkpt>
      <trkpt lat="44.91686" lon="6.62993">
        <ele>1489.6</ele>
        <time>2022-08-07T17:34:57+0200</time>
      </trkpt>
      <trkpt lat="44.91682" lon="6.62999">
        <ele>1490.5</ele>
        <time>2022-08-07T17:35:00+0200</time>
      </trkpt>
      <trkpt lat="44.91679" lon="6.63004">
        <ele>1491.8</ele>
        <time>2022-08-07T17:35:02+0200</time>
      </trkpt>
      <trkpt lat="44.91674" lon="6.6301">
        <ele>1492.3</ele>
        <time>2022-08-07T17:35:05+0200</time>
      </trkpt>
      <trkpt lat="44.91669" lon="6.63013">
        <ele>1492</ele>
        <time>2022-08-07T17:35:08+0200</time>
      </trkpt>
      <trkpt lat="44.91666" lon="6.63019">
        <ele>1493.5</ele>
        <time>2022-08-07T17:35:11+0200</time>
      </trkpt>
      <trkpt lat="44.91661" lon="6.63025">
        <ele>1494.5</ele>
        <time>2022-08-07T17:35:14+0200</time>
      </trkpt>
      <trkpt lat="44.91657" lon="6.63033">
        <ele>1496.7</ele>
        <time>2022-08-07T17:35:17+0200</time>
      </trkpt>
      <trkpt lat="44.91653" lon="6.63037">
        <ele>1496.7</ele>
        <time>2022-08-07T17:35:20+0200</time>
      </trkpt>
      <trkpt lat="44.91647" lon="6.63042">
        <ele>1497</ele>
        <time>2022-08-07T17:35:23+0200</time>
      </trkpt>
      <trkpt lat="44.91643" lon="6.63046">
        <ele>1497.1</ele>
        <time>2022-08-07T17:35:25+0200</time>
      </trkpt>
      <trkpt lat="44.91639" lon="6.63051">
        <ele>1498.2</ele>
        <time>2022-08-07T17:35:28+0200</time>
      </trkpt>
      <trkpt lat="44.91636" lon="6.63057">
        <ele>1499.4</ele>
        <time>2022-08-07T17:35:30+0200</time>
      </trkpt>
      <trkpt lat="44.91632" lon="6.63062">
        <ele>1500.2</ele>
        <time>2022-08-07T17:35:34+0200</time>
      </trkpt>
      <trkpt lat="44.91626" lon="6.63066">
        <ele>1500.1</ele>
        <time>2022-08-07T17:35:38+0200</time>
      </trkpt>
      <trkpt lat="44.91622" lon="6.63071">
        <ele>1500.8</ele>
        <time>2022-08-07T17:35:41+0200</time>
      </trkpt>
      <trkpt lat="44.91617" lon="6.63073">
        <ele>1500</ele>
        <time>2022-08-07T17:35:44+0200</time>
      </trkpt>
      <trkpt lat="44.91612" lon="6.63075">
        <ele>1498.9</ele>
        <time>2022-08-07T17:35:47+0200</time>
      </trkpt>
      <trkpt lat="44.91609" lon="6.63079">
        <ele>1500.1</ele>
        <time>2022-08-07T17:35:49+0200</time>
      </trkpt>
      <trkpt lat="44.91606" lon="6.63087">
        <ele>1502.6</ele>
        <time>2022-08-07T17:35:52+0200</time>
      </trkpt>
      <trkpt lat="44.91603" lon="6.63092">
        <ele>1503.8</ele>
        <time>2022-08-07T17:35:55+0200</time>
      </trkpt>
      <trkpt lat="44.91598" lon="6.63095">
        <ele>1503.9</ele>
        <time>2022-08-07T17:35:58+0200</time>
      </trkpt>
      <trkpt lat="44.91594" lon="6.631">
        <ele>1504.7</ele>
        <time>2022-08-07T17:36:01+0200</time>
      </trkpt>
      <trkpt lat="44.91592" lon="6.63106">
        <ele>1507</ele>
        <time>2022-08-07T17:36:03+0200</time>
      </trkpt>
      <trkpt lat="44.91588" lon="6.63108">
        <ele>1506</ele>
        <time>2022-08-07T17:36:07+0200</time>
      </trkpt>
      <trkpt lat="44.91583" lon="6.63111">
        <ele>1505.9</ele>
        <time>2022-08-07T17:36:10+0200</time>
      </trkpt>
      <trkpt lat="44.91579" lon="6.63116">
        <ele>1506.9</ele>
        <time>2022-08-07T17:36:13+0200</time>
      </trkpt>
      <trkpt lat="44.91575" lon="6.63121">
        <ele>1507.7</ele>
        <time>2022-08-07T17:36:16+0200</time>
      </trkpt>
      <trkpt lat="44.91571" lon="6.63127">
        <ele>1509.3</ele>
        <time>2022-08-07T17:36:19+0200</time>
      </trkpt>
      <trkpt lat="44.91567" lon="6.63131">
        <ele>1509.8</ele>
        <time>2022-08-07T17:36:22+0200</time>
      </trkpt>
      <trkpt lat="44.91564" lon="6.63136">
        <ele>1511.4</ele>
        <time>2022-08-07T17:36:24+0200</time>
      </trkpt>
      <trkpt lat="44.9156" lon="6.63138">
        <ele>1511.2</ele>
        <time>2022-08-07T17:36:27+0200</time>
      </trkpt>
      <trkpt lat="44.91556" lon="6.63143">
        <ele>1512.5</ele>
        <time>2022-08-07T17:36:29+0200</time>
      </trkpt>
      <trkpt lat="44.91552" lon="6.63147">
        <ele>1513.1</ele>
        <time>2022-08-07T17:36:32+0200</time>
      </trkpt>
      <trkpt lat="44.91549" lon="6.63153">
        <ele>1515.4</ele>
        <time>2022-08-07T17:36:35+0200</time>
      </trkpt>
      <trkpt lat="44.91544" lon="6.63158">
        <ele>1516.4</ele>
        <time>2022-08-07T17:36:39+0200</time>
      </trkpt>
      <trkpt lat="44.9154" lon="6.63162">
        <ele>1516.9</ele>
        <time>2022-08-07T17:36:43+0200</time>
      </trkpt>
      <trkpt lat="44.91535" lon="6.63165">
        <ele>1516.8</ele>
        <time>2022-08-07T17:36:47+0200</time>
      </trkpt>
      <trkpt lat="44.91531" lon="6.63171">
        <ele>1518.1</ele>
        <time>2022-08-07T17:36:51+0200</time>
      </trkpt>
      <trkpt lat="44.91527" lon="6.63174">
        <ele>1518</ele>
        <time>2022-08-07T17:36:54+0200</time>
      </trkpt>
      <trkpt lat="44.91522" lon="6.6318">
        <ele>1518.7</ele>
        <time>2022-08-07T17:36:57+0200</time>
      </trkpt>
      <trkpt lat="44.91522" lon="6.63188">
        <ele>1522.6</ele>
        <time>2022-08-07T17:37:00+0200</time>
      </trkpt>
      <trkpt lat="44.91526" lon="6.63185">
        <ele>1522.5</ele>
        <time>2022-08-07T17:37:07+0200</time>
      </trkpt>
      <trkpt lat="44.91529" lon="6.6318">
        <ele>1521.7</ele>
        <time>2022-08-07T17:37:12+0200</time>
      </trkpt>
      <trkpt lat="44.91534" lon="6.6318">
        <ele>1523.6</ele>
        <time>2022-08-07T17:37:16+0200</time>
      </trkpt>
      <trkpt lat="44.9154" lon="6.6318">
        <ele>1526.1</ele>
        <time>2022-08-07T17:37:19+0200</time>
      </trkpt>
      <trkpt lat="44.91545" lon="6.63177">
        <ele>1526.4</ele>
        <time>2022-08-07T17:37:24+0200</time>
      </trkpt>
      <trkpt lat="44.9155" lon="6.63173">
        <ele>1526.5</ele>
        <time>2022-08-07T17:37:27+0200</time>
      </trkpt>
      <trkpt lat="44.91554" lon="6.63169">
        <ele>1525.3</ele>
        <time>2022-08-07T17:37:28+0200</time>
      </trkpt>
      <trkpt lat="44.91558" lon="6.63163">
        <ele>1524.2</ele>
        <time>2022-08-07T17:37:32+0200</time>
      </trkpt>
      <trkpt lat="44.91564" lon="6.63159">
        <ele>1524.3</ele>
        <time>2022-08-07T17:37:35+0200</time>
      </trkpt>
      <trkpt lat="44.91569" lon="6.63159">
        <ele>1525.8</ele>
        <time>2022-08-07T17:37:37+0200</time>
      </trkpt>
      <trkpt lat="44.91574" lon="6.63156">
        <ele>1526.5</ele>
        <time>2022-08-07T17:37:40+0200</time>
      </trkpt>
      <trkpt lat="44.91579" lon="6.63154">
        <ele>1527</ele>
        <time>2022-08-07T17:37:44+0200</time>
      </trkpt>
      <trkpt lat="44.91584" lon="6.63151">
        <ele>1527.3</ele>
        <time>2022-08-07T17:37:47+0200</time>
      </trkpt>
      <trkpt lat="44.9159" lon="6.63148">
        <ele>1528</ele>
        <time>2022-08-07T17:37:50+0200</time>
      </trkpt>
      <trkpt lat="44.91595" lon="6.63142">
        <ele>1526.9</ele>
        <time>2022-08-07T17:37:53+0200</time>
      </trkpt>
      <trkpt lat="44.916" lon="6.63141">
        <ele>1528.4</ele>
        <time>2022-08-07T17:37:56+0200</time>
      </trkpt>
      <trkpt lat="44.91606" lon="6.63137">
        <ele>1529</ele>
        <time>2022-08-07T17:37:59+0200</time>
      </trkpt>
      <trkpt lat="44.9161" lon="6.63132">
        <ele>1527.4</ele>
        <time>2022-08-07T17:38:02+0200</time>
      </trkpt>
      <trkpt lat="44.91614" lon="6.63129">
        <ele>1527.9</ele>
        <time>2022-08-07T17:38:05+0200</time>
      </trkpt>
      <trkpt lat="44.91618" lon="6.63125">
        <ele>1527.8</ele>
        <time>2022-08-07T17:38:08+0200</time>
      </trkpt>
      <trkpt lat="44.91623" lon="6.63122">
        <ele>1527.9</ele>
        <time>2022-08-07T17:38:12+0200</time>
      </trkpt>
      <trkpt lat="44.91627" lon="6.63118">
        <ele>1527.4</ele>
        <time>2022-08-07T17:38:15+0200</time>
      </trkpt>
      <trkpt lat="44.91632" lon="6.63119">
        <ele>1530</ele>
        <time>2022-08-07T17:38:18+0200</time>
      </trkpt>
      <trkpt lat="44.91637" lon="6.6312">
        <ele>1532.7</ele>
        <time>2022-08-07T17:38:21+0200</time>
      </trkpt>
      <trkpt lat="44.91642" lon="6.63117">
        <ele>1533.4</ele>
        <time>2022-08-07T17:38:25+0200</time>
      </trkpt>
      <trkpt lat="44.91647" lon="6.63117">
        <ele>1535</ele>
        <time>2022-08-07T17:38:28+0200</time>
      </trkpt>
      <trkpt lat="44.91651" lon="6.63118">
        <ele>1537.2</ele>
        <time>2022-08-07T17:38:30+0200</time>
      </trkpt>
      <trkpt lat="44.91656" lon="6.63116">
        <ele>1538.3</ele>
        <time>2022-08-07T17:38:33+0200</time>
      </trkpt>
      <trkpt lat="44.91661" lon="6.63112">
        <ele>1538.2</ele>
        <time>2022-08-07T17:38:36+0200</time>
      </trkpt>
      <trkpt lat="44.91667" lon="6.63109">
        <ele>1539.2</ele>
        <time>2022-08-07T17:38:39+0200</time>
      </trkpt>
      <trkpt lat="44.91672" lon="6.63107">
        <ele>1539.9</ele>
        <time>2022-08-07T17:38:42+0200</time>
      </trkpt>
      <trkpt lat="44.91675" lon="6.63102">
        <ele>1538.9</ele>
        <time>2022-08-07T17:38:44+0200</time>
      </trkpt>
      <trkpt lat="44.9168" lon="6.631">
        <ele>1539.7</ele>
        <time>2022-08-07T17:38:47+0200</time>
      </trkpt>
      <trkpt lat="44.91685" lon="6.63094">
        <ele>1538.6</ele>
        <time>2022-08-07T17:38:49+0200</time>
      </trkpt>
      <trkpt lat="44.91688" lon="6.63089">
        <ele>1537.3</ele>
        <time>2022-08-07T17:38:51+0200</time>
      </trkpt>
      <trkpt lat="44.91691" lon="6.63083">
        <ele>1535.3</ele>
        <time>2022-08-07T17:38:53+0200</time>
      </trkpt>
      <trkpt lat="44.91695" lon="6.63078">
        <ele>1534.5</ele>
        <time>2022-08-07T17:38:55+0200</time>
      </trkpt>
      <trkpt lat="44.91699" lon="6.63074">
        <ele>1533.9</ele>
        <time>2022-08-07T17:38:57+0200</time>
      </trkpt>
      <trkpt lat="44.91705" lon="6.63072">
        <ele>1534.5</ele>
        <time>2022-08-07T17:38:59+0200</time>
      </trkpt>
      <trkpt lat="44.91709" lon="6.63074">
        <ele>1536.9</ele>
        <time>2022-08-07T17:39:01+0200</time>
      </trkpt>
      <trkpt lat="44.9171" lon="6.63082">
        <ele>1541.2</ele>
        <time>2022-08-07T17:39:04+0200</time>
      </trkpt>
      <trkpt lat="44.91705" lon="6.63082">
        <ele>1539.5</ele>
        <time>2022-08-07T17:39:06+0200</time>
      </trkpt>
      <trkpt lat="44.917" lon="6.63084">
        <ele>1539.1</ele>
        <time>2022-08-07T17:39:11+0200</time>
      </trkpt>
      <trkpt lat="44.91697" lon="6.63088">
        <ele>1540.3</ele>
        <time>2022-08-07T17:39:14+0200</time>
      </trkpt>
      <trkpt lat="44.91693" lon="6.63093">
        <ele>1541.5</ele>
        <time>2022-08-07T17:39:17+0200</time>
      </trkpt>
      <trkpt lat="44.9169" lon="6.63101">
        <ele>1543.9</ele>
        <time>2022-08-07T17:39:21+0200</time>
      </trkpt>
      <trkpt lat="44.91685" lon="6.63104">
        <ele>1543.6</ele>
        <time>2022-08-07T17:39:25+0200</time>
      </trkpt>
      <trkpt lat="44.91681" lon="6.63109">
        <ele>1544.6</ele>
        <time>2022-08-07T17:39:28+0200</time>
      </trkpt>
      <trkpt lat="44.91677" lon="6.63113">
        <ele>1544.8</ele>
        <time>2022-08-07T17:39:31+0200</time>
      </trkpt>
      <trkpt lat="44.91672" lon="6.63119">
        <ele>1546.1</ele>
        <time>2022-08-07T17:39:35+0200</time>
      </trkpt>
      <trkpt lat="44.91669" lon="6.63124">
        <ele>1547.4</ele>
        <time>2022-08-07T17:39:38+0200</time>
      </trkpt>
      <trkpt lat="44.91664" lon="6.63126">
        <ele>1547.1</ele>
        <time>2022-08-07T17:39:41+0200</time>
      </trkpt>
      <trkpt lat="44.9166" lon="6.63132">
        <ele>1548.8</ele>
        <time>2022-08-07T17:39:45+0200</time>
      </trkpt>
      <trkpt lat="44.91656" lon="6.63137">
        <ele>1549.9</ele>
        <time>2022-08-07T17:39:48+0200</time>
      </trkpt>
      <trkpt lat="44.9165" lon="6.63138">
        <ele>1547.9</ele>
        <time>2022-08-07T17:39:52+0200</time>
      </trkpt>
      <trkpt lat="44.91646" lon="6.63144">
        <ele>1549.1</ele>
        <time>2022-08-07T17:39:55+0200</time>
      </trkpt>
      <trkpt lat="44.91641" lon="6.63151">
        <ele>1551.3</ele>
        <time>2022-08-07T17:39:57+0200</time>
      </trkpt>
      <trkpt lat="44.91637" lon="6.63154">
        <ele>1550.9</ele>
        <time>2022-08-07T17:40:00+0200</time>
      </trkpt>
      <trkpt lat="44.91633" lon="6.63158">
        <ele>1551.3</ele>
        <time>2022-08-07T17:40:02+0200</time>
      </trkpt>
      <trkpt lat="44.91628" lon="6.63163">
        <ele>1551.9</ele>
        <time>2022-08-07T17:40:05+0200</time>
      </trkpt>
      <trkpt lat="44.91622" lon="6.63169">
        <ele>1552.5</ele>
        <time>2022-08-07T17:40:08+0200</time>
      </trkpt>
      <trkpt lat="44.91618" lon="6.63175">
        <ele>1554.1</ele>
        <time>2022-08-07T17:40:11+0200</time>
      </trkpt>
      <trkpt lat="44.9162" lon="6.63182">
        <ele>1558.3</ele>
        <time>2022-08-07T17:40:13+0200</time>
      </trkpt>
      <trkpt lat="44.91625" lon="6.63184">
        <ele>1561.3</ele>
        <time>2022-08-07T17:40:22+0200</time>
      </trkpt>
      <trkpt lat="44.91629" lon="6.63181">
        <ele>1561.5</ele>
        <time>2022-08-07T17:40:26+0200</time>
      </trkpt>
      <trkpt lat="44.91634" lon="6.63183">
        <ele>1564.2</ele>
        <time>2022-08-07T17:40:31+0200</time>
      </trkpt>
      <trkpt lat="44.91638" lon="6.63178">
        <ele>1563.6</ele>
        <time>2022-08-07T17:40:34+0200</time>
      </trkpt>
      <trkpt lat="44.91642" lon="6.63175">
        <ele>1563.1</ele>
        <time>2022-08-07T17:40:37+0200</time>
      </trkpt>
      <trkpt lat="44.91647" lon="6.63171">
        <ele>1563.3</ele>
        <time>2022-08-07T17:40:40+0200</time>
      </trkpt>
      <trkpt lat="44.91652" lon="6.63168">
        <ele>1563.1</ele>
        <time>2022-08-07T17:40:43+0200</time>
      </trkpt>
      <trkpt lat="44.91658" lon="6.63167">
        <ele>1564.7</ele>
        <time>2022-08-07T17:40:46+0200</time>
      </trkpt>
      <trkpt lat="44.91662" lon="6.63165">
        <ele>1565.3</ele>
        <time>2022-08-07T17:40:48+0200</time>
      </trkpt>
      <trkpt lat="44.91666" lon="6.63161">
        <ele>1564.9</ele>
        <time>2022-08-07T17:40:50+0200</time>
      </trkpt>
      <trkpt lat="44.91671" lon="6.63157">
        <ele>1564.9</ele>
        <time>2022-08-07T17:40:53+0200</time>
      </trkpt>
      <trkpt lat="44.91675" lon="6.63153">
        <ele>1564.4</ele>
        <time>2022-08-07T17:40:55+0200</time>
      </trkpt>
      <trkpt lat="44.9168" lon="6.63151">
        <ele>1565.4</ele>
        <time>2022-08-07T17:40:58+0200</time>
      </trkpt>
      <trkpt lat="44.91685" lon="6.6315">
        <ele>1566.7</ele>
        <time>2022-08-07T17:41:00+0200</time>
      </trkpt>
      <trkpt lat="44.9169" lon="6.63147">
        <ele>1566.8</ele>
        <time>2022-08-07T17:41:03+0200</time>
      </trkpt>
      <trkpt lat="44.91694" lon="6.63143">
        <ele>1566.8</ele>
        <time>2022-08-07T17:41:06+0200</time>
      </trkpt>
      <trkpt lat="44.91698" lon="6.63139">
        <ele>1565.8</ele>
        <time>2022-08-07T17:41:09+0200</time>
      </trkpt>
      <trkpt lat="44.91703" lon="6.63135">
        <ele>1565.1</ele>
        <time>2022-08-07T17:41:12+0200</time>
      </trkpt>
      <trkpt lat="44.91708" lon="6.6313">
        <ele>1563.9</ele>
        <time>2022-08-07T17:41:15+0200</time>
      </trkpt>
      <trkpt lat="44.91713" lon="6.63126">
        <ele>1563.5</ele>
        <time>2022-08-07T17:41:18+0200</time>
      </trkpt>
      <trkpt lat="44.91719" lon="6.63124">
        <ele>1564</ele>
        <time>2022-08-07T17:41:21+0200</time>
      </trkpt>
      <trkpt lat="44.91723" lon="6.63121">
        <ele>1563.5</ele>
        <time>2022-08-07T17:41:23+0200</time>
      </trkpt>
      <trkpt lat="44.91728" lon="6.63121">
        <ele>1564</ele>
        <time>2022-08-07T17:41:27+0200</time>
      </trkpt>
      <trkpt lat="44.91734" lon="6.6312">
        <ele>1563.5</ele>
        <time>2022-08-07T17:41:30+0200</time>
      </trkpt>
      <trkpt lat="44.9174" lon="6.6312">
        <ele>1564</ele>
        <time>2022-08-07T17:41:32+0200</time>
      </trkpt>
      <trkpt lat="44.91745" lon="6.63117">
        <ele>1562.6</ele>
        <time>2022-08-07T17:41:34+0200</time>
      </trkpt>
      <trkpt lat="44.9175" lon="6.6312">
        <ele>1564.5</ele>
        <time>2022-08-07T17:41:36+0200</time>
      </trkpt>
      <trkpt lat="44.91748" lon="6.63126">
        <ele>1567.4</ele>
        <time>2022-08-07T17:41:42+0200</time>
      </trkpt>
      <trkpt lat="44.91742" lon="6.63125">
        <ele>1566.4</ele>
        <time>2022-08-07T17:41:44+0200</time>
      </trkpt>
      <trkpt lat="44.91737" lon="6.63127">
        <ele>1567.1</ele>
        <time>2022-08-07T17:41:48+0200</time>
      </trkpt>
      <trkpt lat="44.91732" lon="6.6313">
        <ele>1568.4</ele>
        <time>2022-08-07T17:41:53+0200</time>
      </trkpt>
      <trkpt lat="44.91726" lon="6.63134">
        <ele>1569.9</ele>
        <time>2022-08-07T17:41:58+0200</time>
      </trkpt>
      <trkpt lat="44.91722" lon="6.63138">
        <ele>1571.5</ele>
        <time>2022-08-07T17:42:01+0200</time>
      </trkpt>
      <trkpt lat="44.91716" lon="6.63142">
        <ele>1572</ele>
        <time>2022-08-07T17:42:04+0200</time>
      </trkpt>
      <trkpt lat="44.91712" lon="6.63146">
        <ele>1572.4</ele>
        <time>2022-08-07T17:42:06+0200</time>
      </trkpt>
      <trkpt lat="44.91706" lon="6.6315">
        <ele>1572.8</ele>
        <time>2022-08-07T17:42:09+0200</time>
      </trkpt>
      <trkpt lat="44.91703" lon="6.63157">
        <ele>1575.1</ele>
        <time>2022-08-07T17:42:12+0200</time>
      </trkpt>
      <trkpt lat="44.91698" lon="6.63162">
        <ele>1575.9</ele>
        <time>2022-08-07T17:42:17+0200</time>
      </trkpt>
      <trkpt lat="44.91695" lon="6.63167">
        <ele>1577.6</ele>
        <time>2022-08-07T17:42:19+0200</time>
      </trkpt>
      <trkpt lat="44.91691" lon="6.63172">
        <ele>1578.7</ele>
        <time>2022-08-07T17:42:22+0200</time>
      </trkpt>
      <trkpt lat="44.91687" lon="6.63176">
        <ele>1579.1</ele>
        <time>2022-08-07T17:42:25+0200</time>
      </trkpt>
      <trkpt lat="44.91682" lon="6.6318">
        <ele>1579.5</ele>
        <time>2022-08-07T17:42:29+0200</time>
      </trkpt>
      <trkpt lat="44.91679" lon="6.63186">
        <ele>1581.5</ele>
        <time>2022-08-07T17:42:31+0200</time>
      </trkpt>
      <trkpt lat="44.91675" lon="6.63188">
        <ele>1580.6</ele>
        <time>2022-08-07T17:42:34+0200</time>
      </trkpt>
      <trkpt lat="44.91671" lon="6.63195">
        <ele>1582.8</ele>
        <time>2022-08-07T17:42:37+0200</time>
      </trkpt>
      <trkpt lat="44.91667" lon="6.63203">
        <ele>1585.4</ele>
        <time>2022-08-07T17:42:40+0200</time>
      </trkpt>
      <trkpt lat="44.91663" lon="6.63205">
        <ele>1585</ele>
        <time>2022-08-07T17:42:43+0200</time>
      </trkpt>
      <trkpt lat="44.91658" lon="6.63208">
        <ele>1585.1</ele>
        <time>2022-08-07T17:42:46+0200</time>
      </trkpt>
      <trkpt lat="44.91653" lon="6.63214">
        <ele>1586.5</ele>
        <time>2022-08-07T17:42:49+0200</time>
      </trkpt>
      <trkpt lat="44.91649" lon="6.63219">
        <ele>1587.4</ele>
        <time>2022-08-07T17:42:52+0200</time>
      </trkpt>
      <trkpt lat="44.91645" lon="6.63224">
        <ele>1588.7</ele>
        <time>2022-08-07T17:42:54+0200</time>
      </trkpt>
      <trkpt lat="44.9164" lon="6.63227">
        <ele>1588.7</ele>
        <time>2022-08-07T17:42:57+0200</time>
      </trkpt>
      <trkpt lat="44.91636" lon="6.6323">
        <ele>1588.8</ele>
        <time>2022-08-07T17:43:00+0200</time>
      </trkpt>
      <trkpt lat="44.91633" lon="6.63238">
        <ele>1591.1</ele>
        <time>2022-08-07T17:43:03+0200</time>
      </trkpt>
      <trkpt lat="44.91632" lon="6.63247">
        <ele>1595.1</ele>
        <time>2022-08-07T17:43:06+0200</time>
      </trkpt>
      <trkpt lat="44.91629" lon="6.63253">
        <ele>1596.9</ele>
        <time>2022-08-07T17:43:10+0200</time>
      </trkpt>
      <trkpt lat="44.91624" lon="6.63257">
        <ele>1597</ele>
        <time>2022-08-07T17:43:14+0200</time>
      </trkpt>
      <trkpt lat="44.9162" lon="6.6326">
        <ele>1596.9</ele>
        <time>2022-08-07T17:43:18+0200</time>
      </trkpt>
      <trkpt lat="44.91615" lon="6.63262">
        <ele>1596.2</ele>
        <time>2022-08-07T17:43:21+0200</time>
      </trkpt>
      <trkpt lat="44.9161" lon="6.63268">
        <ele>1596.8</ele>
        <time>2022-08-07T17:43:25+0200</time>
      </trkpt>
      <trkpt lat="44.91605" lon="6.6327">
        <ele>1595.9</ele>
        <time>2022-08-07T17:43:27+0200</time>
      </trkpt>
      <trkpt lat="44.91601" lon="6.63274">
        <ele>1596.4</ele>
        <time>2022-08-07T17:43:29+0200</time>
      </trkpt>
      <trkpt lat="44.91597" lon="6.6328">
        <ele>1597.3</ele>
        <time>2022-08-07T17:43:31+0200</time>
      </trkpt>
      <trkpt lat="44.91593" lon="6.63283">
        <ele>1597.3</ele>
        <time>2022-08-07T17:43:33+0200</time>
      </trkpt>
      <trkpt lat="44.91589" lon="6.63289">
        <ele>1598.5</ele>
        <time>2022-08-07T17:43:36+0200</time>
      </trkpt>
      <trkpt lat="44.91583" lon="6.63292">
        <ele>1597.5</ele>
        <time>2022-08-07T17:43:39+0200</time>
      </trkpt>
      <trkpt lat="44.91579" lon="6.63297">
        <ele>1597.9</ele>
        <time>2022-08-07T17:43:41+0200</time>
      </trkpt>
      <trkpt lat="44.91575" lon="6.63302">
        <ele>1598.4</ele>
        <time>2022-08-07T17:43:44+0200</time>
      </trkpt>
      <trkpt lat="44.91571" lon="6.63308">
        <ele>1599</ele>
        <time>2022-08-07T17:43:47+0200</time>
      </trkpt>
      <trkpt lat="44.91568" lon="6.63315">
        <ele>1599.9</ele>
        <time>2022-08-07T17:43:50+0200</time>
      </trkpt>
      <trkpt lat="44.91564" lon="6.63322">
        <ele>1601.1</ele>
        <time>2022-08-07T17:43:53+0200</time>
      </trkpt>
      <trkpt lat="44.9156" lon="6.63329">
        <ele>1601.8</ele>
        <time>2022-08-07T17:43:56+0200</time>
      </trkpt>
      <trkpt lat="44.91555" lon="6.63333">
        <ele>1600.4</ele>
        <time>2022-08-07T17:43:59+0200</time>
      </trkpt>
      <trkpt lat="44.9155" lon="6.63339">
        <ele>1600.4</ele>
        <time>2022-08-07T17:44:03+0200</time>
      </trkpt>
      <trkpt lat="44.9155" lon="6.63347">
        <ele>1603.9</ele>
        <time>2022-08-07T17:44:07+0200</time>
      </trkpt>
      <trkpt lat="44.91555" lon="6.63348">
        <ele>1607</ele>
        <time>2022-08-07T17:44:12+0200</time>
      </trkpt>
      <trkpt lat="44.9156" lon="6.63345">
        <ele>1608.2</ele>
        <time>2022-08-07T17:44:18+0200</time>
      </trkpt>
      <trkpt lat="44.91565" lon="6.63341">
        <ele>1609.3</ele>
        <time>2022-08-07T17:44:22+0200</time>
      </trkpt>
      <trkpt lat="44.91569" lon="6.63335">
        <ele>1608.6</ele>
        <time>2022-08-07T17:44:25+0200</time>
      </trkpt>
      <trkpt lat="44.91574" lon="6.6333">
        <ele>1609.6</ele>
        <time>2022-08-07T17:44:29+0200</time>
      </trkpt>
      <trkpt lat="44.91578" lon="6.63326">
        <ele>1610.1</ele>
        <time>2022-08-07T17:44:33+0200</time>
      </trkpt>
      <trkpt lat="44.91583" lon="6.63323">
        <ele>1611.4</ele>
        <time>2022-08-07T17:44:36+0200</time>
      </trkpt>
      <trkpt lat="44.91587" lon="6.6332">
        <ele>1611.6</ele>
        <time>2022-08-07T17:44:39+0200</time>
      </trkpt>
      <trkpt lat="44.91592" lon="6.63315">
        <ele>1611.6</ele>
        <time>2022-08-07T17:44:43+0200</time>
      </trkpt>
      <trkpt lat="44.91596" lon="6.63311">
        <ele>1611.5</ele>
        <time>2022-08-07T17:44:46+0200</time>
      </trkpt>
      <trkpt lat="44.916" lon="6.63312">
        <ele>1613.4</ele>
        <time>2022-08-07T17:44:49+0200</time>
      </trkpt>
      <trkpt lat="44.91605" lon="6.6331">
        <ele>1614.7</ele>
        <time>2022-08-07T17:44:52+0200</time>
      </trkpt>
      <trkpt lat="44.9161" lon="6.63306">
        <ele>1615.1</ele>
        <time>2022-08-07T17:44:55+0200</time>
      </trkpt>
      <trkpt lat="44.91615" lon="6.63306">
        <ele>1616.8</ele>
        <time>2022-08-07T17:44:58+0200</time>
      </trkpt>
      <trkpt lat="44.9162" lon="6.63308">
        <ele>1620.1</ele>
        <time>2022-08-07T17:45:02+0200</time>
      </trkpt>
      <trkpt lat="44.91626" lon="6.63309">
        <ele>1623.1</ele>
        <time>2022-08-07T17:45:06+0200</time>
      </trkpt>
      <trkpt lat="44.9163" lon="6.63305">
        <ele>1623.1</ele>
        <time>2022-08-07T17:45:09+0200</time>
      </trkpt>
      <trkpt lat="44.91635" lon="6.63304">
        <ele>1624.3</ele>
        <time>2022-08-07T17:45:12+0200</time>
      </trkpt>
      <trkpt lat="44.91639" lon="6.63298">
        <ele>1623</ele>
        <time>2022-08-07T17:45:15+0200</time>
      </trkpt>
      <trkpt lat="44.91642" lon="6.63293">
        <ele>1621.9</ele>
        <time>2022-08-07T17:45:18+0200</time>
      </trkpt>
      <trkpt lat="44.91647" lon="6.63288">
        <ele>1621.3</ele>
        <time>2022-08-07T17:45:21+0200</time>
      </trkpt>
      <trkpt lat="44.91651" lon="6.63284">
        <ele>1621.6</ele>
        <time>2022-08-07T17:45:24+0200</time>
      </trkpt>
      <trkpt lat="44.91657" lon="6.6328">
        <ele>1621.5</ele>
        <time>2022-08-07T17:45:28+0200</time>
      </trkpt>
      <trkpt lat="44.91661" lon="6.63276">
        <ele>1621.9</ele>
        <time>2022-08-07T17:45:32+0200</time>
      </trkpt>
      <trkpt lat="44.91666" lon="6.63273">
        <ele>1622.1</ele>
        <time>2022-08-07T17:45:35+0200</time>
      </trkpt>
      <trkpt lat="44.91673" lon="6.63271">
        <ele>1623.6</ele>
        <time>2022-08-07T17:45:38+0200</time>
      </trkpt>
      <trkpt lat="44.91677" lon="6.63269">
        <ele>1624.3</ele>
        <time>2022-08-07T17:45:42+0200</time>
      </trkpt>
      <trkpt lat="44.91682" lon="6.63267">
        <ele>1624.7</ele>
        <time>2022-08-07T17:45:45+0200</time>
      </trkpt>
      <trkpt lat="44.91686" lon="6.63263">
        <ele>1624.6</ele>
        <time>2022-08-07T17:45:48+0200</time>
      </trkpt>
      <trkpt lat="44.91692" lon="6.63261">
        <ele>1625.3</ele>
        <time>2022-08-07T17:45:50+0200</time>
      </trkpt>
      <trkpt lat="44.91697" lon="6.63259">
        <ele>1625.7</ele>
        <time>2022-08-07T17:45:52+0200</time>
      </trkpt>
      <trkpt lat="44.91701" lon="6.63256">
        <ele>1625.4</ele>
        <time>2022-08-07T17:45:55+0200</time>
      </trkpt>
      <trkpt lat="44.91706" lon="6.63251">
        <ele>1623.5</ele>
        <time>2022-08-07T17:45:59+0200</time>
      </trkpt>
      <trkpt lat="44.91712" lon="6.63249">
        <ele>1623.8</ele>
        <time>2022-08-07T17:46:02+0200</time>
      </trkpt>
      <trkpt lat="44.91718" lon="6.63246">
        <ele>1623.5</ele>
        <time>2022-08-07T17:46:05+0200</time>
      </trkpt>
      <trkpt lat="44.91723" lon="6.63243">
        <ele>1623.3</ele>
        <time>2022-08-07T17:46:07+0200</time>
      </trkpt>
      <trkpt lat="44.91727" lon="6.6324">
        <ele>1622.3</ele>
        <time>2022-08-07T17:46:09+0200</time>
      </trkpt>
      <trkpt lat="44.91732" lon="6.63238">
        <ele>1621.7</ele>
        <time>2022-08-07T17:46:12+0200</time>
      </trkpt>
      <trkpt lat="44.91738" lon="6.63235">
        <ele>1620.6</ele>
        <time>2022-08-07T17:46:15+0200</time>
      </trkpt>
      <trkpt lat="44.91743" lon="6.63233">
        <ele>1620.1</ele>
        <time>2022-08-07T17:46:18+0200</time>
      </trkpt>
      <trkpt lat="44.91747" lon="6.63232">
        <ele>1619.9</ele>
        <time>2022-08-07T17:46:20+0200</time>
      </trkpt>
      <trkpt lat="44.91752" lon="6.63232">
        <ele>1619.7</ele>
        <time>2022-08-07T17:46:22+0200</time>
      </trkpt>
      <trkpt lat="44.91755" lon="6.63236">
        <ele>1621.5</ele>
        <time>2022-08-07T17:46:26+0200</time>
      </trkpt>
      <trkpt lat="44.91751" lon="6.63241">
        <ele>1624.9</ele>
        <time>2022-08-07T17:46:32+0200</time>
      </trkpt>
      <trkpt lat="44.91746" lon="6.63244">
        <ele>1626.5</ele>
        <time>2022-08-07T17:46:35+0200</time>
      </trkpt>
      <trkpt lat="44.91741" lon="6.63245">
        <ele>1626.4</ele>
        <time>2022-08-07T17:46:38+0200</time>
      </trkpt>
      <trkpt lat="44.91738" lon="6.63251">
        <ele>1629.2</ele>
        <time>2022-08-07T17:46:41+0200</time>
      </trkpt>
      <trkpt lat="44.91734" lon="6.63254">
        <ele>1630.6</ele>
        <time>2022-08-07T17:46:44+0200</time>
      </trkpt>
      <trkpt lat="44.91729" lon="6.63256">
        <ele>1631.2</ele>
        <time>2022-08-07T17:46:48+0200</time>
      </trkpt>
      <trkpt lat="44.91724" lon="6.63259">
        <ele>1632.6</ele>
        <time>2022-08-07T17:46:51+0200</time>
      </trkpt>
      <trkpt lat="44.9172" lon="6.63263">
        <ele>1634.6</ele>
        <time>2022-08-07T17:46:53+0200</time>
      </trkpt>
      <trkpt lat="44.91716" lon="6.63269">
        <ele>1636.7</ele>
        <time>2022-08-07T17:46:55+0200</time>
      </trkpt>
      <trkpt lat="44.91713" lon="6.63273">
        <ele>1638.5</ele>
        <time>2022-08-07T17:46:58+0200</time>
      </trkpt>
      <trkpt lat="44.91709" lon="6.63277">
        <ele>1639.9</ele>
        <time>2022-08-07T17:47:01+0200</time>
      </trkpt>
      <trkpt lat="44.91704" lon="6.63284">
        <ele>1642.1</ele>
        <time>2022-08-07T17:47:05+0200</time>
      </trkpt>
      <trkpt lat="44.91698" lon="6.63286">
        <ele>1641.9</ele>
        <time>2022-08-07T17:47:11+0200</time>
      </trkpt>
      <trkpt lat="44.91694" lon="6.6329">
        <ele>1643</ele>
        <time>2022-08-07T17:47:14+0200</time>
      </trkpt>
      <trkpt lat="44.91691" lon="6.63295">
        <ele>1644.3</ele>
        <time>2022-08-07T17:47:17+0200</time>
      </trkpt>
      <trkpt lat="44.91686" lon="6.63298">
        <ele>1644.3</ele>
        <time>2022-08-07T17:47:20+0200</time>
      </trkpt>
      <trkpt lat="44.91682" lon="6.63303">
        <ele>1645.3</ele>
        <time>2022-08-07T17:47:24+0200</time>
      </trkpt>
      <trkpt lat="44.91678" lon="6.63307">
        <ele>1645.5</ele>
        <time>2022-08-07T17:47:27+0200</time>
      </trkpt>
      <trkpt lat="44.91674" lon="6.63313">
        <ele>1647.1</ele>
        <time>2022-08-07T17:47:30+0200</time>
      </trkpt>
      <trkpt lat="44.9167" lon="6.63322">
        <ele>1650.4</ele>
        <time>2022-08-07T17:47:33+0200</time>
      </trkpt>
      <trkpt lat="44.91667" lon="6.6333">
        <ele>1653.1</ele>
        <time>2022-08-07T17:47:36+0200</time>
      </trkpt>
      <trkpt lat="44.91666" lon="6.63336">
        <ele>1656</ele>
        <time>2022-08-07T17:47:38+0200</time>
      </trkpt>
      <trkpt lat="44.9166" lon="6.6334">
        <ele>1655.4</ele>
        <time>2022-08-07T17:47:41+0200</time>
      </trkpt>
      <trkpt lat="44.91658" lon="6.63347">
        <ele>1657.8</ele>
        <time>2022-08-07T17:47:45+0200</time>
      </trkpt>
      <trkpt lat="44.91662" lon="6.63344">
        <ele>1658.2</ele>
        <time>2022-08-07T17:47:49+0200</time>
      </trkpt>
      <trkpt lat="44.91668" lon="6.63341">
        <ele>1659.6</ele>
        <time>2022-08-07T17:47:53+0200</time>
      </trkpt>
      <trkpt lat="44.91673" lon="6.63336">
        <ele>1659.7</ele>
        <time>2022-08-07T17:47:56+0200</time>
      </trkpt>
      <trkpt lat="44.91676" lon="6.63332">
        <ele>1658.8</ele>
        <time>2022-08-07T17:47:59+0200</time>
      </trkpt>
      <trkpt lat="44.91681" lon="6.63327">
        <ele>1658.4</ele>
        <time>2022-08-07T17:48:03+0200</time>
      </trkpt>
      <trkpt lat="44.91685" lon="6.63324">
        <ele>1658.7</ele>
        <time>2022-08-07T17:48:06+0200</time>
      </trkpt>
      <trkpt lat="44.9169" lon="6.63319">
        <ele>1658.2</ele>
        <time>2022-08-07T17:48:09+0200</time>
      </trkpt>
      <trkpt lat="44.91694" lon="6.63315">
        <ele>1657.8</ele>
        <time>2022-08-07T17:48:11+0200</time>
      </trkpt>
      <trkpt lat="44.917" lon="6.63309">
        <ele>1655.6</ele>
        <time>2022-08-07T17:48:15+0200</time>
      </trkpt>
      <trkpt lat="44.91705" lon="6.63306">
        <ele>1655.5</ele>
        <time>2022-08-07T17:48:18+0200</time>
      </trkpt>
      <trkpt lat="44.91709" lon="6.63302">
        <ele>1654.3</ele>
        <time>2022-08-07T17:48:21+0200</time>
      </trkpt>
      <trkpt lat="44.91714" lon="6.633">
        <ele>1654.7</ele>
        <time>2022-08-07T17:48:24+0200</time>
      </trkpt>
      <trkpt lat="44.91719" lon="6.63297">
        <ele>1654.8</ele>
        <time>2022-08-07T17:48:26+0200</time>
      </trkpt>
      <trkpt lat="44.91726" lon="6.63297">
        <ele>1656.1</ele>
        <time>2022-08-07T17:48:29+0200</time>
      </trkpt>
      <trkpt lat="44.91732" lon="6.63297">
        <ele>1656.6</ele>
        <time>2022-08-07T17:48:32+0200</time>
      </trkpt>
      <trkpt lat="44.91736" lon="6.633">
        <ele>1658.4</ele>
        <time>2022-08-07T17:48:34+0200</time>
      </trkpt>
      <trkpt lat="44.91741" lon="6.633">
        <ele>1658.8</ele>
        <time>2022-08-07T17:48:38+0200</time>
      </trkpt>
      <trkpt lat="44.91746" lon="6.633">
        <ele>1659.2</ele>
        <time>2022-08-07T17:48:44+0200</time>
      </trkpt>
      <trkpt lat="44.91752" lon="6.63301">
        <ele>1660</ele>
        <time>2022-08-07T17:48:48+0200</time>
      </trkpt>
      <trkpt lat="44.91756" lon="6.63303">
        <ele>1660</ele>
        <time>2022-08-07T17:48:51+0200</time>
      </trkpt>
      <trkpt lat="44.91762" lon="6.63307">
        <ele>1661.6</ele>
        <time>2022-08-07T17:48:54+0200</time>
      </trkpt>
      <trkpt lat="44.91767" lon="6.63307">
        <ele>1661.1</ele>
        <time>2022-08-07T17:48:57+0200</time>
      </trkpt>
      <trkpt lat="44.91772" lon="6.63306">
        <ele>1659.2</ele>
        <time>2022-08-07T17:49:02+0200</time>
      </trkpt>
      <trkpt lat="44.91777" lon="6.63309">
        <ele>1660.3</ele>
        <time>2022-08-07T17:49:10+0200</time>
      </trkpt>
      <trkpt lat="44.91776" lon="6.63302">
        <ele>1656.3</ele>
        <time>2022-08-07T17:49:26+0200</time>
      </trkpt>
      <trkpt lat="44.9178" lon="6.63307">
        <ele>1658</ele>
        <time>2022-08-07T17:50:28+0200</time>
      </trkpt>
      <trkpt lat="44.91776" lon="6.63304">
        <ele>1657.2</ele>
        <time>2022-08-07T17:50:40+0200</time>
      </trkpt>
      <trkpt lat="44.91781" lon="6.63309">
        <ele>1659</ele>
        <time>2022-08-07T17:50:51+0200</time>
      </trkpt>
      <trkpt lat="44.91784" lon="6.63315">
        <ele>1661.3</ele>
        <time>2022-08-07T17:50:54+0200</time>
      </trkpt>
      <trkpt lat="44.91787" lon="6.63319">
        <ele>1662.8</ele>
        <time>2022-08-07T17:50:57+0200</time>
      </trkpt>
      <trkpt lat="44.91791" lon="6.63324">
        <ele>1664.5</ele>
        <time>2022-08-07T17:51:00+0200</time>
      </trkpt>
      <trkpt lat="44.91794" lon="6.63329">
        <ele>1666.6</ele>
        <time>2022-08-07T17:51:02+0200</time>
      </trkpt>
      <trkpt lat="44.91799" lon="6.63333">
        <ele>1667.7</ele>
        <time>2022-08-07T17:51:06+0200</time>
      </trkpt>
      <trkpt lat="44.91803" lon="6.6334">
        <ele>1669.7</ele>
        <time>2022-08-07T17:51:09+0200</time>
      </trkpt>
      <trkpt lat="44.91806" lon="6.63345">
        <ele>1671.8</ele>
        <time>2022-08-07T17:51:12+0200</time>
      </trkpt>
      <trkpt lat="44.91811" lon="6.63349">
        <ele>1671.5</ele>
        <time>2022-08-07T17:51:15+0200</time>
      </trkpt>
      <trkpt lat="44.91815" lon="6.63353">
        <ele>1671.9</ele>
        <time>2022-08-07T17:51:18+0200</time>
      </trkpt>
      <trkpt lat="44.91819" lon="6.63356">
        <ele>1671.8</ele>
        <time>2022-08-07T17:51:21+0200</time>
      </trkpt>
      <trkpt lat="44.91824" lon="6.63359">
        <ele>1671.3</ele>
        <time>2022-08-07T17:51:24+0200</time>
      </trkpt>
      <trkpt lat="44.91827" lon="6.63367">
        <ele>1674.3</ele>
        <time>2022-08-07T17:51:27+0200</time>
      </trkpt>
      <trkpt lat="44.91826" lon="6.63374">
        <ele>1678.7</ele>
        <time>2022-08-07T17:51:30+0200</time>
      </trkpt>
      <trkpt lat="44.91823" lon="6.6337">
        <ele>1677.9</ele>
        <time>2022-08-07T17:51:33+0200</time>
      </trkpt>
      <trkpt lat="44.9182" lon="6.63365">
        <ele>1676.2</ele>
        <time>2022-08-07T17:51:40+0200</time>
      </trkpt>
      <trkpt lat="44.91815" lon="6.63366">
        <ele>1678.9</ele>
        <time>2022-08-07T17:51:46+0200</time>
      </trkpt>
      <trkpt lat="44.91809" lon="6.63364">
        <ele>1681.3</ele>
        <time>2022-08-07T17:51:49+0200</time>
      </trkpt>
      <trkpt lat="44.91804" lon="6.63364">
        <ele>1683.4</ele>
        <time>2022-08-07T17:51:51+0200</time>
      </trkpt>
      <trkpt lat="44.918" lon="6.6336">
        <ele>1682.6</ele>
        <time>2022-08-07T17:51:53+0200</time>
      </trkpt>
      <trkpt lat="44.91796" lon="6.63356">
        <ele>1681.5</ele>
        <time>2022-08-07T17:51:55+0200</time>
      </trkpt>
      <trkpt lat="44.91794" lon="6.6335">
        <ele>1679.1</ele>
        <time>2022-08-07T17:51:58+0200</time>
      </trkpt>
      <trkpt lat="44.91789" lon="6.63344">
        <ele>1677.7</ele>
        <time>2022-08-07T17:52:02+0200</time>
      </trkpt>
      <trkpt lat="44.91783" lon="6.63343">
        <ele>1679.7</ele>
        <time>2022-08-07T17:52:05+0200</time>
      </trkpt>
      <trkpt lat="44.91775" lon="6.63343">
        <ele>1682.2</ele>
        <time>2022-08-07T17:52:07+0200</time>
      </trkpt>
      <trkpt lat="44.91769" lon="6.63341">
        <ele>1682.2</ele>
        <time>2022-08-07T17:52:09+0200</time>
      </trkpt>
      <trkpt lat="44.91764" lon="6.63341">
        <ele>1682.9</ele>
        <time>2022-08-07T17:52:12+0200</time>
      </trkpt>
      <trkpt lat="44.91759" lon="6.6334">
        <ele>1683.5</ele>
        <time>2022-08-07T17:52:15+0200</time>
      </trkpt>
      <trkpt lat="44.91754" lon="6.63336">
        <ele>1681.7</ele>
        <time>2022-08-07T17:52:20+0200</time>
      </trkpt>
      <trkpt lat="44.91748" lon="6.63333">
        <ele>1680.6</ele>
        <time>2022-08-07T17:52:23+0200</time>
      </trkpt>
      <trkpt lat="44.91741" lon="6.63335">
        <ele>1681.4</ele>
        <time>2022-08-07T17:52:25+0200</time>
      </trkpt>
      <trkpt lat="44.91735" lon="6.63338">
        <ele>1682.8</ele>
        <time>2022-08-07T17:52:28+0200</time>
      </trkpt>
      <trkpt lat="44.91731" lon="6.6334">
        <ele>1684</ele>
        <time>2022-08-07T17:52:30+0200</time>
      </trkpt>
      <trkpt lat="44.91726" lon="6.63345">
        <ele>1686.8</ele>
        <time>2022-08-07T17:52:33+0200</time>
      </trkpt>
      <trkpt lat="44.91722" lon="6.63347">
        <ele>1687.7</ele>
        <time>2022-08-07T17:52:38+0200</time>
      </trkpt>
      <trkpt lat="44.91717" lon="6.6335">
        <ele>1687.3</ele>
        <time>2022-08-07T17:52:42+0200</time>
      </trkpt>
      <trkpt lat="44.91712" lon="6.63349">
        <ele>1685.1</ele>
        <time>2022-08-07T17:52:46+0200</time>
      </trkpt>
      <trkpt lat="44.91706" lon="6.6335">
        <ele>1683.2</ele>
        <time>2022-08-07T17:52:50+0200</time>
      </trkpt>
      <trkpt lat="44.91702" lon="6.63356">
        <ele>1685.4</ele>
        <time>2022-08-07T17:52:53+0200</time>
      </trkpt>
      <trkpt lat="44.91702" lon="6.63365">
        <ele>1690.2</ele>
        <time>2022-08-07T17:52:56+0200</time>
      </trkpt>
      <trkpt lat="44.91699" lon="6.6337">
        <ele>1692.5</ele>
        <time>2022-08-07T17:52:59+0200</time>
      </trkpt>
      <trkpt lat="44.91696" lon="6.63376">
        <ele>1694.5</ele>
        <time>2022-08-07T17:53:04+0200</time>
      </trkpt>
      <trkpt lat="44.91692" lon="6.63382">
        <ele>1696.5</ele>
        <time>2022-08-07T17:53:09+0200</time>
      </trkpt>
      <trkpt lat="44.9169" lon="6.6339">
        <ele>1699.8</ele>
        <time>2022-08-07T17:53:13+0200</time>
      </trkpt>
      <trkpt lat="44.91688" lon="6.63397">
        <ele>1702</ele>
        <time>2022-08-07T17:53:16+0200</time>
      </trkpt>
      <trkpt lat="44.91684" lon="6.63402">
        <ele>1702.8</ele>
        <time>2022-08-07T17:53:20+0200</time>
      </trkpt>
      <trkpt lat="44.91682" lon="6.63408">
        <ele>1705</ele>
        <time>2022-08-07T17:53:23+0200</time>
      </trkpt>
      <trkpt lat="44.91678" lon="6.63414">
        <ele>1705.8</ele>
        <time>2022-08-07T17:53:26+0200</time>
      </trkpt>
      <trkpt lat="44.91675" lon="6.63421">
        <ele>1708.3</ele>
        <time>2022-08-07T17:53:29+0200</time>
      </trkpt>
      <trkpt lat="44.91672" lon="6.63425">
        <ele>1708.6</ele>
        <time>2022-08-07T17:53:31+0200</time>
      </trkpt>
      <trkpt lat="44.91668" lon="6.63431">
        <ele>1709.5</ele>
        <time>2022-08-07T17:53:34+0200</time>
      </trkpt>
      <trkpt lat="44.91665" lon="6.63436">
        <ele>1709.9</ele>
        <time>2022-08-07T17:53:37+0200</time>
      </trkpt>
      <trkpt lat="44.9166" lon="6.63441">
        <ele>1710.2</ele>
        <time>2022-08-07T17:53:40+0200</time>
      </trkpt>
      <trkpt lat="44.91656" lon="6.63446">
        <ele>1710.7</ele>
        <time>2022-08-07T17:53:43+0200</time>
      </trkpt>
      <trkpt lat="44.91653" lon="6.63453">
        <ele>1713.1</ele>
        <time>2022-08-07T17:53:46+0200</time>
      </trkpt>
      <trkpt lat="44.9165" lon="6.6346">
        <ele>1715.4</ele>
        <time>2022-08-07T17:53:49+0200</time>
      </trkpt>
      <trkpt lat="44.91646" lon="6.63463">
        <ele>1715</ele>
        <time>2022-08-07T17:53:52+0200</time>
      </trkpt>
      <trkpt lat="44.91641" lon="6.63465">
        <ele>1712.9</ele>
        <time>2022-08-07T17:53:55+0200</time>
      </trkpt>
      <trkpt lat="44.91638" lon="6.63471">
        <ele>1714.4</ele>
        <time>2022-08-07T17:53:58+0200</time>
      </trkpt>
      <trkpt lat="44.91633" lon="6.63475">
        <ele>1715.1</ele>
        <time>2022-08-07T17:54:01+0200</time>
      </trkpt>
      <trkpt lat="44.91629" lon="6.63481">
        <ele>1716.3</ele>
        <time>2022-08-07T17:54:04+0200</time>
      </trkpt>
      <trkpt lat="44.91623" lon="6.63486">
        <ele>1717</ele>
        <time>2022-08-07T17:54:07+0200</time>
      </trkpt>
      <trkpt lat="44.91619" lon="6.63489">
        <ele>1717.4</ele>
        <time>2022-08-07T17:54:10+0200</time>
      </trkpt>
      <trkpt lat="44.91615" lon="6.63493">
        <ele>1717.4</ele>
        <time>2022-08-07T17:54:12+0200</time>
      </trkpt>
      <trkpt lat="44.91611" lon="6.63495">
        <ele>1717.1</ele>
        <time>2022-08-07T17:54:15+0200</time>
      </trkpt>
      <trkpt lat="44.91606" lon="6.63499">
        <ele>1716.9</ele>
        <time>2022-08-07T17:54:18+0200</time>
      </trkpt>
      <trkpt lat="44.916" lon="6.63501">
        <ele>1715.5</ele>
        <time>2022-08-07T17:54:21+0200</time>
      </trkpt>
      <trkpt lat="44.91595" lon="6.63504">
        <ele>1715</ele>
        <time>2022-08-07T17:54:24+0200</time>
      </trkpt>
      <trkpt lat="44.91591" lon="6.63508">
        <ele>1715.2</ele>
        <time>2022-08-07T17:54:27+0200</time>
      </trkpt>
      <trkpt lat="44.91592" lon="6.63515">
        <ele>1719.3</ele>
        <time>2022-08-07T17:54:30+0200</time>
      </trkpt>
      <trkpt lat="44.91596" lon="6.6352">
        <ele>1723.4</ele>
        <time>2022-08-07T17:54:36+0200</time>
      </trkpt>
      <trkpt lat="44.916" lon="6.63517">
        <ele>1723.6</ele>
        <time>2022-08-07T17:54:41+0200</time>
      </trkpt>
      <trkpt lat="44.91603" lon="6.63511">
        <ele>1722.3</ele>
        <time>2022-08-07T17:54:44+0200</time>
      </trkpt>
      <trkpt lat="44.91609" lon="6.63508">
        <ele>1723.2</ele>
        <time>2022-08-07T17:54:47+0200</time>
      </trkpt>
      <trkpt lat="44.91614" lon="6.63504">
        <ele>1722.8</ele>
        <time>2022-08-07T17:54:51+0200</time>
      </trkpt>
      <trkpt lat="44.91619" lon="6.63502">
        <ele>1724.1</ele>
        <time>2022-08-07T17:54:54+0200</time>
      </trkpt>
      <trkpt lat="44.91624" lon="6.63501">
        <ele>1725.7</ele>
        <time>2022-08-07T17:54:56+0200</time>
      </trkpt>
      <trkpt lat="44.91628" lon="6.63496">
        <ele>1725.3</ele>
        <time>2022-08-07T17:54:59+0200</time>
      </trkpt>
      <trkpt lat="44.91633" lon="6.63495">
        <ele>1726.5</ele>
        <time>2022-08-07T17:55:02+0200</time>
      </trkpt>
      <trkpt lat="44.91638" lon="6.63492">
        <ele>1726.9</ele>
        <time>2022-08-07T17:55:04+0200</time>
      </trkpt>
      <trkpt lat="44.91643" lon="6.63489">
        <ele>1728</ele>
        <time>2022-08-07T17:55:07+0200</time>
      </trkpt>
      <trkpt lat="44.91648" lon="6.63484">
        <ele>1728.1</ele>
        <time>2022-08-07T17:55:10+0200</time>
      </trkpt>
      <trkpt lat="44.91651" lon="6.63479">
        <ele>1727.2</ele>
        <time>2022-08-07T17:55:13+0200</time>
      </trkpt>
      <trkpt lat="44.91658" lon="6.63476">
        <ele>1728.5</ele>
        <time>2022-08-07T17:55:16+0200</time>
      </trkpt>
      <trkpt lat="44.91663" lon="6.63474">
        <ele>1730.9</ele>
        <time>2022-08-07T17:55:19+0200</time>
      </trkpt>
      <trkpt lat="44.91669" lon="6.6347">
        <ele>1731.6</ele>
        <time>2022-08-07T17:55:23+0200</time>
      </trkpt>
      <trkpt lat="44.91673" lon="6.63465">
        <ele>1730.9</ele>
        <time>2022-08-07T17:55:26+0200</time>
      </trkpt>
      <trkpt lat="44.91677" lon="6.63461">
        <ele>1731</ele>
        <time>2022-08-07T17:55:29+0200</time>
      </trkpt>
      <trkpt lat="44.91682" lon="6.63458">
        <ele>1732</ele>
        <time>2022-08-07T17:55:31+0200</time>
      </trkpt>
      <trkpt lat="44.91687" lon="6.63453">
        <ele>1731.8</ele>
        <time>2022-08-07T17:55:33+0200</time>
      </trkpt>
      <trkpt lat="44.91692" lon="6.63449">
        <ele>1733.1</ele>
        <time>2022-08-07T17:55:36+0200</time>
      </trkpt>
      <trkpt lat="44.91696" lon="6.63445">
        <ele>1732.7</ele>
        <time>2022-08-07T17:55:39+0200</time>
      </trkpt>
      <trkpt lat="44.917" lon="6.6344">
        <ele>1731.6</ele>
        <time>2022-08-07T17:55:42+0200</time>
      </trkpt>
      <trkpt lat="44.91705" lon="6.63438">
        <ele>1731.8</ele>
        <time>2022-08-07T17:55:44+0200</time>
      </trkpt>
      <trkpt lat="44.9171" lon="6.63431">
        <ele>1730.3</ele>
        <time>2022-08-07T17:55:47+0200</time>
      </trkpt>
      <trkpt lat="44.91714" lon="6.63426">
        <ele>1729.2</ele>
        <time>2022-08-07T17:55:50+0200</time>
      </trkpt>
      <trkpt lat="44.91719" lon="6.63424">
        <ele>1729.2</ele>
        <time>2022-08-07T17:55:53+0200</time>
      </trkpt>
      <trkpt lat="44.91723" lon="6.63417">
        <ele>1727.4</ele>
        <time>2022-08-07T17:55:56+0200</time>
      </trkpt>
      <trkpt lat="44.91729" lon="6.63415">
        <ele>1726.8</ele>
        <time>2022-08-07T17:55:59+0200</time>
      </trkpt>
      <trkpt lat="44.91736" lon="6.63417">
        <ele>1728</ele>
        <time>2022-08-07T17:56:03+0200</time>
      </trkpt>
      <trkpt lat="44.9173" lon="6.63418">
        <ele>1728.1</ele>
        <time>2022-08-07T17:56:11+0200</time>
      </trkpt>
      <trkpt lat="44.91724" lon="6.63417">
        <ele>1727.5</ele>
        <time>2022-08-07T17:56:13+0200</time>
      </trkpt>
      <trkpt lat="44.91719" lon="6.63423">
        <ele>1729.1</ele>
        <time>2022-08-07T17:56:17+0200</time>
      </trkpt>
      <trkpt lat="44.91714" lon="6.63425">
        <ele>1728.6</ele>
        <time>2022-08-07T17:56:20+0200</time>
      </trkpt>
      <trkpt lat="44.9171" lon="6.63431">
        <ele>1730</ele>
        <time>2022-08-07T17:56:25+0200</time>
      </trkpt>
      <trkpt lat="44.91707" lon="6.63436">
        <ele>1731.5</ele>
        <time>2022-08-07T17:56:26+0200</time>
      </trkpt>
      <trkpt lat="44.91703" lon="6.63444">
        <ele>1734.5</ele>
        <time>2022-08-07T17:56:28+0200</time>
      </trkpt>
      <trkpt lat="44.91699" lon="6.63449">
        <ele>1735.7</ele>
        <time>2022-08-07T17:56:31+0200</time>
      </trkpt>
      <trkpt lat="44.91694" lon="6.63454">
        <ele>1736.7</ele>
        <time>2022-08-07T17:56:34+0200</time>
      </trkpt>
      <trkpt lat="44.91691" lon="6.63463">
        <ele>1739.4</ele>
        <time>2022-08-07T17:56:37+0200</time>
      </trkpt>
      <trkpt lat="44.91687" lon="6.63469">
        <ele>1740.5</ele>
        <time>2022-08-07T17:56:41+0200</time>
      </trkpt>
      <trkpt lat="44.91683" lon="6.63476">
        <ele>1742.1</ele>
        <time>2022-08-07T17:56:44+0200</time>
      </trkpt>
      <trkpt lat="44.91682" lon="6.63482">
        <ele>1744.6</ele>
        <time>2022-08-07T17:56:46+0200</time>
      </trkpt>
      <trkpt lat="44.91677" lon="6.63487">
        <ele>1744.9</ele>
        <time>2022-08-07T17:56:49+0200</time>
      </trkpt>
      <trkpt lat="44.91672" lon="6.63492">
        <ele>1745</ele>
        <time>2022-08-07T17:56:52+0200</time>
      </trkpt>
      <trkpt lat="44.91667" lon="6.63498">
        <ele>1745.8</ele>
        <time>2022-08-07T17:56:55+0200</time>
      </trkpt>
      <trkpt lat="44.91663" lon="6.63503">
        <ele>1746.9</ele>
        <time>2022-08-07T17:56:57+0200</time>
      </trkpt>
      <trkpt lat="44.91658" lon="6.63509">
        <ele>1747.2</ele>
        <time>2022-08-07T17:57:00+0200</time>
      </trkpt>
      <trkpt lat="44.91654" lon="6.63513">
        <ele>1747.1</ele>
        <time>2022-08-07T17:57:02+0200</time>
      </trkpt>
      <trkpt lat="44.91651" lon="6.63519">
        <ele>1748.2</ele>
        <time>2022-08-07T17:57:04+0200</time>
      </trkpt>
      <trkpt lat="44.91648" lon="6.63523">
        <ele>1748.6</ele>
        <time>2022-08-07T17:57:06+0200</time>
      </trkpt>
      <trkpt lat="44.91644" lon="6.6353">
        <ele>1749.5</ele>
        <time>2022-08-07T17:57:09+0200</time>
      </trkpt>
      <trkpt lat="44.91641" lon="6.63535">
        <ele>1750.3</ele>
        <time>2022-08-07T17:57:11+0200</time>
      </trkpt>
      <trkpt lat="44.91635" lon="6.63539">
        <ele>1749.4</ele>
        <time>2022-08-07T17:57:14+0200</time>
      </trkpt>
      <trkpt lat="44.9163" lon="6.63547">
        <ele>1751</ele>
        <time>2022-08-07T17:57:17+0200</time>
      </trkpt>
      <trkpt lat="44.91628" lon="6.63553">
        <ele>1752.4</ele>
        <time>2022-08-07T17:57:19+0200</time>
      </trkpt>
      <trkpt lat="44.91625" lon="6.63559">
        <ele>1753.8</ele>
        <time>2022-08-07T17:57:21+0200</time>
      </trkpt>
      <trkpt lat="44.91623" lon="6.63567">
        <ele>1755.8</ele>
        <time>2022-08-07T17:57:24+0200</time>
      </trkpt>
      <trkpt lat="44.91619" lon="6.63572">
        <ele>1756.4</ele>
        <time>2022-08-07T17:57:26+0200</time>
      </trkpt>
      <trkpt lat="44.91616" lon="6.63577">
        <ele>1756.8</ele>
        <time>2022-08-07T17:57:28+0200</time>
      </trkpt>
      <trkpt lat="44.91612" lon="6.63581">
        <ele>1756.4</ele>
        <time>2022-08-07T17:57:31+0200</time>
      </trkpt>
      <trkpt lat="44.91607" lon="6.63585">
        <ele>1755.5</ele>
        <time>2022-08-07T17:57:34+0200</time>
      </trkpt>
      <trkpt lat="44.91602" lon="6.63588">
        <ele>1754.5</ele>
        <time>2022-08-07T17:57:37+0200</time>
      </trkpt>
      <trkpt lat="44.91596" lon="6.63592">
        <ele>1754.1</ele>
        <time>2022-08-07T17:57:40+0200</time>
      </trkpt>
      <trkpt lat="44.91591" lon="6.63595">
        <ele>1753.5</ele>
        <time>2022-08-07T17:57:42+0200</time>
      </trkpt>
      <trkpt lat="44.91588" lon="6.636">
        <ele>1754.2</ele>
        <time>2022-08-07T17:57:44+0200</time>
      </trkpt>
      <trkpt lat="44.91584" lon="6.63604">
        <ele>1754.7</ele>
        <time>2022-08-07T17:57:46+0200</time>
      </trkpt>
      <trkpt lat="44.91579" lon="6.6361">
        <ele>1756</ele>
        <time>2022-08-07T17:57:49+0200</time>
      </trkpt>
      <trkpt lat="44.91575" lon="6.63613">
        <ele>1756.6</ele>
        <time>2022-08-07T17:57:51+0200</time>
      </trkpt>
      <trkpt lat="44.91572" lon="6.63619">
        <ele>1759.2</ele>
        <time>2022-08-07T17:57:53+0200</time>
      </trkpt>
      <trkpt lat="44.91566" lon="6.63623">
        <ele>1760.2</ele>
        <time>2022-08-07T17:57:57+0200</time>
      </trkpt>
      <trkpt lat="44.91561" lon="6.63626">
        <ele>1761.3</ele>
        <time>2022-08-07T17:58:00+0200</time>
      </trkpt>
      <trkpt lat="44.91556" lon="6.63629">
        <ele>1762.3</ele>
        <time>2022-08-07T17:58:03+0200</time>
      </trkpt>
      <trkpt lat="44.9155" lon="6.6363">
        <ele>1762.4</ele>
        <time>2022-08-07T17:58:06+0200</time>
      </trkpt>
      <trkpt lat="44.91544" lon="6.63628">
        <ele>1760.7</ele>
        <time>2022-08-07T17:58:09+0200</time>
      </trkpt>
      <trkpt lat="44.9154" lon="6.63627">
        <ele>1759.2</ele>
        <time>2022-08-07T17:58:11+0200</time>
      </trkpt>
      <trkpt lat="44.91534" lon="6.63629">
        <ele>1760.2</ele>
        <time>2022-08-07T17:58:13+0200</time>
      </trkpt>
      <trkpt lat="44.91528" lon="6.63631">
        <ele>1761.6</ele>
        <time>2022-08-07T17:58:15+0200</time>
      </trkpt>
      <trkpt lat="44.91528" lon="6.63639">
        <ele>1767.8</ele>
        <time>2022-08-07T17:58:26+0200</time>
      </trkpt>
      <trkpt lat="44.91533" lon="6.6364">
        <ele>1769</ele>
        <time>2022-08-07T17:58:30+0200</time>
      </trkpt>
      <trkpt lat="44.91538" lon="6.63639">
        <ele>1768.7</ele>
        <time>2022-08-07T17:58:33+0200</time>
      </trkpt>
      <trkpt lat="44.91542" lon="6.63642">
        <ele>1771.2</ele>
        <time>2022-08-07T17:58:38+0200</time>
      </trkpt>
      <trkpt lat="44.91547" lon="6.6364">
        <ele>1769.5</ele>
        <time>2022-08-07T17:58:42+0200</time>
      </trkpt>
      <trkpt lat="44.91554" lon="6.63641">
        <ele>1770.3</ele>
        <time>2022-08-07T17:58:45+0200</time>
      </trkpt>
      <trkpt lat="44.9156" lon="6.6364">
        <ele>1770.6</ele>
        <time>2022-08-07T17:58:48+0200</time>
      </trkpt>
      <trkpt lat="44.91565" lon="6.63636">
        <ele>1769.2</ele>
        <time>2022-08-07T17:58:51+0200</time>
      </trkpt>
      <trkpt lat="44.9157" lon="6.63632">
        <ele>1767.6</ele>
        <time>2022-08-07T17:58:53+0200</time>
      </trkpt>
      <trkpt lat="44.91574" lon="6.63634">
        <ele>1770.2</ele>
        <time>2022-08-07T17:58:55+0200</time>
      </trkpt>
      <trkpt lat="44.91581" lon="6.63632">
        <ele>1770.6</ele>
        <time>2022-08-07T17:58:58+0200</time>
      </trkpt>
      <trkpt lat="44.91587" lon="6.63629">
        <ele>1770.7</ele>
        <time>2022-08-07T17:59:01+0200</time>
      </trkpt>
      <trkpt lat="44.91593" lon="6.63626">
        <ele>1771.2</ele>
        <time>2022-08-07T17:59:04+0200</time>
      </trkpt>
      <trkpt lat="44.91598" lon="6.63625">
        <ele>1772.4</ele>
        <time>2022-08-07T17:59:06+0200</time>
      </trkpt>
      <trkpt lat="44.91604" lon="6.63624">
        <ele>1774.3</ele>
        <time>2022-08-07T17:59:09+0200</time>
      </trkpt>
      <trkpt lat="44.91609" lon="6.63622">
        <ele>1775</ele>
        <time>2022-08-07T17:59:11+0200</time>
      </trkpt>
      <trkpt lat="44.91614" lon="6.63622">
        <ele>1776.6</ele>
        <time>2022-08-07T17:59:14+0200</time>
      </trkpt>
      <trkpt lat="44.91618" lon="6.63623">
        <ele>1778.9</ele>
        <time>2022-08-07T17:59:17+0200</time>
      </trkpt>
      <trkpt lat="44.91622" lon="6.6362">
        <ele>1779</ele>
        <time>2022-08-07T17:59:20+0200</time>
      </trkpt>
      <trkpt lat="44.91627" lon="6.63616">
        <ele>1779.2</ele>
        <time>2022-08-07T17:59:23+0200</time>
      </trkpt>
      <trkpt lat="44.91632" lon="6.63613">
        <ele>1779.8</ele>
        <time>2022-08-07T17:59:26+0200</time>
      </trkpt>
      <trkpt lat="44.91636" lon="6.63612">
        <ele>1781.2</ele>
        <time>2022-08-07T17:59:28+0200</time>
      </trkpt>
      <trkpt lat="44.9164" lon="6.63605">
        <ele>1780.2</ele>
        <time>2022-08-07T17:59:31+0200</time>
      </trkpt>
      <trkpt lat="44.91647" lon="6.63602">
        <ele>1781.8</ele>
        <time>2022-08-07T17:59:34+0200</time>
      </trkpt>
      <trkpt lat="44.91652" lon="6.63598">
        <ele>1782.6</ele>
        <time>2022-08-07T17:59:37+0200</time>
      </trkpt>
      <trkpt lat="44.91658" lon="6.63594">
        <ele>1783.8</ele>
        <time>2022-08-07T17:59:40+0200</time>
      </trkpt>
      <trkpt lat="44.91664" lon="6.63591">
        <ele>1785.2</ele>
        <time>2022-08-07T17:59:42+0200</time>
      </trkpt>
      <trkpt lat="44.91668" lon="6.63585">
        <ele>1785.1</ele>
        <time>2022-08-07T17:59:43+0200</time>
      </trkpt>
      <trkpt lat="44.91672" lon="6.63582">
        <ele>1785.7</ele>
        <time>2022-08-07T17:59:44+0200</time>
      </trkpt>
      <trkpt lat="44.91676" lon="6.63573">
        <ele>1784.1</ele>
        <time>2022-08-07T17:59:46+0200</time>
      </trkpt>
      <trkpt lat="44.91678" lon="6.63566">
        <ele>1782.4</ele>
        <time>2022-08-07T17:59:48+0200</time>
      </trkpt>
      <trkpt lat="44.91681" lon="6.63561">
        <ele>1782.2</ele>
        <time>2022-08-07T17:59:51+0200</time>
      </trkpt>
      <trkpt lat="44.91684" lon="6.63555">
        <ele>1781.6</ele>
        <time>2022-08-07T17:59:55+0200</time>
      </trkpt>
      <trkpt lat="44.91688" lon="6.63551">
        <ele>1781.6</ele>
        <time>2022-08-07T17:59:59+0200</time>
      </trkpt>
      <trkpt lat="44.91692" lon="6.63547">
        <ele>1781.8</ele>
        <time>2022-08-07T18:00:02+0200</time>
      </trkpt>
      <trkpt lat="44.91695" lon="6.6354">
        <ele>1780.1</ele>
        <time>2022-08-07T18:00:05+0200</time>
      </trkpt>
      <trkpt lat="44.91701" lon="6.63535">
        <ele>1779.2</ele>
        <time>2022-08-07T18:00:08+0200</time>
      </trkpt>
      <trkpt lat="44.91704" lon="6.63528">
        <ele>1777.2</ele>
        <time>2022-08-07T18:00:11+0200</time>
      </trkpt>
      <trkpt lat="44.91709" lon="6.63523">
        <ele>1776.2</ele>
        <time>2022-08-07T18:00:14+0200</time>
      </trkpt>
      <trkpt lat="44.91714" lon="6.63517">
        <ele>1774.8</ele>
        <time>2022-08-07T18:00:17+0200</time>
      </trkpt>
      <trkpt lat="44.91719" lon="6.63513">
        <ele>1774.4</ele>
        <time>2022-08-07T18:00:20+0200</time>
      </trkpt>
      <trkpt lat="44.91725" lon="6.63511">
        <ele>1775</ele>
        <time>2022-08-07T18:00:23+0200</time>
      </trkpt>
      <trkpt lat="44.9173" lon="6.63516">
        <ele>1777.9</ele>
        <time>2022-08-07T18:00:26+0200</time>
      </trkpt>
      <trkpt lat="44.91736" lon="6.6352">
        <ele>1780.8</ele>
        <time>2022-08-07T18:00:29+0200</time>
      </trkpt>
      <trkpt lat="44.9174" lon="6.63525">
        <ele>1784.1</ele>
        <time>2022-08-07T18:00:33+0200</time>
      </trkpt>
      <trkpt lat="44.91742" lon="6.63531">
        <ele>1787.1</ele>
        <time>2022-08-07T18:00:37+0200</time>
      </trkpt>
      <trkpt lat="44.91743" lon="6.63539">
        <ele>1790.5</ele>
        <time>2022-08-07T18:00:42+0200</time>
      </trkpt>
      <trkpt lat="44.91742" lon="6.63547">
        <ele>1793.6</ele>
        <time>2022-08-07T18:00:45+0200</time>
      </trkpt>
      <trkpt lat="44.91739" lon="6.63554">
        <ele>1796.1</ele>
        <time>2022-08-07T18:00:49+0200</time>
      </trkpt>
      <trkpt lat="44.91737" lon="6.6356">
        <ele>1797.9</ele>
        <time>2022-08-07T18:00:52+0200</time>
      </trkpt>
      <trkpt lat="44.91735" lon="6.63566">
        <ele>1799.1</ele>
        <time>2022-08-07T18:00:55+0200</time>
      </trkpt>
      <trkpt lat="44.91738" lon="6.63571">
        <ele>1801</ele>
        <time>2022-08-07T18:01:02+0200</time>
      </trkpt>
      <trkpt lat="44.91742" lon="6.63566">
        <ele>1799.9</ele>
        <time>2022-08-07T18:01:14+0200</time>
      </trkpt>
      <trkpt lat="44.91746" lon="6.63567">
        <ele>1800.8</ele>
        <time>2022-08-07T18:01:47+0200</time>
      </trkpt>
      <trkpt lat="44.91741" lon="6.63572">
        <ele>1801.5</ele>
        <time>2022-08-07T18:02:29+0200</time>
      </trkpt>
      <trkpt lat="44.91737" lon="6.63576">
        <ele>1802</ele>
        <time>2022-08-07T18:02:48+0200</time>
      </trkpt>
      <trkpt lat="44.91734" lon="6.63583">
        <ele>1803.6</ele>
        <time>2022-08-07T18:02:58+0200</time>
      </trkpt>
      <trkpt lat="44.91731" lon="6.6359">
        <ele>1804.1</ele>
        <time>2022-08-07T18:03:01+0200</time>
      </trkpt>
      <trkpt lat="44.91727" lon="6.63596">
        <ele>1804.2</ele>
        <time>2022-08-07T18:03:04+0200</time>
      </trkpt>
      <trkpt lat="44.91726" lon="6.63603">
        <ele>1804.8</ele>
        <time>2022-08-07T18:03:06+0200</time>
      </trkpt>
      <trkpt lat="44.91722" lon="6.6361">
        <ele>1804.9</ele>
        <time>2022-08-07T18:03:09+0200</time>
      </trkpt>
      <trkpt lat="44.9172" lon="6.63616">
        <ele>1805.1</ele>
        <time>2022-08-07T18:03:12+0200</time>
      </trkpt>
      <trkpt lat="44.91717" lon="6.63624">
        <ele>1805.6</ele>
        <time>2022-08-07T18:03:15+0200</time>
      </trkpt>
      <trkpt lat="44.91714" lon="6.63631">
        <ele>1806</ele>
        <time>2022-08-07T18:03:18+0200</time>
      </trkpt>
      <trkpt lat="44.91711" lon="6.63638">
        <ele>1806.6</ele>
        <time>2022-08-07T18:03:21+0200</time>
      </trkpt>
      <trkpt lat="44.91706" lon="6.63644">
        <ele>1807.6</ele>
        <time>2022-08-07T18:03:24+0200</time>
      </trkpt>
      <trkpt lat="44.91701" lon="6.63649">
        <ele>1808.4</ele>
        <time>2022-08-07T18:03:27+0200</time>
      </trkpt>
      <trkpt lat="44.91697" lon="6.63652">
        <ele>1809</ele>
        <time>2022-08-07T18:03:30+0200</time>
      </trkpt>
      <trkpt lat="44.91692" lon="6.63657">
        <ele>1810</ele>
        <time>2022-08-07T18:03:33+0200</time>
      </trkpt>
      <trkpt lat="44.91687" lon="6.6366">
        <ele>1810.5</ele>
        <time>2022-08-07T18:03:36+0200</time>
      </trkpt>
      <trkpt lat="44.91683" lon="6.63663">
        <ele>1810.8</ele>
        <time>2022-08-07T18:03:39+0200</time>
      </trkpt>
      <trkpt lat="44.91677" lon="6.63665">
        <ele>1811.1</ele>
        <time>2022-08-07T18:03:42+0200</time>
      </trkpt>
      <trkpt lat="44.91671" lon="6.63665">
        <ele>1810.9</ele>
        <time>2022-08-07T18:03:45+0200</time>
      </trkpt>
      <trkpt lat="44.91667" lon="6.63666">
        <ele>1810.7</ele>
        <time>2022-08-07T18:03:48+0200</time>
      </trkpt>
      <trkpt lat="44.91661" lon="6.63667">
        <ele>1810.2</ele>
        <time>2022-08-07T18:03:51+0200</time>
      </trkpt>
      <trkpt lat="44.91655" lon="6.63667">
        <ele>1809.2</ele>
        <time>2022-08-07T18:03:54+0200</time>
      </trkpt>
      <trkpt lat="44.91649" lon="6.63668">
        <ele>1808.9</ele>
        <time>2022-08-07T18:03:57+0200</time>
      </trkpt>
      <trkpt lat="44.91645" lon="6.63675">
        <ele>1811.7</ele>
        <time>2022-08-07T18:04:00+0200</time>
      </trkpt>
      <trkpt lat="44.91646" lon="6.63683">
        <ele>1815.3</ele>
        <time>2022-08-07T18:04:03+0200</time>
      </trkpt>
      <trkpt lat="44.91651" lon="6.63684">
        <ele>1816.2</ele>
        <time>2022-08-07T18:04:06+0200</time>
      </trkpt>
      <trkpt lat="44.91656" lon="6.63686">
        <ele>1817.5</ele>
        <time>2022-08-07T18:04:09+0200</time>
      </trkpt>
      <trkpt lat="44.91662" lon="6.63688">
        <ele>1818.8</ele>
        <time>2022-08-07T18:04:12+0200</time>
      </trkpt>
      <trkpt lat="44.91667" lon="6.63689">
        <ele>1819.7</ele>
        <time>2022-08-07T18:04:15+0200</time>
      </trkpt>
      <trkpt lat="44.91673" lon="6.63691">
        <ele>1821</ele>
        <time>2022-08-07T18:04:18+0200</time>
      </trkpt>
      <trkpt lat="44.91679" lon="6.63693">
        <ele>1821.8</ele>
        <time>2022-08-07T18:04:21+0200</time>
      </trkpt>
      <trkpt lat="44.91685" lon="6.63693">
        <ele>1822.3</ele>
        <time>2022-08-07T18:04:24+0200</time>
      </trkpt>
      <trkpt lat="44.9169" lon="6.63694">
        <ele>1822.6</ele>
        <time>2022-08-07T18:04:27+0200</time>
      </trkpt>
      <trkpt lat="44.91695" lon="6.63695">
        <ele>1823</ele>
        <time>2022-08-07T18:04:30+0200</time>
      </trkpt>
      <trkpt lat="44.917" lon="6.63694">
        <ele>1822.8</ele>
        <time>2022-08-07T18:04:33+0200</time>
      </trkpt>
      <trkpt lat="44.91705" lon="6.63695">
        <ele>1822.9</ele>
        <time>2022-08-07T18:04:36+0200</time>
      </trkpt>
      <trkpt lat="44.91711" lon="6.63696">
        <ele>1822.9</ele>
        <time>2022-08-07T18:04:39+0200</time>
      </trkpt>
      <trkpt lat="44.91717" lon="6.63699">
        <ele>1823.8</ele>
        <time>2022-08-07T18:04:42+0200</time>
      </trkpt>
      <trkpt lat="44.91722" lon="6.637">
        <ele>1823.9</ele>
        <time>2022-08-07T18:04:45+0200</time>
      </trkpt>
      <trkpt lat="44.91726" lon="6.63702">
        <ele>1824.7</ele>
        <time>2022-08-07T18:04:47+0200</time>
      </trkpt>
      <trkpt lat="44.91731" lon="6.63707">
        <ele>1826.5</ele>
        <time>2022-08-07T18:04:51+0200</time>
      </trkpt>
      <trkpt lat="44.91735" lon="6.63712">
        <ele>1828.1</ele>
        <time>2022-08-07T18:04:54+0200</time>
      </trkpt>
      <trkpt lat="44.91739" lon="6.63718">
        <ele>1830</ele>
        <time>2022-08-07T18:04:57+0200</time>
      </trkpt>
      <trkpt lat="44.91744" lon="6.63724">
        <ele>1831.7</ele>
        <time>2022-08-07T18:05:01+0200</time>
      </trkpt>
      <trkpt lat="44.91748" lon="6.63729">
        <ele>1832.8</ele>
        <time>2022-08-07T18:05:04+0200</time>
      </trkpt>
      <trkpt lat="44.91754" lon="6.63731">
        <ele>1833.3</ele>
        <time>2022-08-07T18:05:07+0200</time>
      </trkpt>
      <trkpt lat="44.91758" lon="6.63733">
        <ele>1833.8</ele>
        <time>2022-08-07T18:05:10+0200</time>
      </trkpt>
      <trkpt lat="44.91764" lon="6.63734">
        <ele>1834</ele>
        <time>2022-08-07T18:05:13+0200</time>
      </trkpt>
      <trkpt lat="44.91769" lon="6.63734">
        <ele>1834.1</ele>
        <time>2022-08-07T18:05:15+0200</time>
      </trkpt>
      <trkpt lat="44.91774" lon="6.63737">
        <ele>1834.6</ele>
        <time>2022-08-07T18:05:18+0200</time>
      </trkpt>
      <trkpt lat="44.91779" lon="6.63739">
        <ele>1835.1</ele>
        <time>2022-08-07T18:05:21+0200</time>
      </trkpt>
      <trkpt lat="44.91784" lon="6.63741">
        <ele>1835.4</ele>
        <time>2022-08-07T18:05:24+0200</time>
      </trkpt>
      <trkpt lat="44.91789" lon="6.63744">
        <ele>1836</ele>
        <time>2022-08-07T18:05:27+0200</time>
      </trkpt>
      <trkpt lat="44.91794" lon="6.63748">
        <ele>1836.7</ele>
        <time>2022-08-07T18:05:30+0200</time>
      </trkpt>
      <trkpt lat="44.91797" lon="6.63753">
        <ele>1837.4</ele>
        <time>2022-08-07T18:05:33+0200</time>
      </trkpt>
      <trkpt lat="44.91801" lon="6.63758">
        <ele>1837.9</ele>
        <time>2022-08-07T18:05:36+0200</time>
      </trkpt>
      <trkpt lat="44.91805" lon="6.63764">
        <ele>1838.6</ele>
        <time>2022-08-07T18:05:40+0200</time>
      </trkpt>
      <trkpt lat="44.91809" lon="6.63769">
        <ele>1839.4</ele>
        <time>2022-08-07T18:05:43+0200</time>
      </trkpt>
      <trkpt lat="44.91813" lon="6.63773">
        <ele>1840.3</ele>
        <time>2022-08-07T18:05:46+0200</time>
      </trkpt>
      <trkpt lat="44.91819" lon="6.63778">
        <ele>1841.4</ele>
        <time>2022-08-07T18:05:50+0200</time>
      </trkpt>
      <trkpt lat="44.91823" lon="6.63781">
        <ele>1842.5</ele>
        <time>2022-08-07T18:05:53+0200</time>
      </trkpt>
      <trkpt lat="44.91827" lon="6.63785">
        <ele>1843.4</ele>
        <time>2022-08-07T18:05:56+0200</time>
      </trkpt>
      <trkpt lat="44.91833" lon="6.63788">
        <ele>1844.4</ele>
        <time>2022-08-07T18:05:59+0200</time>
      </trkpt>
      <trkpt lat="44.91838" lon="6.6379">
        <ele>1845.1</ele>
        <time>2022-08-07T18:06:02+0200</time>
      </trkpt>
      <trkpt lat="44.91844" lon="6.63793">
        <ele>1845.9</ele>
        <time>2022-08-07T18:06:05+0200</time>
      </trkpt>
      <trkpt lat="44.9185" lon="6.63793">
        <ele>1846.3</ele>
        <time>2022-08-07T18:06:08+0200</time>
      </trkpt>
      <trkpt lat="44.91856" lon="6.63794">
        <ele>1846.8</ele>
        <time>2022-08-07T18:06:11+0200</time>
      </trkpt>
      <trkpt lat="44.91861" lon="6.63793">
        <ele>1847.1</ele>
        <time>2022-08-07T18:06:14+0200</time>
      </trkpt>
      <trkpt lat="44.91863" lon="6.63799">
        <ele>1847.3</ele>
        <time>2022-08-07T18:06:17+0200</time>
      </trkpt>
      <trkpt lat="44.91868" lon="6.63802">
        <ele>1846.9</ele>
        <time>2022-08-07T18:07:41+0200</time>
      </trkpt>
      <trkpt lat="44.91868" lon="6.63808">
        <ele>1847.2</ele>
        <time>2022-08-07T18:07:44+0200</time>
      </trkpt>
      <trkpt lat="44.9187" lon="6.63817">
        <ele>1847.5</ele>
        <time>2022-08-07T18:07:47+0200</time>
      </trkpt>
      <trkpt lat="44.91871" lon="6.63825">
        <ele>1847.7</ele>
        <time>2022-08-07T18:07:50+0200</time>
      </trkpt>
      <trkpt lat="44.91871" lon="6.63833">
        <ele>1848.3</ele>
        <time>2022-08-07T18:07:54+0200</time>
      </trkpt>
      <trkpt lat="44.91874" lon="6.63839">
        <ele>1848.7</ele>
        <time>2022-08-07T18:07:57+0200</time>
      </trkpt>
      <trkpt lat="44.91875" lon="6.63847">
        <ele>1850.1</ele>
        <time>2022-08-07T18:08:01+0200</time>
      </trkpt>
      <trkpt lat="44.91874" lon="6.63855">
        <ele>1851.5</ele>
        <time>2022-08-07T18:08:05+0200</time>
      </trkpt>
      <trkpt lat="44.91873" lon="6.63865">
        <ele>1853.4</ele>
        <time>2022-08-07T18:08:09+0200</time>
      </trkpt>
      <trkpt lat="44.91873" lon="6.63872">
        <ele>1854.8</ele>
        <time>2022-08-07T18:08:11+0200</time>
      </trkpt>
      <trkpt lat="44.91875" lon="6.63879">
        <ele>1856.1</ele>
        <time>2022-08-07T18:08:13+0200</time>
      </trkpt>
      <trkpt lat="44.91875" lon="6.63886">
        <ele>1857.4</ele>
        <time>2022-08-07T18:08:15+0200</time>
      </trkpt>
      <trkpt lat="44.91877" lon="6.63894">
        <ele>1858.9</ele>
        <time>2022-08-07T18:08:18+0200</time>
      </trkpt>
      <trkpt lat="44.91882" lon="6.63898">
        <ele>1859.3</ele>
        <time>2022-08-07T18:08:21+0200</time>
      </trkpt>
      <trkpt lat="44.91886" lon="6.639">
        <ele>1859.4</ele>
        <time>2022-08-07T18:08:24+0200</time>
      </trkpt>
      <trkpt lat="44.9189" lon="6.63903">
        <ele>1860</ele>
        <time>2022-08-07T18:08:26+0200</time>
      </trkpt>
      <trkpt lat="44.91894" lon="6.63907">
        <ele>1860.6</ele>
        <time>2022-08-07T18:08:28+0200</time>
      </trkpt>
      <trkpt lat="44.91896" lon="6.63915">
        <ele>1862.3</ele>
        <time>2022-08-07T18:08:32+0200</time>
      </trkpt>
      <trkpt lat="44.91891" lon="6.63916">
        <ele>1862.8</ele>
        <time>2022-08-07T18:08:36+0200</time>
      </trkpt>
      <trkpt lat="44.91886" lon="6.63915">
        <ele>1862.7</ele>
        <time>2022-08-07T18:08:40+0200</time>
      </trkpt>
      <trkpt lat="44.91881" lon="6.63909">
        <ele>1861.6</ele>
        <time>2022-08-07T18:08:43+0200</time>
      </trkpt>
      <trkpt lat="44.91875" lon="6.63908">
        <ele>1861.8</ele>
        <time>2022-08-07T18:08:46+0200</time>
      </trkpt>
      <trkpt lat="44.9187" lon="6.63907">
        <ele>1861.7</ele>
        <time>2022-08-07T18:08:48+0200</time>
      </trkpt>
      <trkpt lat="44.91865" lon="6.63904">
        <ele>1861.5</ele>
        <time>2022-08-07T18:08:50+0200</time>
      </trkpt>
      <trkpt lat="44.91858" lon="6.63903">
        <ele>1861.5</ele>
        <time>2022-08-07T18:08:53+0200</time>
      </trkpt>
      <trkpt lat="44.91852" lon="6.63902">
        <ele>1861.3</ele>
        <time>2022-08-07T18:08:56+0200</time>
      </trkpt>
      <trkpt lat="44.91847" lon="6.63903">
        <ele>1861.5</ele>
        <time>2022-08-07T18:08:58+0200</time>
      </trkpt>
      <trkpt lat="44.91842" lon="6.63905">
        <ele>1861.8</ele>
        <time>2022-08-07T18:09:00+0200</time>
      </trkpt>
      <trkpt lat="44.91839" lon="6.63911">
        <ele>1862.9</ele>
        <time>2022-08-07T18:09:01+0200</time>
      </trkpt>
      <trkpt lat="44.91835" lon="6.63917">
        <ele>1864</ele>
        <time>2022-08-07T18:09:04+0200</time>
      </trkpt>
      <trkpt lat="44.91833" lon="6.63926">
        <ele>1865.3</ele>
        <time>2022-08-07T18:09:07+0200</time>
      </trkpt>
      <trkpt lat="44.91834" lon="6.63935">
        <ele>1866.7</ele>
        <time>2022-08-07T18:09:11+0200</time>
      </trkpt>
      <trkpt lat="44.91834" lon="6.63945">
        <ele>1868.1</ele>
        <time>2022-08-07T18:09:14+0200</time>
      </trkpt>
      <trkpt lat="44.91833" lon="6.63953">
        <ele>1869.6</ele>
        <time>2022-08-07T18:09:17+0200</time>
      </trkpt>
      <trkpt lat="44.91832" lon="6.63961">
        <ele>1871.1</ele>
        <time>2022-08-07T18:09:20+0200</time>
      </trkpt>
      <trkpt lat="44.9183" lon="6.63968">
        <ele>1872.4</ele>
        <time>2022-08-07T18:09:23+0200</time>
      </trkpt>
      <trkpt lat="44.91827" lon="6.63975">
        <ele>1873.9</ele>
        <time>2022-08-07T18:09:26+0200</time>
      </trkpt>
      <trkpt lat="44.91823" lon="6.63979">
        <ele>1875</ele>
        <time>2022-08-07T18:09:30+0200</time>
      </trkpt>
      <trkpt lat="44.91817" lon="6.6398">
        <ele>1875.4</ele>
        <time>2022-08-07T18:09:33+0200</time>
      </trkpt>
      <trkpt lat="44.91813" lon="6.63978">
        <ele>1875</ele>
        <time>2022-08-07T18:09:35+0200</time>
      </trkpt>
      <trkpt lat="44.91809" lon="6.63974">
        <ele>1874.3</ele>
        <time>2022-08-07T18:09:38+0200</time>
      </trkpt>
      <trkpt lat="44.91803" lon="6.63974">
        <ele>1874.5</ele>
        <time>2022-08-07T18:09:41+0200</time>
      </trkpt>
      <trkpt lat="44.91798" lon="6.63971">
        <ele>1874.1</ele>
        <time>2022-08-07T18:09:44+0200</time>
      </trkpt>
      <trkpt lat="44.91793" lon="6.63969">
        <ele>1873.9</ele>
        <time>2022-08-07T18:09:47+0200</time>
      </trkpt>
      <trkpt lat="44.91788" lon="6.63969">
        <ele>1874.1</ele>
        <time>2022-08-07T18:09:49+0200</time>
      </trkpt>
      <trkpt lat="44.91782" lon="6.63972">
        <ele>1874.8</ele>
        <time>2022-08-07T18:09:52+0200</time>
      </trkpt>
      <trkpt lat="44.91778" lon="6.63973">
        <ele>1875.1</ele>
        <time>2022-08-07T18:09:54+0200</time>
      </trkpt>
      <trkpt lat="44.91772" lon="6.63975">
        <ele>1875.5</ele>
        <time>2022-08-07T18:09:57+0200</time>
      </trkpt>
      <trkpt lat="44.91767" lon="6.63976">
        <ele>1875.7</ele>
        <time>2022-08-07T18:09:59+0200</time>
      </trkpt>
      <trkpt lat="44.91763" lon="6.63977">
        <ele>1875.8</ele>
        <time>2022-08-07T18:10:01+0200</time>
      </trkpt>
      <trkpt lat="44.91757" lon="6.63978">
        <ele>1876.1</ele>
        <time>2022-08-07T18:10:04+0200</time>
      </trkpt>
      <trkpt lat="44.91752" lon="6.63982">
        <ele>1876.7</ele>
        <time>2022-08-07T18:10:07+0200</time>
      </trkpt>
      <trkpt lat="44.91746" lon="6.63984">
        <ele>1877</ele>
        <time>2022-08-07T18:10:10+0200</time>
      </trkpt>
      <trkpt lat="44.91742" lon="6.63988">
        <ele>1877.7</ele>
        <time>2022-08-07T18:10:13+0200</time>
      </trkpt>
      <trkpt lat="44.91738" lon="6.63993">
        <ele>1878.5</ele>
        <time>2022-08-07T18:10:16+0200</time>
      </trkpt>
      <trkpt lat="44.91734" lon="6.63998">
        <ele>1879.1</ele>
        <time>2022-08-07T18:10:19+0200</time>
      </trkpt>
      <trkpt lat="44.9173" lon="6.64003">
        <ele>1879.8</ele>
        <time>2022-08-07T18:10:22+0200</time>
      </trkpt>
      <trkpt lat="44.91726" lon="6.64009">
        <ele>1880.7</ele>
        <time>2022-08-07T18:10:25+0200</time>
      </trkpt>
      <trkpt lat="44.91722" lon="6.64012">
        <ele>1881.2</ele>
        <time>2022-08-07T18:10:28+0200</time>
      </trkpt>
      <trkpt lat="44.91716" lon="6.64015">
        <ele>1881.6</ele>
        <time>2022-08-07T18:10:31+0200</time>
      </trkpt>
      <trkpt lat="44.9171" lon="6.64019">
        <ele>1882.1</ele>
        <time>2022-08-07T18:10:34+0200</time>
      </trkpt>
      <trkpt lat="44.91706" lon="6.64023">
        <ele>1882.6</ele>
        <time>2022-08-07T18:10:37+0200</time>
      </trkpt>
      <trkpt lat="44.91701" lon="6.64027">
        <ele>1883.2</ele>
        <time>2022-08-07T18:10:40+0200</time>
      </trkpt>
      <trkpt lat="44.91698" lon="6.64034">
        <ele>1884.5</ele>
        <time>2022-08-07T18:10:43+0200</time>
      </trkpt>
      <trkpt lat="44.91694" lon="6.64041">
        <ele>1885.7</ele>
        <time>2022-08-07T18:10:46+0200</time>
      </trkpt>
      <trkpt lat="44.91691" lon="6.64047">
        <ele>1887.2</ele>
        <time>2022-08-07T18:10:49+0200</time>
      </trkpt>
      <trkpt lat="44.91689" lon="6.64053">
        <ele>1888.4</ele>
        <time>2022-08-07T18:10:52+0200</time>
      </trkpt>
      <trkpt lat="44.91683" lon="6.64057">
        <ele>1889.3</ele>
        <time>2022-08-07T18:10:55+0200</time>
      </trkpt>
      <trkpt lat="44.91678" lon="6.64058">
        <ele>1889.6</ele>
        <time>2022-08-07T18:10:58+0200</time>
      </trkpt>
      <trkpt lat="44.91674" lon="6.6406">
        <ele>1889.9</ele>
        <time>2022-08-07T18:11:00+0200</time>
      </trkpt>
      <trkpt lat="44.91668" lon="6.64062">
        <ele>1890.3</ele>
        <time>2022-08-07T18:11:02+0200</time>
      </trkpt>
      <trkpt lat="44.91663" lon="6.64065">
        <ele>1890.9</ele>
        <time>2022-08-07T18:11:06+0200</time>
      </trkpt>
      <trkpt lat="44.91659" lon="6.6407">
        <ele>1891.9</ele>
        <time>2022-08-07T18:11:09+0200</time>
      </trkpt>
      <trkpt lat="44.91654" lon="6.64074">
        <ele>1892.6</ele>
        <time>2022-08-07T18:11:12+0200</time>
      </trkpt>
      <trkpt lat="44.91649" lon="6.64076">
        <ele>1893</ele>
        <time>2022-08-07T18:11:15+0200</time>
      </trkpt>
      <trkpt lat="44.91644" lon="6.64079">
        <ele>1893.4</ele>
        <time>2022-08-07T18:11:18+0200</time>
      </trkpt>
      <trkpt lat="44.91639" lon="6.64081">
        <ele>1893.6</ele>
        <time>2022-08-07T18:11:21+0200</time>
      </trkpt>
      <trkpt lat="44.91634" lon="6.64085">
        <ele>1894</ele>
        <time>2022-08-07T18:11:24+0200</time>
      </trkpt>
      <trkpt lat="44.91628" lon="6.64089">
        <ele>1894.3</ele>
        <time>2022-08-07T18:11:27+0200</time>
      </trkpt>
      <trkpt lat="44.91623" lon="6.64093">
        <ele>1894.5</ele>
        <time>2022-08-07T18:11:30+0200</time>
      </trkpt>
      <trkpt lat="44.91618" lon="6.64096">
        <ele>1894.8</ele>
        <time>2022-08-07T18:11:33+0200</time>
      </trkpt>
      <trkpt lat="44.91613" lon="6.641">
        <ele>1895.1</ele>
        <time>2022-08-07T18:11:36+0200</time>
      </trkpt>
      <trkpt lat="44.91609" lon="6.64105">
        <ele>1895.8</ele>
        <time>2022-08-07T18:11:39+0200</time>
      </trkpt>
      <trkpt lat="44.91605" lon="6.64111">
        <ele>1896.6</ele>
        <time>2022-08-07T18:11:42+0200</time>
      </trkpt>
      <trkpt lat="44.91602" lon="6.64117">
        <ele>1897.5</ele>
        <time>2022-08-07T18:11:45+0200</time>
      </trkpt>
      <trkpt lat="44.91598" lon="6.64123">
        <ele>1898.4</ele>
        <time>2022-08-07T18:11:48+0200</time>
      </trkpt>
      <trkpt lat="44.91594" lon="6.6413">
        <ele>1899.5</ele>
        <time>2022-08-07T18:11:52+0200</time>
      </trkpt>
      <trkpt lat="44.9159" lon="6.64135">
        <ele>1899.9</ele>
        <time>2022-08-07T18:11:55+0200</time>
      </trkpt>
      <trkpt lat="44.91587" lon="6.6414">
        <ele>1900.7</ele>
        <time>2022-08-07T18:11:58+0200</time>
      </trkpt>
      <trkpt lat="44.91581" lon="6.64143">
        <ele>1900.7</ele>
        <time>2022-08-07T18:12:01+0200</time>
      </trkpt>
      <trkpt lat="44.91575" lon="6.64147">
        <ele>1900.8</ele>
        <time>2022-08-07T18:12:05+0200</time>
      </trkpt>
      <trkpt lat="44.91571" lon="6.64152">
        <ele>1901.2</ele>
        <time>2022-08-07T18:12:08+0200</time>
      </trkpt>
      <trkpt lat="44.91566" lon="6.64157">
        <ele>1901.6</ele>
        <time>2022-08-07T18:12:11+0200</time>
      </trkpt>
      <trkpt lat="44.91561" lon="6.64161">
        <ele>1901.7</ele>
        <time>2022-08-07T18:12:14+0200</time>
      </trkpt>
      <trkpt lat="44.91556" lon="6.64164">
        <ele>1901.5</ele>
        <time>2022-08-07T18:12:17+0200</time>
      </trkpt>
      <trkpt lat="44.91551" lon="6.64168">
        <ele>1901.5</ele>
        <time>2022-08-07T18:12:20+0200</time>
      </trkpt>
      <trkpt lat="44.91546" lon="6.64172">
        <ele>1901.6</ele>
        <time>2022-08-07T18:12:23+0200</time>
      </trkpt>
      <trkpt lat="44.91541" lon="6.64177">
        <ele>1901.9</ele>
        <time>2022-08-07T18:12:26+0200</time>
      </trkpt>
      <trkpt lat="44.91537" lon="6.64183">
        <ele>1902.9</ele>
        <time>2022-08-07T18:12:30+0200</time>
      </trkpt>
      <trkpt lat="44.91534" lon="6.64187">
        <ele>1903.2</ele>
        <time>2022-08-07T18:12:32+0200</time>
      </trkpt>
      <trkpt lat="44.91529" lon="6.64194">
        <ele>1904</ele>
        <time>2022-08-07T18:12:35+0200</time>
      </trkpt>
      <trkpt lat="44.91525" lon="6.64197">
        <ele>1904.5</ele>
        <time>2022-08-07T18:12:37+0200</time>
      </trkpt>
      <trkpt lat="44.91522" lon="6.64202">
        <ele>1905.4</ele>
        <time>2022-08-07T18:12:40+0200</time>
      </trkpt>
      <trkpt lat="44.91518" lon="6.64207">
        <ele>1905.9</ele>
        <time>2022-08-07T18:12:43+0200</time>
      </trkpt>
      <trkpt lat="44.91513" lon="6.64212">
        <ele>1906.6</ele>
        <time>2022-08-07T18:12:46+0200</time>
      </trkpt>
      <trkpt lat="44.9151" lon="6.64217">
        <ele>1907.3</ele>
        <time>2022-08-07T18:12:48+0200</time>
      </trkpt>
      <trkpt lat="44.91506" lon="6.64223">
        <ele>1908.3</ele>
        <time>2022-08-07T18:12:51+0200</time>
      </trkpt>
      <trkpt lat="44.91503" lon="6.6423">
        <ele>1909.8</ele>
        <time>2022-08-07T18:12:54+0200</time>
      </trkpt>
      <trkpt lat="44.91499" lon="6.64237">
        <ele>1911</ele>
        <time>2022-08-07T18:12:57+0200</time>
      </trkpt>
      <trkpt lat="44.91496" lon="6.64244">
        <ele>1912.7</ele>
        <time>2022-08-07T18:13:00+0200</time>
      </trkpt>
      <trkpt lat="44.91492" lon="6.64248">
        <ele>1913.1</ele>
        <time>2022-08-07T18:13:03+0200</time>
      </trkpt>
      <trkpt lat="44.91488" lon="6.64251">
        <ele>1913.6</ele>
        <time>2022-08-07T18:13:05+0200</time>
      </trkpt>
      <trkpt lat="44.91483" lon="6.64254">
        <ele>1913.9</ele>
        <time>2022-08-07T18:13:07+0200</time>
      </trkpt>
      <trkpt lat="44.91478" lon="6.64258">
        <ele>1914.3</ele>
        <time>2022-08-07T18:13:10+0200</time>
      </trkpt>
      <trkpt lat="44.91474" lon="6.64261">
        <ele>1914.6</ele>
        <time>2022-08-07T18:13:12+0200</time>
      </trkpt>
      <trkpt lat="44.9147" lon="6.64267">
        <ele>1916.2</ele>
        <time>2022-08-07T18:13:15+0200</time>
      </trkpt>
      <trkpt lat="44.91465" lon="6.6427">
        <ele>1916.6</ele>
        <time>2022-08-07T18:13:18+0200</time>
      </trkpt>
      <trkpt lat="44.91461" lon="6.64274">
        <ele>1917.8</ele>
        <time>2022-08-07T18:13:21+0200</time>
      </trkpt>
      <trkpt lat="44.91457" lon="6.6428">
        <ele>1919</ele>
        <time>2022-08-07T18:13:24+0200</time>
      </trkpt>
      <trkpt lat="44.91453" lon="6.64284">
        <ele>1919.4</ele>
        <time>2022-08-07T18:13:26+0200</time>
      </trkpt>
      <trkpt lat="44.91448" lon="6.64286">
        <ele>1919.4</ele>
        <time>2022-08-07T18:13:28+0200</time>
      </trkpt>
      <trkpt lat="44.91442" lon="6.64289">
        <ele>1919.7</ele>
        <time>2022-08-07T18:13:31+0200</time>
      </trkpt>
      <trkpt lat="44.91438" lon="6.64292">
        <ele>1920.1</ele>
        <time>2022-08-07T18:13:34+0200</time>
      </trkpt>
      <trkpt lat="44.91432" lon="6.64294">
        <ele>1919.9</ele>
        <time>2022-08-07T18:13:37+0200</time>
      </trkpt>
      <trkpt lat="44.91426" lon="6.64296">
        <ele>1920</ele>
        <time>2022-08-07T18:13:40+0200</time>
      </trkpt>
      <trkpt lat="44.91421" lon="6.64296">
        <ele>1919.7</ele>
        <time>2022-08-07T18:13:43+0200</time>
      </trkpt>
      <trkpt lat="44.91416" lon="6.64298">
        <ele>1919.8</ele>
        <time>2022-08-07T18:13:46+0200</time>
      </trkpt>
      <trkpt lat="44.91409" lon="6.64299">
        <ele>1919.6</ele>
        <time>2022-08-07T18:13:49+0200</time>
      </trkpt>
      <trkpt lat="44.91404" lon="6.64302">
        <ele>1920.2</ele>
        <time>2022-08-07T18:13:52+0200</time>
      </trkpt>
      <trkpt lat="44.914" lon="6.64307">
        <ele>1921</ele>
        <time>2022-08-07T18:13:54+0200</time>
      </trkpt>
      <trkpt lat="44.91397" lon="6.64311">
        <ele>1921.9</ele>
        <time>2022-08-07T18:13:56+0200</time>
      </trkpt>
      <trkpt lat="44.91394" lon="6.64317">
        <ele>1923</ele>
        <time>2022-08-07T18:13:58+0200</time>
      </trkpt>
      <trkpt lat="44.91392" lon="6.64324">
        <ele>1924.4</ele>
        <time>2022-08-07T18:14:01+0200</time>
      </trkpt>
      <trkpt lat="44.91389" lon="6.64332">
        <ele>1925.6</ele>
        <time>2022-08-07T18:14:04+0200</time>
      </trkpt>
      <trkpt lat="44.91387" lon="6.64339">
        <ele>1926.9</ele>
        <time>2022-08-07T18:14:07+0200</time>
      </trkpt>
      <trkpt lat="44.91384" lon="6.64346">
        <ele>1928</ele>
        <time>2022-08-07T18:14:10+0200</time>
      </trkpt>
      <trkpt lat="44.91381" lon="6.64353">
        <ele>1928.9</ele>
        <time>2022-08-07T18:14:13+0200</time>
      </trkpt>
      <trkpt lat="44.91378" lon="6.64358">
        <ele>1929.6</ele>
        <time>2022-08-07T18:14:15+0200</time>
      </trkpt>
      <trkpt lat="44.91375" lon="6.64363">
        <ele>1930.3</ele>
        <time>2022-08-07T18:14:17+0200</time>
      </trkpt>
      <trkpt lat="44.91371" lon="6.64367">
        <ele>1930.7</ele>
        <time>2022-08-07T18:14:19+0200</time>
      </trkpt>
      <trkpt lat="44.91367" lon="6.64372">
        <ele>1931.2</ele>
        <time>2022-08-07T18:14:22+0200</time>
      </trkpt>
      <trkpt lat="44.91363" lon="6.64379">
        <ele>1932.1</ele>
        <time>2022-08-07T18:14:25+0200</time>
      </trkpt>
      <trkpt lat="44.91361" lon="6.64385">
        <ele>1933</ele>
        <time>2022-08-07T18:14:27+0200</time>
      </trkpt>
      <trkpt lat="44.91357" lon="6.6439">
        <ele>1933.7</ele>
        <time>2022-08-07T18:14:30+0200</time>
      </trkpt>
      <trkpt lat="44.91353" lon="6.64396">
        <ele>1934</ele>
        <time>2022-08-07T18:14:33+0200</time>
      </trkpt>
      <trkpt lat="44.9135" lon="6.64403">
        <ele>1935</ele>
        <time>2022-08-07T18:14:36+0200</time>
      </trkpt>
      <trkpt lat="44.91347" lon="6.6441">
        <ele>1935.7</ele>
        <time>2022-08-07T18:14:39+0200</time>
      </trkpt>
      <trkpt lat="44.91344" lon="6.64416">
        <ele>1936.4</ele>
        <time>2022-08-07T18:14:42+0200</time>
      </trkpt>
      <trkpt lat="44.91341" lon="6.64423">
        <ele>1937.3</ele>
        <time>2022-08-07T18:14:45+0200</time>
      </trkpt>
      <trkpt lat="44.91337" lon="6.64428">
        <ele>1937.9</ele>
        <time>2022-08-07T18:14:48+0200</time>
      </trkpt>
      <trkpt lat="44.91333" lon="6.64432">
        <ele>1938.3</ele>
        <time>2022-08-07T18:14:51+0200</time>
      </trkpt>
      <trkpt lat="44.91329" lon="6.64437">
        <ele>1938.8</ele>
        <time>2022-08-07T18:14:54+0200</time>
      </trkpt>
      <trkpt lat="44.91325" lon="6.64441">
        <ele>1939</ele>
        <time>2022-08-07T18:14:57+0200</time>
      </trkpt>
      <trkpt lat="44.91321" lon="6.64443">
        <ele>1938.9</ele>
        <time>2022-08-07T18:15:00+0200</time>
      </trkpt>
      <trkpt lat="44.91316" lon="6.64448">
        <ele>1939.2</ele>
        <time>2022-08-07T18:15:03+0200</time>
      </trkpt>
      <trkpt lat="44.9131" lon="6.64453">
        <ele>1939.8</ele>
        <time>2022-08-07T18:15:06+0200</time>
      </trkpt>
      <trkpt lat="44.91307" lon="6.64457">
        <ele>1940.4</ele>
        <time>2022-08-07T18:15:08+0200</time>
      </trkpt>
      <trkpt lat="44.91301" lon="6.64463">
        <ele>1941.2</ele>
        <time>2022-08-07T18:15:10+0200</time>
      </trkpt>
      <trkpt lat="44.91297" lon="6.64468">
        <ele>1942.1</ele>
        <time>2022-08-07T18:15:13+0200</time>
      </trkpt>
      <trkpt lat="44.91294" lon="6.64475">
        <ele>1943.3</ele>
        <time>2022-08-07T18:15:16+0200</time>
      </trkpt>
      <trkpt lat="44.91291" lon="6.64482">
        <ele>1944.5</ele>
        <time>2022-08-07T18:15:19+0200</time>
      </trkpt>
      <trkpt lat="44.91287" lon="6.64488">
        <ele>1945.4</ele>
        <time>2022-08-07T18:15:22+0200</time>
      </trkpt>
      <trkpt lat="44.91281" lon="6.64492">
        <ele>1945.6</ele>
        <time>2022-08-07T18:15:25+0200</time>
      </trkpt>
      <trkpt lat="44.91276" lon="6.64496">
        <ele>1945.9</ele>
        <time>2022-08-07T18:15:28+0200</time>
      </trkpt>
      <trkpt lat="44.9127" lon="6.645">
        <ele>1946.1</ele>
        <time>2022-08-07T18:15:32+0200</time>
      </trkpt>
      <trkpt lat="44.91265" lon="6.64503">
        <ele>1946.4</ele>
        <time>2022-08-07T18:15:34+0200</time>
      </trkpt>
      <trkpt lat="44.91263" lon="6.64509">
        <ele>1947.5</ele>
        <time>2022-08-07T18:15:36+0200</time>
      </trkpt>
      <trkpt lat="44.9126" lon="6.64517">
        <ele>1949.2</ele>
        <time>2022-08-07T18:15:39+0200</time>
      </trkpt>
      <trkpt lat="44.91258" lon="6.64525">
        <ele>1950.8</ele>
        <time>2022-08-07T18:15:42+0200</time>
      </trkpt>
      <trkpt lat="44.91255" lon="6.64529">
        <ele>1951.7</ele>
        <time>2022-08-07T18:15:44+0200</time>
      </trkpt>
      <trkpt lat="44.91251" lon="6.64533">
        <ele>1952.5</ele>
        <time>2022-08-07T18:15:46+0200</time>
      </trkpt>
      <trkpt lat="44.91247" lon="6.64536">
        <ele>1952.7</ele>
        <time>2022-08-07T18:15:48+0200</time>
      </trkpt>
      <trkpt lat="44.91243" lon="6.6454">
        <ele>1953.3</ele>
        <time>2022-08-07T18:15:50+0200</time>
      </trkpt>
      <trkpt lat="44.91239" lon="6.64543">
        <ele>1953.6</ele>
        <time>2022-08-07T18:15:53+0200</time>
      </trkpt>
      <trkpt lat="44.91234" lon="6.64547">
        <ele>1954.3</ele>
        <time>2022-08-07T18:15:56+0200</time>
      </trkpt>
      <trkpt lat="44.9123" lon="6.64551">
        <ele>1954.7</ele>
        <time>2022-08-07T18:15:59+0200</time>
      </trkpt>
      <trkpt lat="44.91224" lon="6.64554">
        <ele>1954.9</ele>
        <time>2022-08-07T18:16:02+0200</time>
      </trkpt>
      <trkpt lat="44.91218" lon="6.64556">
        <ele>1954.8</ele>
        <time>2022-08-07T18:16:05+0200</time>
      </trkpt>
      <trkpt lat="44.91213" lon="6.64556">
        <ele>1954.2</ele>
        <time>2022-08-07T18:16:07+0200</time>
      </trkpt>
      <trkpt lat="44.91207" lon="6.64559">
        <ele>1954.3</ele>
        <time>2022-08-07T18:16:10+0200</time>
      </trkpt>
      <trkpt lat="44.91201" lon="6.64561">
        <ele>1954.2</ele>
        <time>2022-08-07T18:16:13+0200</time>
      </trkpt>
      <trkpt lat="44.91194" lon="6.64564">
        <ele>1954.4</ele>
        <time>2022-08-07T18:16:16+0200</time>
      </trkpt>
      <trkpt lat="44.91188" lon="6.64569">
        <ele>1955</ele>
        <time>2022-08-07T18:16:19+0200</time>
      </trkpt>
      <trkpt lat="44.91184" lon="6.64572">
        <ele>1955.3</ele>
        <time>2022-08-07T18:16:21+0200</time>
      </trkpt>
      <trkpt lat="44.9118" lon="6.64575">
        <ele>1955.6</ele>
        <time>2022-08-07T18:16:23+0200</time>
      </trkpt>
      <trkpt lat="44.91176" lon="6.6458">
        <ele>1956.6</ele>
        <time>2022-08-07T18:16:25+0200</time>
      </trkpt>
      <trkpt lat="44.91171" lon="6.64586">
        <ele>1957.5</ele>
        <time>2022-08-07T18:16:28+0200</time>
      </trkpt>
      <trkpt lat="44.91166" lon="6.6459">
        <ele>1958.1</ele>
        <time>2022-08-07T18:16:31+0200</time>
      </trkpt>
      <trkpt lat="44.9116" lon="6.64595">
        <ele>1958.4</ele>
        <time>2022-08-07T18:16:34+0200</time>
      </trkpt>
      <trkpt lat="44.91156" lon="6.64601">
        <ele>1959.7</ele>
        <time>2022-08-07T18:16:37+0200</time>
      </trkpt>
      <trkpt lat="44.91151" lon="6.64606">
        <ele>1960</ele>
        <time>2022-08-07T18:16:40+0200</time>
      </trkpt>
      <trkpt lat="44.91147" lon="6.64609">
        <ele>1960.1</ele>
        <time>2022-08-07T18:16:42+0200</time>
      </trkpt>
      <trkpt lat="44.91141" lon="6.64613">
        <ele>1960</ele>
        <time>2022-08-07T18:16:45+0200</time>
      </trkpt>
      <trkpt lat="44.91136" lon="6.64614">
        <ele>1959.7</ele>
        <time>2022-08-07T18:16:47+0200</time>
      </trkpt>
      <trkpt lat="44.91131" lon="6.64621">
        <ele>1961.2</ele>
        <time>2022-08-07T18:16:50+0200</time>
      </trkpt>
      <trkpt lat="44.91127" lon="6.64623">
        <ele>1961.6</ele>
        <time>2022-08-07T18:16:52+0200</time>
      </trkpt>
      <trkpt lat="44.91121" lon="6.64627">
        <ele>1962.3</ele>
        <time>2022-08-07T18:16:55+0200</time>
      </trkpt>
      <trkpt lat="44.91117" lon="6.64632">
        <ele>1963.6</ele>
        <time>2022-08-07T18:16:59+0200</time>
      </trkpt>
      <trkpt lat="44.91118" lon="6.64639">
        <ele>1967.1</ele>
        <time>2022-08-07T18:17:02+0200</time>
      </trkpt>
      <trkpt lat="44.91113" lon="6.64643">
        <ele>1968.3</ele>
        <time>2022-08-07T18:17:13+0200</time>
      </trkpt>
      <trkpt lat="44.91108" lon="6.64646">
        <ele>1968.9</ele>
        <time>2022-08-07T18:17:16+0200</time>
      </trkpt>
      <trkpt lat="44.91103" lon="6.64648">
        <ele>1969.5</ele>
        <time>2022-08-07T18:17:19+0200</time>
      </trkpt>
      <trkpt lat="44.91098" lon="6.64651">
        <ele>1969.9</ele>
        <time>2022-08-07T18:17:22+0200</time>
      </trkpt>
      <trkpt lat="44.91093" lon="6.64653">
        <ele>1969.8</ele>
        <time>2022-08-07T18:17:24+0200</time>
      </trkpt>
      <trkpt lat="44.91087" lon="6.64654">
        <ele>1969</ele>
        <time>2022-08-07T18:17:27+0200</time>
      </trkpt>
      <trkpt lat="44.9108" lon="6.64654">
        <ele>1967.6</ele>
        <time>2022-08-07T18:17:30+0200</time>
      </trkpt>
      <trkpt lat="44.91074" lon="6.64655">
        <ele>1965.7</ele>
        <time>2022-08-07T18:17:33+0200</time>
      </trkpt>
      <trkpt lat="44.91073" lon="6.6466">
        <ele>1966.7</ele>
        <time>2022-08-07T18:20:19+0200</time>
      </trkpt>
      <trkpt lat="44.91072" lon="6.64668">
        <ele>1967.9</ele>
        <time>2022-08-07T18:20:22+0200</time>
      </trkpt>
      <trkpt lat="44.91072" lon="6.64677">
        <ele>1967.7</ele>
        <time>2022-08-07T18:20:25+0200</time>
      </trkpt>
      <trkpt lat="44.91072" lon="6.64689">
        <ele>1967.4</ele>
        <time>2022-08-07T18:20:27+0200</time>
      </trkpt>
      <trkpt lat="44.91072" lon="6.64702">
        <ele>1966.7</ele>
        <time>2022-08-07T18:20:29+0200</time>
      </trkpt>
      <trkpt lat="44.91076" lon="6.64709">
        <ele>1967.8</ele>
        <time>2022-08-07T18:20:31+0200</time>
      </trkpt>
      <trkpt lat="44.91077" lon="6.64721">
        <ele>1967.7</ele>
        <time>2022-08-07T18:20:33+0200</time>
      </trkpt>
      <trkpt lat="44.91077" lon="6.64731">
        <ele>1965.5</ele>
        <time>2022-08-07T18:20:35+0200</time>
      </trkpt>
      <trkpt lat="44.91079" lon="6.64742">
        <ele>1963.3</ele>
        <time>2022-08-07T18:20:37+0200</time>
      </trkpt>
      <trkpt lat="44.9108" lon="6.64753">
        <ele>1960.9</ele>
        <time>2022-08-07T18:20:39+0200</time>
      </trkpt>
      <trkpt lat="44.91082" lon="6.64761">
        <ele>1959.7</ele>
        <time>2022-08-07T18:20:40+0200</time>
      </trkpt>
      <trkpt lat="44.91084" lon="6.64768">
        <ele>1958.2</ele>
        <time>2022-08-07T18:20:41+0200</time>
      </trkpt>
      <trkpt lat="44.91087" lon="6.64775">
        <ele>1958.2</ele>
        <time>2022-08-07T18:20:42+0200</time>
      </trkpt>
      <trkpt lat="44.9109" lon="6.64779">
        <ele>1958.9</ele>
        <time>2022-08-07T18:20:43+0200</time>
      </trkpt>
      <trkpt lat="44.91094" lon="6.64788">
        <ele>1957.9</ele>
        <time>2022-08-07T18:20:44+0200</time>
      </trkpt>
      <trkpt lat="44.91097" lon="6.64798">
        <ele>1955.9</ele>
        <time>2022-08-07T18:20:45+0200</time>
      </trkpt>
      <trkpt lat="44.91099" lon="6.64804">
        <ele>1954.5</ele>
        <time>2022-08-07T18:20:46+0200</time>
      </trkpt>
      <trkpt lat="44.91099" lon="6.64814">
        <ele>1950.4</ele>
        <time>2022-08-07T18:20:48+0200</time>
      </trkpt>
      <trkpt lat="44.91099" lon="6.64821">
        <ele>1948.1</ele>
        <time>2022-08-07T18:20:49+0200</time>
      </trkpt>
      <trkpt lat="44.91102" lon="6.6483">
        <ele>1945.7</ele>
        <time>2022-08-07T18:20:51+0200</time>
      </trkpt>
      <trkpt lat="44.91104" lon="6.64843">
        <ele>1942.1</ele>
        <time>2022-08-07T18:20:53+0200</time>
      </trkpt>
      <trkpt lat="44.91106" lon="6.64852">
        <ele>1940.1</ele>
        <time>2022-08-07T18:20:54+0200</time>
      </trkpt>
      <trkpt lat="44.91109" lon="6.6486">
        <ele>1939</ele>
        <time>2022-08-07T18:20:55+0200</time>
      </trkpt>
      <trkpt lat="44.91113" lon="6.64876">
        <ele>1937.8</ele>
        <time>2022-08-07T18:20:57+0200</time>
      </trkpt>
      <trkpt lat="44.91116" lon="6.64886">
        <ele>1938.2</ele>
        <time>2022-08-07T18:20:58+0200</time>
      </trkpt>
      <trkpt lat="44.91119" lon="6.649">
        <ele>1936.3</ele>
        <time>2022-08-07T18:20:59+0200</time>
      </trkpt>
      <trkpt lat="44.91122" lon="6.64913">
        <ele>1934.6</ele>
        <time>2022-08-07T18:21:00+0200</time>
      </trkpt>
      <trkpt lat="44.91124" lon="6.64924">
        <ele>1933.3</ele>
        <time>2022-08-07T18:21:01+0200</time>
      </trkpt>
      <trkpt lat="44.91125" lon="6.64933">
        <ele>1931.1</ele>
        <time>2022-08-07T18:21:02+0200</time>
      </trkpt>
      <trkpt lat="44.9113" lon="6.64947">
        <ele>1930.1</ele>
        <time>2022-08-07T18:21:04+0200</time>
      </trkpt>
      <trkpt lat="44.91135" lon="6.64962">
        <ele>1929.5</ele>
        <time>2022-08-07T18:21:05+0200</time>
      </trkpt>
      <trkpt lat="44.9114" lon="6.64974">
        <ele>1928.5</ele>
        <time>2022-08-07T18:21:06+0200</time>
      </trkpt>
      <trkpt lat="44.91143" lon="6.64982">
        <ele>1927.1</ele>
        <time>2022-08-07T18:21:07+0200</time>
      </trkpt>
      <trkpt lat="44.91146" lon="6.6499">
        <ele>1925.6</ele>
        <time>2022-08-07T18:21:09+0200</time>
      </trkpt>
      <trkpt lat="44.91151" lon="6.64994">
        <ele>1925.5</ele>
        <time>2022-08-07T18:21:10+0200</time>
      </trkpt>
      <trkpt lat="44.91158" lon="6.64995">
        <ele>1927.8</ele>
        <time>2022-08-07T18:21:11+0200</time>
      </trkpt>
      <trkpt lat="44.91163" lon="6.64995">
        <ele>1929.7</ele>
        <time>2022-08-07T18:21:12+0200</time>
      </trkpt>
      <trkpt lat="44.9117" lon="6.64996">
        <ele>1931.2</ele>
        <time>2022-08-07T18:21:13+0200</time>
      </trkpt>
      <trkpt lat="44.91174" lon="6.64999">
        <ele>1930.6</ele>
        <time>2022-08-07T18:21:14+0200</time>
      </trkpt>
      <trkpt lat="44.91178" lon="6.6501">
        <ele>1925.5</ele>
        <time>2022-08-07T18:21:16+0200</time>
      </trkpt>
      <trkpt lat="44.91181" lon="6.65016">
        <ele>1922.4</ele>
        <time>2022-08-07T18:21:17+0200</time>
      </trkpt>
      <trkpt lat="44.91187" lon="6.65028">
        <ele>1916.2</ele>
        <time>2022-08-07T18:21:19+0200</time>
      </trkpt>
      <trkpt lat="44.91197" lon="6.65034">
        <ele>1913.2</ele>
        <time>2022-08-07T18:21:21+0200</time>
      </trkpt>
      <trkpt lat="44.91204" lon="6.65039">
        <ele>1911.9</ele>
        <time>2022-08-07T18:21:22+0200</time>
      </trkpt>
      <trkpt lat="44.9121" lon="6.65046">
        <ele>1909.2</ele>
        <time>2022-08-07T18:21:23+0200</time>
      </trkpt>
      <trkpt lat="44.91214" lon="6.65053">
        <ele>1906.3</ele>
        <time>2022-08-07T18:21:24+0200</time>
      </trkpt>
      <trkpt lat="44.91222" lon="6.6506">
        <ele>1904</ele>
        <time>2022-08-07T18:21:25+0200</time>
      </trkpt>
      <trkpt lat="44.91226" lon="6.65068">
        <ele>1900.8</ele>
        <time>2022-08-07T18:21:26+0200</time>
      </trkpt>
      <trkpt lat="44.91229" lon="6.65073">
        <ele>1898.9</ele>
        <time>2022-08-07T18:21:28+0200</time>
      </trkpt>
      <trkpt lat="44.91234" lon="6.65074">
        <ele>1899.2</ele>
        <time>2022-08-07T18:21:29+0200</time>
      </trkpt>
      <trkpt lat="44.91238" lon="6.65082">
        <ele>1896.1</ele>
        <time>2022-08-07T18:21:30+0200</time>
      </trkpt>
      <trkpt lat="44.9124" lon="6.6509">
        <ele>1892.4</ele>
        <time>2022-08-07T18:21:31+0200</time>
      </trkpt>
      <trkpt lat="44.91243" lon="6.65099">
        <ele>1889</ele>
        <time>2022-08-07T18:21:32+0200</time>
      </trkpt>
      <trkpt lat="44.91248" lon="6.65105">
        <ele>1887.1</ele>
        <time>2022-08-07T18:21:33+0200</time>
      </trkpt>
      <trkpt lat="44.91255" lon="6.65112">
        <ele>1886.5</ele>
        <time>2022-08-07T18:21:36+0200</time>
      </trkpt>
      <trkpt lat="44.91261" lon="6.65117">
        <ele>1885.9</ele>
        <time>2022-08-07T18:21:37+0200</time>
      </trkpt>
      <trkpt lat="44.91267" lon="6.65126">
        <ele>1884.4</ele>
        <time>2022-08-07T18:21:39+0200</time>
      </trkpt>
      <trkpt lat="44.91271" lon="6.65131">
        <ele>1883.8</ele>
        <time>2022-08-07T18:21:40+0200</time>
      </trkpt>
      <trkpt lat="44.91277" lon="6.65136">
        <ele>1883.6</ele>
        <time>2022-08-07T18:21:41+0200</time>
      </trkpt>
      <trkpt lat="44.9128" lon="6.6514">
        <ele>1883.6</ele>
        <time>2022-08-07T18:21:42+0200</time>
      </trkpt>
      <trkpt lat="44.91286" lon="6.65146">
        <ele>1883.8</ele>
        <time>2022-08-07T18:21:43+0200</time>
      </trkpt>
      <trkpt lat="44.91291" lon="6.65155">
        <ele>1882.1</ele>
        <time>2022-08-07T18:21:44+0200</time>
      </trkpt>
      <trkpt lat="44.91292" lon="6.65164">
        <ele>1878.7</ele>
        <time>2022-08-07T18:21:45+0200</time>
      </trkpt>
      <trkpt lat="44.91295" lon="6.65178">
        <ele>1874.3</ele>
        <time>2022-08-07T18:21:47+0200</time>
      </trkpt>
      <trkpt lat="44.91299" lon="6.65187">
        <ele>1872.4</ele>
        <time>2022-08-07T18:21:48+0200</time>
      </trkpt>
      <trkpt lat="44.91304" lon="6.65194">
        <ele>1871.3</ele>
        <time>2022-08-07T18:21:49+0200</time>
      </trkpt>
      <trkpt lat="44.91307" lon="6.65202">
        <ele>1870</ele>
        <time>2022-08-07T18:21:50+0200</time>
      </trkpt>
      <trkpt lat="44.91311" lon="6.65215">
        <ele>1867.2</ele>
        <time>2022-08-07T18:21:52+0200</time>
      </trkpt>
      <trkpt lat="44.91314" lon="6.65224">
        <ele>1865.7</ele>
        <time>2022-08-07T18:21:53+0200</time>
      </trkpt>
      <trkpt lat="44.91319" lon="6.65231">
        <ele>1865.8</ele>
        <time>2022-08-07T18:21:54+0200</time>
      </trkpt>
      <trkpt lat="44.91323" lon="6.65241">
        <ele>1864.3</ele>
        <time>2022-08-07T18:21:56+0200</time>
      </trkpt>
      <trkpt lat="44.91324" lon="6.65254">
        <ele>1861.4</ele>
        <time>2022-08-07T18:21:58+0200</time>
      </trkpt>
      <trkpt lat="44.9133" lon="6.65262">
        <ele>1861.8</ele>
        <time>2022-08-07T18:22:00+0200</time>
      </trkpt>
      <trkpt lat="44.91333" lon="6.65274">
        <ele>1860.5</ele>
        <time>2022-08-07T18:22:02+0200</time>
      </trkpt>
      <trkpt lat="44.91333" lon="6.65284">
        <ele>1858.6</ele>
        <time>2022-08-07T18:22:04+0200</time>
      </trkpt>
      <trkpt lat="44.91336" lon="6.65289">
        <ele>1858.7</ele>
        <time>2022-08-07T18:22:08+0200</time>
      </trkpt>
      <trkpt lat="44.91341" lon="6.65297">
        <ele>1858.7</ele>
        <time>2022-08-07T18:22:10+0200</time>
      </trkpt>
      <trkpt lat="44.91343" lon="6.65303">
        <ele>1858.1</ele>
        <time>2022-08-07T18:22:13+0200</time>
      </trkpt>
      <trkpt lat="44.91346" lon="6.65309">
        <ele>1857.5</ele>
        <time>2022-08-07T18:22:17+0200</time>
      </trkpt>
      <trkpt lat="44.91349" lon="6.65315">
        <ele>1857.2</ele>
        <time>2022-08-07T18:22:22+0200</time>
      </trkpt>
      <trkpt lat="44.91353" lon="6.65318">
        <ele>1857.6</ele>
        <time>2022-08-07T18:22:29+0200</time>
      </trkpt>
      <trkpt lat="44.91349" lon="6.65318">
        <ele>1856</ele>
        <time>2022-08-07T18:22:56+0200</time>
      </trkpt>
      <trkpt lat="44.91344" lon="6.65314">
        <ele>1855.7</ele>
        <time>2022-08-07T18:22:58+0200</time>
      </trkpt>
      <trkpt lat="44.91338" lon="6.65311">
        <ele>1854.2</ele>
        <time>2022-08-07T18:23:01+0200</time>
      </trkpt>
      <trkpt lat="44.91333" lon="6.65305">
        <ele>1854.1</ele>
        <time>2022-08-07T18:23:03+0200</time>
      </trkpt>
      <trkpt lat="44.91328" lon="6.653">
        <ele>1853.4</ele>
        <time>2022-08-07T18:23:05+0200</time>
      </trkpt>
      <trkpt lat="44.9132" lon="6.65298">
        <ele>1851.4</ele>
        <time>2022-08-07T18:23:08+0200</time>
      </trkpt>
      <trkpt lat="44.91314" lon="6.65295">
        <ele>1850</ele>
        <time>2022-08-07T18:23:10+0200</time>
      </trkpt>
      <trkpt lat="44.91305" lon="6.65291">
        <ele>1847.8</ele>
        <time>2022-08-07T18:23:12+0200</time>
      </trkpt>
      <trkpt lat="44.91298" lon="6.65289">
        <ele>1845.6</ele>
        <time>2022-08-07T18:23:13+0200</time>
      </trkpt>
      <trkpt lat="44.91291" lon="6.65285">
        <ele>1843.6</ele>
        <time>2022-08-07T18:23:15+0200</time>
      </trkpt>
      <trkpt lat="44.91286" lon="6.65282">
        <ele>1842.2</ele>
        <time>2022-08-07T18:23:16+0200</time>
      </trkpt>
      <trkpt lat="44.9128" lon="6.65279">
        <ele>1840.7</ele>
        <time>2022-08-07T18:23:17+0200</time>
      </trkpt>
      <trkpt lat="44.91275" lon="6.65277">
        <ele>1839.5</ele>
        <time>2022-08-07T18:23:18+0200</time>
      </trkpt>
      <trkpt lat="44.91267" lon="6.65272">
        <ele>1837.6</ele>
        <time>2022-08-07T18:23:20+0200</time>
      </trkpt>
      <trkpt lat="44.9126" lon="6.6527">
        <ele>1836</ele>
        <time>2022-08-07T18:23:22+0200</time>
      </trkpt>
      <trkpt lat="44.91253" lon="6.65268">
        <ele>1834.5</ele>
        <time>2022-08-07T18:23:24+0200</time>
      </trkpt>
      <trkpt lat="44.91245" lon="6.65266">
        <ele>1832.6</ele>
        <time>2022-08-07T18:23:26+0200</time>
      </trkpt>
      <trkpt lat="44.91239" lon="6.65267">
        <ele>1831.1</ele>
        <time>2022-08-07T18:23:27+0200</time>
      </trkpt>
      <trkpt lat="44.91235" lon="6.65267">
        <ele>1829.8</ele>
        <time>2022-08-07T18:23:28+0200</time>
      </trkpt>
      <trkpt lat="44.91228" lon="6.65269">
        <ele>1827.7</ele>
        <time>2022-08-07T18:23:29+0200</time>
      </trkpt>
      <trkpt lat="44.9122" lon="6.65267">
        <ele>1826.2</ele>
        <time>2022-08-07T18:23:31+0200</time>
      </trkpt>
      <trkpt lat="44.91214" lon="6.65266">
        <ele>1824.9</ele>
        <time>2022-08-07T18:23:32+0200</time>
      </trkpt>
      <trkpt lat="44.91207" lon="6.65267">
        <ele>1823</ele>
        <time>2022-08-07T18:23:33+0200</time>
      </trkpt>
      <trkpt lat="44.91201" lon="6.65271">
        <ele>1820.6</ele>
        <time>2022-08-07T18:23:33+0200</time>
      </trkpt>
      <trkpt lat="44.91196" lon="6.65271">
        <ele>1819.1</ele>
        <time>2022-08-07T18:23:34+0200</time>
      </trkpt>
      <trkpt lat="44.91191" lon="6.65271">
        <ele>1818.2</ele>
        <time>2022-08-07T18:23:35+0200</time>
      </trkpt>
      <trkpt lat="44.91182" lon="6.65273">
        <ele>1815.6</ele>
        <time>2022-08-07T18:23:37+0200</time>
      </trkpt>
      <trkpt lat="44.91177" lon="6.65275">
        <ele>1814.1</ele>
        <time>2022-08-07T18:23:38+0200</time>
      </trkpt>
      <trkpt lat="44.91171" lon="6.65273">
        <ele>1813.1</ele>
        <time>2022-08-07T18:23:39+0200</time>
      </trkpt>
      <trkpt lat="44.91163" lon="6.65271">
        <ele>1812.1</ele>
        <time>2022-08-07T18:23:40+0200</time>
      </trkpt>
      <trkpt lat="44.91156" lon="6.65269">
        <ele>1811.2</ele>
        <time>2022-08-07T18:23:42+0200</time>
      </trkpt>
      <trkpt lat="44.91149" lon="6.65268">
        <ele>1810.3</ele>
        <time>2022-08-07T18:23:43+0200</time>
      </trkpt>
      <trkpt lat="44.91144" lon="6.65265">
        <ele>1810.1</ele>
        <time>2022-08-07T18:23:44+0200</time>
      </trkpt>
      <trkpt lat="44.91138" lon="6.65262">
        <ele>1809.7</ele>
        <time>2022-08-07T18:23:45+0200</time>
      </trkpt>
      <trkpt lat="44.91132" lon="6.65259">
        <ele>1808.9</ele>
        <time>2022-08-07T18:23:45+0200</time>
      </trkpt>
      <trkpt lat="44.91126" lon="6.65258">
        <ele>1807.6</ele>
        <time>2022-08-07T18:23:46+0200</time>
      </trkpt>
      <trkpt lat="44.91121" lon="6.65256">
        <ele>1806.6</ele>
        <time>2022-08-07T18:23:47+0200</time>
      </trkpt>
      <trkpt lat="44.91111" lon="6.65254">
        <ele>1804.2</ele>
        <time>2022-08-07T18:23:49+0200</time>
      </trkpt>
      <trkpt lat="44.91106" lon="6.65251">
        <ele>1803.2</ele>
        <time>2022-08-07T18:23:50+0200</time>
      </trkpt>
      <trkpt lat="44.911" lon="6.65247">
        <ele>1802.2</ele>
        <time>2022-08-07T18:23:51+0200</time>
      </trkpt>
      <trkpt lat="44.91095" lon="6.65245">
        <ele>1800.9</ele>
        <time>2022-08-07T18:23:52+0200</time>
      </trkpt>
      <trkpt lat="44.91089" lon="6.65243">
        <ele>1799.3</ele>
        <time>2022-08-07T18:23:53+0200</time>
      </trkpt>
      <trkpt lat="44.91081" lon="6.65236">
        <ele>1798.1</ele>
        <time>2022-08-07T18:23:54+0200</time>
      </trkpt>
      <trkpt lat="44.91074" lon="6.6523">
        <ele>1795.8</ele>
        <time>2022-08-07T18:23:55+0200</time>
      </trkpt>
      <trkpt lat="44.91069" lon="6.65228">
        <ele>1793.8</ele>
        <time>2022-08-07T18:23:56+0200</time>
      </trkpt>
      <trkpt lat="44.91064" lon="6.65223">
        <ele>1792.3</ele>
        <time>2022-08-07T18:23:58+0200</time>
      </trkpt>
      <trkpt lat="44.91059" lon="6.65218">
        <ele>1790.5</ele>
        <time>2022-08-07T18:23:59+0200</time>
      </trkpt>
      <trkpt lat="44.91054" lon="6.65212">
        <ele>1788.9</ele>
        <time>2022-08-07T18:24:00+0200</time>
      </trkpt>
      <trkpt lat="44.9105" lon="6.65206">
        <ele>1787.8</ele>
        <time>2022-08-07T18:24:01+0200</time>
      </trkpt>
      <trkpt lat="44.91047" lon="6.65201">
        <ele>1786.6</ele>
        <time>2022-08-07T18:24:02+0200</time>
      </trkpt>
      <trkpt lat="44.91042" lon="6.65201">
        <ele>1783.9</ele>
        <time>2022-08-07T18:24:04+0200</time>
      </trkpt>
      <trkpt lat="44.91036" lon="6.65207">
        <ele>1779.6</ele>
        <time>2022-08-07T18:24:07+0200</time>
      </trkpt>
      <trkpt lat="44.9103" lon="6.65211">
        <ele>1775.1</ele>
        <time>2022-08-07T18:24:09+0200</time>
      </trkpt>
      <trkpt lat="44.91025" lon="6.65218">
        <ele>1770.5</ele>
        <time>2022-08-07T18:24:12+0200</time>
      </trkpt>
      <trkpt lat="44.9102" lon="6.65224">
        <ele>1766.5</ele>
        <time>2022-08-07T18:24:14+0200</time>
      </trkpt>
      <trkpt lat="44.91021" lon="6.65233">
        <ele>1765.1</ele>
        <time>2022-08-07T18:24:15+0200</time>
      </trkpt>
      <trkpt lat="44.91022" lon="6.65246">
        <ele>1763.3</ele>
        <time>2022-08-07T18:24:16+0200</time>
      </trkpt>
      <trkpt lat="44.9102" lon="6.65255">
        <ele>1760.8</ele>
        <time>2022-08-07T18:24:17+0200</time>
      </trkpt>
      <trkpt lat="44.9102" lon="6.65263">
        <ele>1759</ele>
        <time>2022-08-07T18:24:18+0200</time>
      </trkpt>
      <trkpt lat="44.91022" lon="6.65273">
        <ele>1757.8</ele>
        <time>2022-08-07T18:24:19+0200</time>
      </trkpt>
      <trkpt lat="44.91022" lon="6.65284">
        <ele>1755.7</ele>
        <time>2022-08-07T18:24:20+0200</time>
      </trkpt>
      <trkpt lat="44.91024" lon="6.65294">
        <ele>1754.1</ele>
        <time>2022-08-07T18:24:21+0200</time>
      </trkpt>
      <trkpt lat="44.91029" lon="6.65304">
        <ele>1753.8</ele>
        <time>2022-08-07T18:24:22+0200</time>
      </trkpt>
      <trkpt lat="44.91034" lon="6.65315">
        <ele>1753.1</ele>
        <time>2022-08-07T18:24:23+0200</time>
      </trkpt>
      <trkpt lat="44.91037" lon="6.65325">
        <ele>1751.4</ele>
        <time>2022-08-07T18:24:24+0200</time>
      </trkpt>
      <trkpt lat="44.91038" lon="6.65332">
        <ele>1749.3</ele>
        <time>2022-08-07T18:24:25+0200</time>
      </trkpt>
      <trkpt lat="44.91037" lon="6.65342">
        <ele>1746.1</ele>
        <time>2022-08-07T18:24:26+0200</time>
      </trkpt>
      <trkpt lat="44.91037" lon="6.65349">
        <ele>1744</ele>
        <time>2022-08-07T18:24:27+0200</time>
      </trkpt>
      <trkpt lat="44.9104" lon="6.6536">
        <ele>1742</ele>
        <time>2022-08-07T18:24:29+0200</time>
      </trkpt>
      <trkpt lat="44.91041" lon="6.65366">
        <ele>1741.4</ele>
        <time>2022-08-07T18:24:30+0200</time>
      </trkpt>
      <trkpt lat="44.91042" lon="6.65377">
        <ele>1739</ele>
        <time>2022-08-07T18:24:32+0200</time>
      </trkpt>
      <trkpt lat="44.91044" lon="6.65382">
        <ele>1739</ele>
        <time>2022-08-07T18:24:33+0200</time>
      </trkpt>
      <trkpt lat="44.91048" lon="6.65391">
        <ele>1738.9</ele>
        <time>2022-08-07T18:24:34+0200</time>
      </trkpt>
      <trkpt lat="44.91053" lon="6.65401">
        <ele>1738.3</ele>
        <time>2022-08-07T18:24:35+0200</time>
      </trkpt>
      <trkpt lat="44.91054" lon="6.65411">
        <ele>1735.6</ele>
        <time>2022-08-07T18:24:36+0200</time>
      </trkpt>
      <trkpt lat="44.91053" lon="6.65424">
        <ele>1732.2</ele>
        <time>2022-08-07T18:24:37+0200</time>
      </trkpt>
      <trkpt lat="44.91049" lon="6.65435">
        <ele>1728.2</ele>
        <time>2022-08-07T18:24:38+0200</time>
      </trkpt>
      <trkpt lat="44.91049" lon="6.65441">
        <ele>1726.4</ele>
        <time>2022-08-07T18:24:39+0200</time>
      </trkpt>
      <trkpt lat="44.9105" lon="6.65449">
        <ele>1725.7</ele>
        <time>2022-08-07T18:24:41+0200</time>
      </trkpt>
      <trkpt lat="44.91052" lon="6.65459">
        <ele>1724.8</ele>
        <time>2022-08-07T18:24:43+0200</time>
      </trkpt>
      <trkpt lat="44.91055" lon="6.65466">
        <ele>1724.8</ele>
        <time>2022-08-07T18:24:44+0200</time>
      </trkpt>
      <trkpt lat="44.91058" lon="6.65472">
        <ele>1724.3</ele>
        <time>2022-08-07T18:24:45+0200</time>
      </trkpt>
      <trkpt lat="44.91061" lon="6.65479">
        <ele>1722.1</ele>
        <time>2022-08-07T18:24:50+0200</time>
      </trkpt>
      <trkpt lat="44.91064" lon="6.65484">
        <ele>1720.2</ele>
        <time>2022-08-07T18:24:54+0200</time>
      </trkpt>
      <trkpt lat="44.91065" lon="6.6549">
        <ele>1717.6</ele>
        <time>2022-08-07T18:25:03+0200</time>
      </trkpt>
      <trkpt lat="44.9106" lon="6.65492">
        <ele>1717.9</ele>
        <time>2022-08-07T18:25:26+0200</time>
      </trkpt>
      <trkpt lat="44.91054" lon="6.65486">
        <ele>1719.2</ele>
        <time>2022-08-07T18:25:29+0200</time>
      </trkpt>
      <trkpt lat="44.91048" lon="6.65477">
        <ele>1718.8</ele>
        <time>2022-08-07T18:25:31+0200</time>
      </trkpt>
      <trkpt lat="44.91045" lon="6.65466">
        <ele>1719.8</ele>
        <time>2022-08-07T18:25:33+0200</time>
      </trkpt>
      <trkpt lat="44.91039" lon="6.65462">
        <ele>1717.8</ele>
        <time>2022-08-07T18:25:35+0200</time>
      </trkpt>
      <trkpt lat="44.91032" lon="6.65455">
        <ele>1716.1</ele>
        <time>2022-08-07T18:25:37+0200</time>
      </trkpt>
      <trkpt lat="44.91029" lon="6.6545">
        <ele>1715.4</ele>
        <time>2022-08-07T18:25:38+0200</time>
      </trkpt>
      <trkpt lat="44.91024" lon="6.65444">
        <ele>1714.1</ele>
        <time>2022-08-07T18:25:39+0200</time>
      </trkpt>
      <trkpt lat="44.9102" lon="6.65439">
        <ele>1713.3</ele>
        <time>2022-08-07T18:25:41+0200</time>
      </trkpt>
      <trkpt lat="44.91016" lon="6.65434">
        <ele>1712.2</ele>
        <time>2022-08-07T18:25:42+0200</time>
      </trkpt>
      <trkpt lat="44.91013" lon="6.65429">
        <ele>1712</ele>
        <time>2022-08-07T18:25:43+0200</time>
      </trkpt>
      <trkpt lat="44.91011" lon="6.65423">
        <ele>1712.3</ele>
        <time>2022-08-07T18:25:44+0200</time>
      </trkpt>
      <trkpt lat="44.91005" lon="6.65418">
        <ele>1710.4</ele>
        <time>2022-08-07T18:25:45+0200</time>
      </trkpt>
      <trkpt lat="44.91001" lon="6.65411">
        <ele>1709.8</ele>
        <time>2022-08-07T18:25:46+0200</time>
      </trkpt>
      <trkpt lat="44.90996" lon="6.65401">
        <ele>1710</ele>
        <time>2022-08-07T18:25:47+0200</time>
      </trkpt>
      <trkpt lat="44.90992" lon="6.65393">
        <ele>1709.9</ele>
        <time>2022-08-07T18:25:48+0200</time>
      </trkpt>
      <trkpt lat="44.90988" lon="6.65389">
        <ele>1709</ele>
        <time>2022-08-07T18:25:49+0200</time>
      </trkpt>
      <trkpt lat="44.90984" lon="6.65387">
        <ele>1707.1</ele>
        <time>2022-08-07T18:25:50+0200</time>
      </trkpt>
      <trkpt lat="44.90973" lon="6.65379">
        <ele>1703.1</ele>
        <time>2022-08-07T18:25:53+0200</time>
      </trkpt>
      <trkpt lat="44.90969" lon="6.65374">
        <ele>1701.4</ele>
        <time>2022-08-07T18:25:54+0200</time>
      </trkpt>
      <trkpt lat="44.90966" lon="6.65367">
        <ele>1700.4</ele>
        <time>2022-08-07T18:25:55+0200</time>
      </trkpt>
      <trkpt lat="44.9096" lon="6.65355">
        <ele>1699.3</ele>
        <time>2022-08-07T18:25:57+0200</time>
      </trkpt>
      <trkpt lat="44.90955" lon="6.6535">
        <ele>1697.4</ele>
        <time>2022-08-07T18:25:59+0200</time>
      </trkpt>
      <trkpt lat="44.90948" lon="6.65345">
        <ele>1694.1</ele>
        <time>2022-08-07T18:26:02+0200</time>
      </trkpt>
      <trkpt lat="44.90944" lon="6.6534">
        <ele>1692.9</ele>
        <time>2022-08-07T18:26:04+0200</time>
      </trkpt>
      <trkpt lat="44.90938" lon="6.65335">
        <ele>1689.7</ele>
        <time>2022-08-07T18:26:06+0200</time>
      </trkpt>
      <trkpt lat="44.90935" lon="6.65331">
        <ele>1688.1</ele>
        <time>2022-08-07T18:26:09+0200</time>
      </trkpt>
      <trkpt lat="44.90929" lon="6.65331">
        <ele>1683.6</ele>
        <time>2022-08-07T18:26:16+0200</time>
      </trkpt>
      <trkpt lat="44.90927" lon="6.65338">
        <ele>1680.2</ele>
        <time>2022-08-07T18:26:18+0200</time>
      </trkpt>
      <trkpt lat="44.90924" lon="6.65345">
        <ele>1676.1</ele>
        <time>2022-08-07T18:26:20+0200</time>
      </trkpt>
      <trkpt lat="44.90921" lon="6.65353">
        <ele>1671.4</ele>
        <time>2022-08-07T18:26:22+0200</time>
      </trkpt>
      <trkpt lat="44.90918" lon="6.65357">
        <ele>1667.8</ele>
        <time>2022-08-07T18:26:24+0200</time>
      </trkpt>
      <trkpt lat="44.90915" lon="6.65351">
        <ele>1667.5</ele>
        <time>2022-08-07T18:26:31+0200</time>
      </trkpt>
      <trkpt lat="44.9091" lon="6.65345">
        <ele>1664.6</ele>
        <time>2022-08-07T18:26:33+0200</time>
      </trkpt>
      <trkpt lat="44.90905" lon="6.65337">
        <ele>1663.3</ele>
        <time>2022-08-07T18:26:35+0200</time>
      </trkpt>
      <trkpt lat="44.90902" lon="6.65332">
        <ele>1662.4</ele>
        <time>2022-08-07T18:26:36+0200</time>
      </trkpt>
      <trkpt lat="44.90897" lon="6.65322">
        <ele>1660.6</ele>
        <time>2022-08-07T18:26:38+0200</time>
      </trkpt>
      <trkpt lat="44.90894" lon="6.65317">
        <ele>1659.6</ele>
        <time>2022-08-07T18:26:39+0200</time>
      </trkpt>
      <trkpt lat="44.90888" lon="6.65309">
        <ele>1656.6</ele>
        <time>2022-08-07T18:26:41+0200</time>
      </trkpt>
      <trkpt lat="44.90882" lon="6.65301">
        <ele>1654.5</ele>
        <time>2022-08-07T18:26:43+0200</time>
      </trkpt>
      <trkpt lat="44.90878" lon="6.653">
        <ele>1651.6</ele>
        <time>2022-08-07T18:26:47+0200</time>
      </trkpt>
      <trkpt lat="44.90874" lon="6.65303">
        <ele>1647.8</ele>
        <time>2022-08-07T18:26:53+0200</time>
      </trkpt>
      <trkpt lat="44.90873" lon="6.6531">
        <ele>1645.6</ele>
        <time>2022-08-07T18:27:09+0200</time>
      </trkpt>
      <trkpt lat="44.90872" lon="6.65316">
        <ele>1643.9</ele>
        <time>2022-08-07T18:27:12+0200</time>
      </trkpt>
      <trkpt lat="44.9087" lon="6.65322">
        <ele>1640.8</ele>
        <time>2022-08-07T18:27:14+0200</time>
      </trkpt>
      <trkpt lat="44.90869" lon="6.6533">
        <ele>1638.7</ele>
        <time>2022-08-07T18:27:16+0200</time>
      </trkpt>
      <trkpt lat="44.90865" lon="6.65327">
        <ele>1636.1</ele>
        <time>2022-08-07T18:27:23+0200</time>
      </trkpt>
      <trkpt lat="44.90859" lon="6.6532">
        <ele>1633.3</ele>
        <time>2022-08-07T18:27:25+0200</time>
      </trkpt>
      <trkpt lat="44.90853" lon="6.65315">
        <ele>1630.3</ele>
        <time>2022-08-07T18:27:27+0200</time>
      </trkpt>
      <trkpt lat="44.9085" lon="6.65308">
        <ele>1629.4</ele>
        <time>2022-08-07T18:27:30+0200</time>
      </trkpt>
      <trkpt lat="44.90849" lon="6.65302">
        <ele>1630.3</ele>
        <time>2022-08-07T18:27:33+0200</time>
      </trkpt>
      <trkpt lat="44.90844" lon="6.65301">
        <ele>1626.6</ele>
        <time>2022-08-07T18:27:36+0200</time>
      </trkpt>
      <trkpt lat="44.90842" lon="6.65307">
        <ele>1624.1</ele>
        <time>2022-08-07T18:27:38+0200</time>
      </trkpt>
      <trkpt lat="44.90841" lon="6.65316">
        <ele>1621.4</ele>
        <time>2022-08-07T18:27:40+0200</time>
      </trkpt>
      <trkpt lat="44.90834" lon="6.65319">
        <ele>1615.5</ele>
        <time>2022-08-07T18:27:42+0200</time>
      </trkpt>
      <trkpt lat="44.90831" lon="6.65327">
        <ele>1611.6</ele>
        <time>2022-08-07T18:27:44+0200</time>
      </trkpt>
      <trkpt lat="44.90832" lon="6.65336">
        <ele>1610.3</ele>
        <time>2022-08-07T18:27:46+0200</time>
      </trkpt>
      <trkpt lat="44.90833" lon="6.65343">
        <ele>1609.9</ele>
        <time>2022-08-07T18:27:47+0200</time>
      </trkpt>
      <trkpt lat="44.90836" lon="6.65349">
        <ele>1610.8</ele>
        <time>2022-08-07T18:27:48+0200</time>
      </trkpt>
      <trkpt lat="44.9084" lon="6.65359">
        <ele>1611.4</ele>
        <time>2022-08-07T18:27:50+0200</time>
      </trkpt>
      <trkpt lat="44.90842" lon="6.65365">
        <ele>1610.6</ele>
        <time>2022-08-07T18:27:51+0200</time>
      </trkpt>
      <trkpt lat="44.90842" lon="6.65372">
        <ele>1608.1</ele>
        <time>2022-08-07T18:27:52+0200</time>
      </trkpt>
      <trkpt lat="44.90841" lon="6.6538">
        <ele>1604.8</ele>
        <time>2022-08-07T18:27:53+0200</time>
      </trkpt>
      <trkpt lat="44.9084" lon="6.65387">
        <ele>1601.5</ele>
        <time>2022-08-07T18:27:54+0200</time>
      </trkpt>
      <trkpt lat="44.90837" lon="6.65397">
        <ele>1597.3</ele>
        <time>2022-08-07T18:27:56+0200</time>
      </trkpt>
      <trkpt lat="44.90835" lon="6.6541">
        <ele>1592.4</ele>
        <time>2022-08-07T18:27:58+0200</time>
      </trkpt>
      <trkpt lat="44.90835" lon="6.65422">
        <ele>1589.4</ele>
        <time>2022-08-07T18:28:00+0200</time>
      </trkpt>
      <trkpt lat="44.90837" lon="6.65431">
        <ele>1589</ele>
        <time>2022-08-07T18:28:01+0200</time>
      </trkpt>
      <trkpt lat="44.90837" lon="6.65441">
        <ele>1587.3</ele>
        <time>2022-08-07T18:28:02+0200</time>
      </trkpt>
      <trkpt lat="44.9084" lon="6.65451">
        <ele>1587.3</ele>
        <time>2022-08-07T18:28:03+0200</time>
      </trkpt>
      <trkpt lat="44.90841" lon="6.65459">
        <ele>1586.5</ele>
        <time>2022-08-07T18:28:04+0200</time>
      </trkpt>
      <trkpt lat="44.90844" lon="6.65469">
        <ele>1586</ele>
        <time>2022-08-07T18:28:05+0200</time>
      </trkpt>
      <trkpt lat="44.90846" lon="6.65475">
        <ele>1585.7</ele>
        <time>2022-08-07T18:28:06+0200</time>
      </trkpt>
      <trkpt lat="44.90839" lon="6.65472">
        <ele>1582.5</ele>
        <time>2022-08-07T18:28:13+0200</time>
      </trkpt>
      <trkpt lat="44.90834" lon="6.65465">
        <ele>1580.8</ele>
        <time>2022-08-07T18:28:15+0200</time>
      </trkpt>
      <trkpt lat="44.9083" lon="6.65457">
        <ele>1579.3</ele>
        <time>2022-08-07T18:28:17+0200</time>
      </trkpt>
      <trkpt lat="44.90824" lon="6.65448">
        <ele>1577.3</ele>
        <time>2022-08-07T18:28:19+0200</time>
      </trkpt>
      <trkpt lat="44.90823" lon="6.65441">
        <ele>1577.7</ele>
        <time>2022-08-07T18:28:21+0200</time>
      </trkpt>
      <trkpt lat="44.90818" lon="6.65441">
        <ele>1574.3</ele>
        <time>2022-08-07T18:28:23+0200</time>
      </trkpt>
      <trkpt lat="44.9081" lon="6.65439">
        <ele>1569.1</ele>
        <time>2022-08-07T18:28:25+0200</time>
      </trkpt>
      <trkpt lat="44.90806" lon="6.65435">
        <ele>1567.6</ele>
        <time>2022-08-07T18:28:26+0200</time>
      </trkpt>
      <trkpt lat="44.908" lon="6.65428">
        <ele>1564.6</ele>
        <time>2022-08-07T18:28:28+0200</time>
      </trkpt>
      <trkpt lat="44.90792" lon="6.65421">
        <ele>1560.9</ele>
        <time>2022-08-07T18:28:30+0200</time>
      </trkpt>
      <trkpt lat="44.90789" lon="6.65415">
        <ele>1561</ele>
        <time>2022-08-07T18:28:31+0200</time>
      </trkpt>
      <trkpt lat="44.90787" lon="6.65409">
        <ele>1562</ele>
        <time>2022-08-07T18:28:32+0200</time>
      </trkpt>
      <trkpt lat="44.90783" lon="6.65401">
        <ele>1562</ele>
        <time>2022-08-07T18:28:34+0200</time>
      </trkpt>
      <trkpt lat="44.9078" lon="6.65395">
        <ele>1562.1</ele>
        <time>2022-08-07T18:28:38+0200</time>
      </trkpt>
      <trkpt lat="44.90776" lon="6.65389">
        <ele>1561.8</ele>
        <time>2022-08-07T18:28:40+0200</time>
      </trkpt>
      <trkpt lat="44.90774" lon="6.65382">
        <ele>1560.7</ele>
        <time>2022-08-07T18:28:42+0200</time>
      </trkpt>
      <trkpt lat="44.90773" lon="6.65375">
        <ele>1560.2</ele>
        <time>2022-08-07T18:28:44+0200</time>
      </trkpt>
      <trkpt lat="44.90774" lon="6.65367">
        <ele>1562.1</ele>
        <time>2022-08-07T18:28:46+0200</time>
      </trkpt>
      <trkpt lat="44.9077" lon="6.6536">
        <ele>1559.9</ele>
        <time>2022-08-07T18:28:48+0200</time>
      </trkpt>
      <trkpt lat="44.90766" lon="6.65349">
        <ele>1558.2</ele>
        <time>2022-08-07T18:28:50+0200</time>
      </trkpt>
      <trkpt lat="44.90764" lon="6.65338">
        <ele>1557.9</ele>
        <time>2022-08-07T18:28:52+0200</time>
      </trkpt>
      <trkpt lat="44.90761" lon="6.65331">
        <ele>1556.8</ele>
        <time>2022-08-07T18:28:53+0200</time>
      </trkpt>
      <trkpt lat="44.9076" lon="6.65324">
        <ele>1556.7</ele>
        <time>2022-08-07T18:28:54+0200</time>
      </trkpt>
      <trkpt lat="44.90758" lon="6.65316">
        <ele>1556.4</ele>
        <time>2022-08-07T18:28:55+0200</time>
      </trkpt>
      <trkpt lat="44.90756" lon="6.65305">
        <ele>1556.5</ele>
        <time>2022-08-07T18:28:57+0200</time>
      </trkpt>
      <trkpt lat="44.90756" lon="6.65298">
        <ele>1556</ele>
        <time>2022-08-07T18:28:58+0200</time>
      </trkpt>
      <trkpt lat="44.90753" lon="6.65293">
        <ele>1553.2</ele>
        <time>2022-08-07T18:29:00+0200</time>
      </trkpt>
      <trkpt lat="44.90746" lon="6.65293">
        <ele>1548.1</ele>
        <time>2022-08-07T18:29:02+0200</time>
      </trkpt>
      <trkpt lat="44.90738" lon="6.65292">
        <ele>1542.6</ele>
        <time>2022-08-07T18:29:04+0200</time>
      </trkpt>
      <trkpt lat="44.90731" lon="6.65293">
        <ele>1537.6</ele>
        <time>2022-08-07T18:29:06+0200</time>
      </trkpt>
      <trkpt lat="44.90727" lon="6.65294">
        <ele>1534.3</ele>
        <time>2022-08-07T18:29:07+0200</time>
      </trkpt>
      <trkpt lat="44.90721" lon="6.65291">
        <ele>1531.1</ele>
        <time>2022-08-07T18:29:08+0200</time>
      </trkpt>
      <trkpt lat="44.90717" lon="6.65282">
        <ele>1532.4</ele>
        <time>2022-08-07T18:29:09+0200</time>
      </trkpt>
      <trkpt lat="44.90715" lon="6.65275">
        <ele>1534.2</ele>
        <time>2022-08-07T18:29:10+0200</time>
      </trkpt>
      <trkpt lat="44.90713" lon="6.6527">
        <ele>1536</ele>
        <time>2022-08-07T18:29:11+0200</time>
      </trkpt>
      <trkpt lat="44.90708" lon="6.65266">
        <ele>1536.6</ele>
        <time>2022-08-07T18:29:12+0200</time>
      </trkpt>
      <trkpt lat="44.90704" lon="6.65263">
        <ele>1536.5</ele>
        <time>2022-08-07T18:29:13+0200</time>
      </trkpt>
      <trkpt lat="44.90698" lon="6.65257">
        <ele>1536.6</ele>
        <time>2022-08-07T18:29:15+0200</time>
      </trkpt>
      <trkpt lat="44.90694" lon="6.65254">
        <ele>1535.9</ele>
        <time>2022-08-07T18:29:17+0200</time>
      </trkpt>
      <trkpt lat="44.90687" lon="6.65252">
        <ele>1532.9</ele>
        <time>2022-08-07T18:29:19+0200</time>
      </trkpt>
      <trkpt lat="44.9068" lon="6.65248">
        <ele>1531.1</ele>
        <time>2022-08-07T18:29:21+0200</time>
      </trkpt>
      <trkpt lat="44.90671" lon="6.65243">
        <ele>1528.3</ele>
        <time>2022-08-07T18:29:23+0200</time>
      </trkpt>
      <trkpt lat="44.90664" lon="6.65235">
        <ele>1528.2</ele>
        <time>2022-08-07T18:29:25+0200</time>
      </trkpt>
      <trkpt lat="44.90657" lon="6.65229">
        <ele>1528</ele>
        <time>2022-08-07T18:29:27+0200</time>
      </trkpt>
      <trkpt lat="44.90647" lon="6.65223">
        <ele>1525.6</ele>
        <time>2022-08-07T18:29:29+0200</time>
      </trkpt>
      <trkpt lat="44.9064" lon="6.6522">
        <ele>1523.4</ele>
        <time>2022-08-07T18:29:31+0200</time>
      </trkpt>
      <trkpt lat="44.90631" lon="6.65219">
        <ele>1519.3</ele>
        <time>2022-08-07T18:29:33+0200</time>
      </trkpt>
      <trkpt lat="44.90627" lon="6.65219">
        <ele>1516.8</ele>
        <time>2022-08-07T18:29:34+0200</time>
      </trkpt>
      <trkpt lat="44.90622" lon="6.65215">
        <ele>1515.8</ele>
        <time>2022-08-07T18:29:35+0200</time>
      </trkpt>
      <trkpt lat="44.90617" lon="6.65211">
        <ele>1514.6</ele>
        <time>2022-08-07T18:29:36+0200</time>
      </trkpt>
      <trkpt lat="44.90612" lon="6.65207">
        <ele>1513.6</ele>
        <time>2022-08-07T18:29:37+0200</time>
      </trkpt>
      <trkpt lat="44.90608" lon="6.65204">
        <ele>1512.4</ele>
        <time>2022-08-07T18:29:38+0200</time>
      </trkpt>
      <trkpt lat="44.90602" lon="6.65197">
        <ele>1511.4</ele>
        <time>2022-08-07T18:29:40+0200</time>
      </trkpt>
      <trkpt lat="44.90595" lon="6.65189">
        <ele>1510</ele>
        <time>2022-08-07T18:29:42+0200</time>
      </trkpt>
      <trkpt lat="44.90589" lon="6.65184">
        <ele>1507.5</ele>
        <time>2022-08-07T18:29:44+0200</time>
      </trkpt>
      <trkpt lat="44.90584" lon="6.65179">
        <ele>1506</ele>
        <time>2022-08-07T18:29:46+0200</time>
      </trkpt>
      <trkpt lat="44.9058" lon="6.6517">
        <ele>1505.6</ele>
        <time>2022-08-07T18:29:48+0200</time>
      </trkpt>
      <trkpt lat="44.90575" lon="6.65162">
        <ele>1504</ele>
        <time>2022-08-07T18:29:50+0200</time>
      </trkpt>
      <trkpt lat="44.90571" lon="6.65154">
        <ele>1502.4</ele>
        <time>2022-08-07T18:29:52+0200</time>
      </trkpt>
      <trkpt lat="44.90566" lon="6.65144">
        <ele>1500.2</ele>
        <time>2022-08-07T18:29:54+0200</time>
      </trkpt>
      <trkpt lat="44.90562" lon="6.65136">
        <ele>1497.7</ele>
        <time>2022-08-07T18:29:57+0200</time>
      </trkpt>
      <trkpt lat="44.90559" lon="6.6513">
        <ele>1495.4</ele>
        <time>2022-08-07T18:29:58+0200</time>
      </trkpt>
      <trkpt lat="44.90556" lon="6.65119">
        <ele>1493.3</ele>
        <time>2022-08-07T18:30:00+0200</time>
      </trkpt>
      <trkpt lat="44.90554" lon="6.65111">
        <ele>1492.4</ele>
        <time>2022-08-07T18:30:02+0200</time>
      </trkpt>
      <trkpt lat="44.90554" lon="6.65101">
        <ele>1491</ele>
        <time>2022-08-07T18:30:04+0200</time>
      </trkpt>
      <trkpt lat="44.90554" lon="6.65094">
        <ele>1489.8</ele>
        <time>2022-08-07T18:30:05+0200</time>
      </trkpt>
      <trkpt lat="44.90551" lon="6.65082">
        <ele>1486.5</ele>
        <time>2022-08-07T18:30:07+0200</time>
      </trkpt>
      <trkpt lat="44.9055" lon="6.65075">
        <ele>1485</ele>
        <time>2022-08-07T18:30:08+0200</time>
      </trkpt>
      <trkpt lat="44.90551" lon="6.65065">
        <ele>1484</ele>
        <time>2022-08-07T18:30:10+0200</time>
      </trkpt>
      <trkpt lat="44.9055" lon="6.65059">
        <ele>1482.9</ele>
        <time>2022-08-07T18:30:12+0200</time>
      </trkpt>
      <trkpt lat="44.90543" lon="6.65061">
        <ele>1477.3</ele>
        <time>2022-08-07T18:30:18+0200</time>
      </trkpt>
      <trkpt lat="44.90537" lon="6.65065">
        <ele>1473.3</ele>
        <time>2022-08-07T18:30:20+0200</time>
      </trkpt>
      <trkpt lat="44.90533" lon="6.65068">
        <ele>1470.6</ele>
        <time>2022-08-07T18:30:22+0200</time>
      </trkpt>
      <trkpt lat="44.90528" lon="6.65072">
        <ele>1468.1</ele>
        <time>2022-08-07T18:30:24+0200</time>
      </trkpt>
      <trkpt lat="44.90522" lon="6.65077">
        <ele>1466.6</ele>
        <time>2022-08-07T18:30:26+0200</time>
      </trkpt>
      <trkpt lat="44.90517" lon="6.6508">
        <ele>1464.8</ele>
        <time>2022-08-07T18:30:28+0200</time>
      </trkpt>
      <trkpt lat="44.90512" lon="6.65082">
        <ele>1463.2</ele>
        <time>2022-08-07T18:30:30+0200</time>
      </trkpt>
      <trkpt lat="44.90504" lon="6.65084">
        <ele>1459.9</ele>
        <time>2022-08-07T18:30:32+0200</time>
      </trkpt>
      <trkpt lat="44.90499" lon="6.65086">
        <ele>1458.2</ele>
        <time>2022-08-07T18:30:41+0200</time>
      </trkpt>
      <trkpt lat="44.90495" lon="6.65088">
        <ele>1456.8</ele>
        <time>2022-08-07T18:30:48+0200</time>
      </trkpt>
      <trkpt lat="44.905" lon="6.65082">
        <ele>1457.6</ele>
        <time>2022-08-07T18:30:58+0200</time>
      </trkpt>
      <trkpt lat="44.90504" lon="6.65077">
        <ele>1458</ele>
        <time>2022-08-07T18:31:00+0200</time>
      </trkpt>
      <trkpt lat="44.90506" lon="6.6507">
        <ele>1456.8</ele>
        <time>2022-08-07T18:31:02+0200</time>
      </trkpt>
      <trkpt lat="44.9051" lon="6.65064">
        <ele>1456.9</ele>
        <time>2022-08-07T18:31:04+0200</time>
      </trkpt>
      <trkpt lat="44.90512" lon="6.65055">
        <ele>1455.6</ele>
        <time>2022-08-07T18:31:06+0200</time>
      </trkpt>
      <trkpt lat="44.90513" lon="6.65043">
        <ele>1453.7</ele>
        <time>2022-08-07T18:31:08+0200</time>
      </trkpt>
      <trkpt lat="44.90518" lon="6.65031">
        <ele>1453.7</ele>
        <time>2022-08-07T18:31:10+0200</time>
      </trkpt>
      <trkpt lat="44.90522" lon="6.65022">
        <ele>1454.4</ele>
        <time>2022-08-07T18:31:11+0200</time>
      </trkpt>
      <trkpt lat="44.90523" lon="6.65014">
        <ele>1453.6</ele>
        <time>2022-08-07T18:31:12+0200</time>
      </trkpt>
      <trkpt lat="44.90524" lon="6.65002">
        <ele>1451.7</ele>
        <time>2022-08-07T18:31:13+0200</time>
      </trkpt>
      <trkpt lat="44.90524" lon="6.64993">
        <ele>1449.8</ele>
        <time>2022-08-07T18:31:14+0200</time>
      </trkpt>
      <trkpt lat="44.90524" lon="6.64986">
        <ele>1447.9</ele>
        <time>2022-08-07T18:31:15+0200</time>
      </trkpt>
      <trkpt lat="44.90524" lon="6.64978">
        <ele>1445.8</ele>
        <time>2022-08-07T18:31:16+0200</time>
      </trkpt>
      <trkpt lat="44.90519" lon="6.64964">
        <ele>1442.2</ele>
        <time>2022-08-07T18:31:18+0200</time>
      </trkpt>
      <trkpt lat="44.90518" lon="6.64956">
        <ele>1441.7</ele>
        <time>2022-08-07T18:31:19+0200</time>
      </trkpt>
      <trkpt lat="44.90516" lon="6.64945">
        <ele>1440.8</ele>
        <time>2022-08-07T18:31:20+0200</time>
      </trkpt>
      <trkpt lat="44.90515" lon="6.64935">
        <ele>1441.4</ele>
        <time>2022-08-07T18:31:21+0200</time>
      </trkpt>
      <trkpt lat="44.90514" lon="6.64924">
        <ele>1441.8</ele>
        <time>2022-08-07T18:31:22+0200</time>
      </trkpt>
      <trkpt lat="44.90511" lon="6.64911">
        <ele>1440.7</ele>
        <time>2022-08-07T18:31:23+0200</time>
      </trkpt>
      <trkpt lat="44.90505" lon="6.64898">
        <ele>1437.8</ele>
        <time>2022-08-07T18:31:24+0200</time>
      </trkpt>
      <trkpt lat="44.90502" lon="6.64885">
        <ele>1435.9</ele>
        <time>2022-08-07T18:31:25+0200</time>
      </trkpt>
      <trkpt lat="44.90497" lon="6.64878">
        <ele>1433</ele>
        <time>2022-08-07T18:31:26+0200</time>
      </trkpt>
      <trkpt lat="44.90492" lon="6.64866">
        <ele>1430.4</ele>
        <time>2022-08-07T18:31:27+0200</time>
      </trkpt>
      <trkpt lat="44.90487" lon="6.64851">
        <ele>1427.8</ele>
        <time>2022-08-07T18:31:28+0200</time>
      </trkpt>
      <trkpt lat="44.90484" lon="6.64838">
        <ele>1426.1</ele>
        <time>2022-08-07T18:31:29+0200</time>
      </trkpt>
      <trkpt lat="44.90481" lon="6.64826">
        <ele>1424.4</ele>
        <time>2022-08-07T18:31:30+0200</time>
      </trkpt>
      <trkpt lat="44.90479" lon="6.64813">
        <ele>1422.7</ele>
        <time>2022-08-07T18:31:31+0200</time>
      </trkpt>
      <trkpt lat="44.90477" lon="6.648">
        <ele>1421.2</ele>
        <time>2022-08-07T18:31:32+0200</time>
      </trkpt>
      <trkpt lat="44.90474" lon="6.64792">
        <ele>1419.2</ele>
        <time>2022-08-07T18:31:33+0200</time>
      </trkpt>
      <trkpt lat="44.90473" lon="6.6478">
        <ele>1417.4</ele>
        <time>2022-08-07T18:31:34+0200</time>
      </trkpt>
      <trkpt lat="44.90472" lon="6.64772">
        <ele>1416.3</ele>
        <time>2022-08-07T18:31:35+0200</time>
      </trkpt>
      <trkpt lat="44.90469" lon="6.64764">
        <ele>1414.2</ele>
        <time>2022-08-07T18:31:38+0200</time>
      </trkpt>
      <trkpt lat="44.90463" lon="6.6477">
        <ele>1411.2</ele>
        <time>2022-08-07T18:31:45+0200</time>
      </trkpt>
      <trkpt lat="44.9046" lon="6.6478">
        <ele>1410.4</ele>
        <time>2022-08-07T18:31:47+0200</time>
      </trkpt>
      <trkpt lat="44.90455" lon="6.6478">
        <ele>1407.9</ele>
        <time>2022-08-07T18:31:50+0200</time>
      </trkpt>
      <trkpt lat="44.90455" lon="6.64772">
        <ele>1407</ele>
        <time>2022-08-07T18:31:57+0200</time>
      </trkpt>
      <trkpt lat="44.90455" lon="6.64762">
        <ele>1406.3</ele>
        <time>2022-08-07T18:32:00+0200</time>
      </trkpt>
      <trkpt lat="44.90452" lon="6.64756">
        <ele>1404.5</ele>
        <time>2022-08-07T18:32:02+0200</time>
      </trkpt>
      <trkpt lat="44.90446" lon="6.64759">
        <ele>1401.6</ele>
        <time>2022-08-07T18:32:07+0200</time>
      </trkpt>
      <trkpt lat="44.90443" lon="6.64767">
        <ele>1400.2</ele>
        <time>2022-08-07T18:32:09+0200</time>
      </trkpt>
      <trkpt lat="44.90437" lon="6.64775">
        <ele>1397.9</ele>
        <time>2022-08-07T18:32:11+0200</time>
      </trkpt>
      <trkpt lat="44.90432" lon="6.64778">
        <ele>1395.8</ele>
        <time>2022-08-07T18:32:12+0200</time>
      </trkpt>
      <trkpt lat="44.90428" lon="6.6478">
        <ele>1393.6</ele>
        <time>2022-08-07T18:32:13+0200</time>
      </trkpt>
      <trkpt lat="44.90425" lon="6.64787">
        <ele>1392.4</ele>
        <time>2022-08-07T18:32:15+0200</time>
      </trkpt>
      <trkpt lat="44.90421" lon="6.64779">
        <ele>1390.2</ele>
        <time>2022-08-07T18:32:26+0200</time>
      </trkpt>
      <trkpt lat="44.90421" lon="6.64771">
        <ele>1389.8</ele>
        <time>2022-08-07T18:32:27+0200</time>
      </trkpt>
      <trkpt lat="44.9042" lon="6.6476">
        <ele>1388.3</ele>
        <time>2022-08-07T18:32:29+0200</time>
      </trkpt>
      <trkpt lat="44.90418" lon="6.64754">
        <ele>1386.7</ele>
        <time>2022-08-07T18:32:30+0200</time>
      </trkpt>
      <trkpt lat="44.90413" lon="6.64744">
        <ele>1383.6</ele>
        <time>2022-08-07T18:32:31+0200</time>
      </trkpt>
      <trkpt lat="44.90408" lon="6.64736">
        <ele>1380.8</ele>
        <time>2022-08-07T18:32:32+0200</time>
      </trkpt>
      <trkpt lat="44.90403" lon="6.64726">
        <ele>1378.4</ele>
        <time>2022-08-07T18:32:33+0200</time>
      </trkpt>
      <trkpt lat="44.90399" lon="6.64717">
        <ele>1376.4</ele>
        <time>2022-08-07T18:32:34+0200</time>
      </trkpt>
      <trkpt lat="44.90399" lon="6.64705">
        <ele>1376.5</ele>
        <time>2022-08-07T18:32:35+0200</time>
      </trkpt>
      <trkpt lat="44.90394" lon="6.64697">
        <ele>1374.9</ele>
        <time>2022-08-07T18:32:36+0200</time>
      </trkpt>
      <trkpt lat="44.9039" lon="6.64687">
        <ele>1373.8</ele>
        <time>2022-08-07T18:32:37+0200</time>
      </trkpt>
      <trkpt lat="44.90386" lon="6.64676">
        <ele>1372.8</ele>
        <time>2022-08-07T18:32:38+0200</time>
      </trkpt>
      <trkpt lat="44.90384" lon="6.64669">
        <ele>1372.2</ele>
        <time>2022-08-07T18:32:39+0200</time>
      </trkpt>
      <trkpt lat="44.90383" lon="6.64661">
        <ele>1372</ele>
        <time>2022-08-07T18:32:40+0200</time>
      </trkpt>
      <trkpt lat="44.9038" lon="6.64653">
        <ele>1371.6</ele>
        <time>2022-08-07T18:32:41+0200</time>
      </trkpt>
      <trkpt lat="44.90379" lon="6.64644">
        <ele>1371.5</ele>
        <time>2022-08-07T18:32:42+0200</time>
      </trkpt>
      <trkpt lat="44.90378" lon="6.64637">
        <ele>1371.5</ele>
        <time>2022-08-07T18:32:43+0200</time>
      </trkpt>
      <trkpt lat="44.90376" lon="6.64629">
        <ele>1371.8</ele>
        <time>2022-08-07T18:32:45+0200</time>
      </trkpt>
      <trkpt lat="44.90372" lon="6.64622">
        <ele>1371.5</ele>
        <time>2022-08-07T18:32:47+0200</time>
      </trkpt>
      <trkpt lat="44.9037" lon="6.64613">
        <ele>1371.5</ele>
        <time>2022-08-07T18:32:49+0200</time>
      </trkpt>
      <trkpt lat="44.90368" lon="6.64603">
        <ele>1372.2</ele>
        <time>2022-08-07T18:32:51+0200</time>
      </trkpt>
      <trkpt lat="44.90364" lon="6.64594">
        <ele>1371.8</ele>
        <time>2022-08-07T18:32:53+0200</time>
      </trkpt>
      <trkpt lat="44.90363" lon="6.64586">
        <ele>1372.4</ele>
        <time>2022-08-07T18:32:55+0200</time>
      </trkpt>
      <trkpt lat="44.90361" lon="6.64577">
        <ele>1372.5</ele>
        <time>2022-08-07T18:32:57+0200</time>
      </trkpt>
      <trkpt lat="44.90356" lon="6.64568">
        <ele>1372.1</ele>
        <time>2022-08-07T18:32:59+0200</time>
      </trkpt>
      <trkpt lat="44.90354" lon="6.64558">
        <ele>1372.3</ele>
        <time>2022-08-07T18:33:01+0200</time>
      </trkpt>
      <trkpt lat="44.90352" lon="6.64547">
        <ele>1372.5</ele>
        <time>2022-08-07T18:33:03+0200</time>
      </trkpt>
      <trkpt lat="44.90352" lon="6.6454">
        <ele>1373.1</ele>
        <time>2022-08-07T18:33:04+0200</time>
      </trkpt>
      <trkpt lat="44.9035" lon="6.64534">
        <ele>1373.1</ele>
        <time>2022-08-07T18:33:05+0200</time>
      </trkpt>
      <trkpt lat="44.90349" lon="6.64524">
        <ele>1373.5</ele>
        <time>2022-08-07T18:33:07+0200</time>
      </trkpt>
      <trkpt lat="44.9035" lon="6.64514">
        <ele>1374.3</ele>
        <time>2022-08-07T18:33:09+0200</time>
      </trkpt>
      <trkpt lat="44.9035" lon="6.64505">
        <ele>1375.2</ele>
        <time>2022-08-07T18:33:11+0200</time>
      </trkpt>
      <trkpt lat="44.9035" lon="6.64494">
        <ele>1375.5</ele>
        <time>2022-08-07T18:33:13+0200</time>
      </trkpt>
      <trkpt lat="44.9035" lon="6.64484">
        <ele>1375.9</ele>
        <time>2022-08-07T18:33:15+0200</time>
      </trkpt>
      <trkpt lat="44.90351" lon="6.64473">
        <ele>1376.6</ele>
        <time>2022-08-07T18:33:17+0200</time>
      </trkpt>
      <trkpt lat="44.9035" lon="6.64461">
        <ele>1376.6</ele>
        <time>2022-08-07T18:33:19+0200</time>
      </trkpt>
      <trkpt lat="44.9035" lon="6.64454">
        <ele>1376.7</ele>
        <time>2022-08-07T18:33:20+0200</time>
      </trkpt>
      <trkpt lat="44.9035" lon="6.64444">
        <ele>1377.1</ele>
        <time>2022-08-07T18:33:22+0200</time>
      </trkpt>
      <trkpt lat="44.90352" lon="6.64433">
        <ele>1377.9</ele>
        <time>2022-08-07T18:33:24+0200</time>
      </trkpt>
      <trkpt lat="44.90353" lon="6.64424">
        <ele>1378.5</ele>
        <time>2022-08-07T18:33:26+0200</time>
      </trkpt>
      <trkpt lat="44.90354" lon="6.64414">
        <ele>1379.3</ele>
        <time>2022-08-07T18:33:28+0200</time>
      </trkpt>
      <trkpt lat="44.90356" lon="6.64408">
        <ele>1379.7</ele>
        <time>2022-08-07T18:33:30+0200</time>
      </trkpt>
      <trkpt lat="44.90356" lon="6.644">
        <ele>1379.5</ele>
        <time>2022-08-07T18:33:32+0200</time>
      </trkpt>
      <trkpt lat="44.90359" lon="6.64392">
        <ele>1380.3</ele>
        <time>2022-08-07T18:33:34+0200</time>
      </trkpt>
      <trkpt lat="44.90361" lon="6.64381">
        <ele>1380.7</ele>
        <time>2022-08-07T18:33:36+0200</time>
      </trkpt>
      <trkpt lat="44.90365" lon="6.64372">
        <ele>1381.6</ele>
        <time>2022-08-07T18:33:38+0200</time>
      </trkpt>
      <trkpt lat="44.90368" lon="6.64363">
        <ele>1382.4</ele>
        <time>2022-08-07T18:33:40+0200</time>
      </trkpt>
      <trkpt lat="44.90371" lon="6.64356">
        <ele>1382.8</ele>
        <time>2022-08-07T18:33:42+0200</time>
      </trkpt>
      <trkpt lat="44.90373" lon="6.64349">
        <ele>1383.1</ele>
        <time>2022-08-07T18:33:44+0200</time>
      </trkpt>
      <trkpt lat="44.90377" lon="6.64343">
        <ele>1383.6</ele>
        <time>2022-08-07T18:33:46+0200</time>
      </trkpt>
      <trkpt lat="44.90378" lon="6.64335">
        <ele>1383.4</ele>
        <time>2022-08-07T18:33:48+0200</time>
      </trkpt>
      <trkpt lat="44.90381" lon="6.64328">
        <ele>1383.6</ele>
        <time>2022-08-07T18:33:51+0200</time>
      </trkpt>
      <trkpt lat="44.90385" lon="6.6432">
        <ele>1384</ele>
        <time>2022-08-07T18:33:53+0200</time>
      </trkpt>
      <trkpt lat="44.90388" lon="6.64315">
        <ele>1384.6</ele>
        <time>2022-08-07T18:33:55+0200</time>
      </trkpt>
      <trkpt lat="44.90389" lon="6.64307">
        <ele>1384.4</ele>
        <time>2022-08-07T18:33:57+0200</time>
      </trkpt>
      <trkpt lat="44.90392" lon="6.643">
        <ele>1385</ele>
        <time>2022-08-07T18:33:59+0200</time>
      </trkpt>
      <trkpt lat="44.90395" lon="6.64292">
        <ele>1385.8</ele>
        <time>2022-08-07T18:34:01+0200</time>
      </trkpt>
      <trkpt lat="44.90397" lon="6.64284">
        <ele>1386</ele>
        <time>2022-08-07T18:34:03+0200</time>
      </trkpt>
      <trkpt lat="44.90399" lon="6.64278">
        <ele>1386.2</ele>
        <time>2022-08-07T18:34:05+0200</time>
      </trkpt>
      <trkpt lat="44.90401" lon="6.6427">
        <ele>1386.7</ele>
        <time>2022-08-07T18:34:07+0200</time>
      </trkpt>
      <trkpt lat="44.90403" lon="6.64264">
        <ele>1387.1</ele>
        <time>2022-08-07T18:34:09+0200</time>
      </trkpt>
      <trkpt lat="44.90403" lon="6.64257">
        <ele>1386.8</ele>
        <time>2022-08-07T18:34:11+0200</time>
      </trkpt>
      <trkpt lat="44.90405" lon="6.64249">
        <ele>1386.8</ele>
        <time>2022-08-07T18:34:13+0200</time>
      </trkpt>
      <trkpt lat="44.90406" lon="6.64241">
        <ele>1386.9</ele>
        <time>2022-08-07T18:34:15+0200</time>
      </trkpt>
      <trkpt lat="44.90408" lon="6.64234">
        <ele>1387.8</ele>
        <time>2022-08-07T18:34:17+0200</time>
      </trkpt>
      <trkpt lat="44.90409" lon="6.64225">
        <ele>1387.8</ele>
        <time>2022-08-07T18:34:19+0200</time>
      </trkpt>
      <trkpt lat="44.90409" lon="6.64217">
        <ele>1388</ele>
        <time>2022-08-07T18:34:21+0200</time>
      </trkpt>
      <trkpt lat="44.90408" lon="6.64209">
        <ele>1387.8</ele>
        <time>2022-08-07T18:34:23+0200</time>
      </trkpt>
      <trkpt lat="44.90405" lon="6.64202">
        <ele>1387.1</ele>
        <time>2022-08-07T18:34:25+0200</time>
      </trkpt>
      <trkpt lat="44.90404" lon="6.64194">
        <ele>1387.1</ele>
        <time>2022-08-07T18:34:27+0200</time>
      </trkpt>
      <trkpt lat="44.90402" lon="6.64187">
        <ele>1387.4</ele>
        <time>2022-08-07T18:34:29+0200</time>
      </trkpt>
      <trkpt lat="44.904" lon="6.6418">
        <ele>1388.4</ele>
        <time>2022-08-07T18:34:31+0200</time>
      </trkpt>
      <trkpt lat="44.90399" lon="6.64171">
        <ele>1389.4</ele>
        <time>2022-08-07T18:34:33+0200</time>
      </trkpt>
      <trkpt lat="44.90396" lon="6.64159">
        <ele>1390.2</ele>
        <time>2022-08-07T18:34:35+0200</time>
      </trkpt>
      <trkpt lat="44.90394" lon="6.64149">
        <ele>1390.8</ele>
        <time>2022-08-07T18:34:37+0200</time>
      </trkpt>
      <trkpt lat="44.90396" lon="6.64139">
        <ele>1392.8</ele>
        <time>2022-08-07T18:34:39+0200</time>
      </trkpt>
      <trkpt lat="44.90401" lon="6.64133">
        <ele>1394.1</ele>
        <time>2022-08-07T18:34:41+0200</time>
      </trkpt>
      <trkpt lat="44.90406" lon="6.64129">
        <ele>1395.7</ele>
        <time>2022-08-07T18:34:43+0200</time>
      </trkpt>
      <trkpt lat="44.90411" lon="6.64127">
        <ele>1397.2</ele>
        <time>2022-08-07T18:34:45+0200</time>
      </trkpt>
      <trkpt lat="44.90416" lon="6.64124">
        <ele>1398.6</ele>
        <time>2022-08-07T18:34:47+0200</time>
      </trkpt>
      <trkpt lat="44.90419" lon="6.64118">
        <ele>1398.8</ele>
        <time>2022-08-07T18:34:51+0200</time>
      </trkpt>
      <trkpt lat="44.90422" lon="6.64112">
        <ele>1399.3</ele>
        <time>2022-08-07T18:34:54+0200</time>
      </trkpt>
      <trkpt lat="44.90423" lon="6.64105">
        <ele>1398.2</ele>
        <time>2022-08-07T18:34:57+0200</time>
      </trkpt>
      <trkpt lat="44.90424" lon="6.64098">
        <ele>1397.4</ele>
        <time>2022-08-07T18:34:59+0200</time>
      </trkpt>
      <trkpt lat="44.90426" lon="6.64092">
        <ele>1397.6</ele>
        <time>2022-08-07T18:35:01+0200</time>
      </trkpt>
      <trkpt lat="44.90428" lon="6.64082">
        <ele>1396.6</ele>
        <time>2022-08-07T18:35:03+0200</time>
      </trkpt>
      <trkpt lat="44.90428" lon="6.64075">
        <ele>1395.8</ele>
        <time>2022-08-07T18:35:04+0200</time>
      </trkpt>
      <trkpt lat="44.90427" lon="6.64062">
        <ele>1394</ele>
        <time>2022-08-07T18:35:06+0200</time>
      </trkpt>
      <trkpt lat="44.90429" lon="6.64055">
        <ele>1394</ele>
        <time>2022-08-07T18:35:07+0200</time>
      </trkpt>
      <trkpt lat="44.90432" lon="6.64049">
        <ele>1394.1</ele>
        <time>2022-08-07T18:35:08+0200</time>
      </trkpt>
      <trkpt lat="44.90435" lon="6.64039">
        <ele>1393.9</ele>
        <time>2022-08-07T18:35:10+0200</time>
      </trkpt>
      <trkpt lat="44.90439" lon="6.6403">
        <ele>1394.2</ele>
        <time>2022-08-07T18:35:12+0200</time>
      </trkpt>
      <trkpt lat="44.90442" lon="6.64025">
        <ele>1394.3</ele>
        <time>2022-08-07T18:35:13+0200</time>
      </trkpt>
      <trkpt lat="44.90446" lon="6.64014">
        <ele>1393.3</ele>
        <time>2022-08-07T18:35:15+0200</time>
      </trkpt>
      <trkpt lat="44.90448" lon="6.64007">
        <ele>1392.3</ele>
        <time>2022-08-07T18:35:17+0200</time>
      </trkpt>
      <trkpt lat="44.90454" lon="6.64004">
        <ele>1393.3</ele>
        <time>2022-08-07T18:35:19+0200</time>
      </trkpt>
      <trkpt lat="44.90462" lon="6.64004">
        <ele>1395.1</ele>
        <time>2022-08-07T18:35:21+0200</time>
      </trkpt>
      <trkpt lat="44.90469" lon="6.64003">
        <ele>1396.8</ele>
        <time>2022-08-07T18:35:23+0200</time>
      </trkpt>
      <trkpt lat="44.90475" lon="6.64002">
        <ele>1398.2</ele>
        <time>2022-08-07T18:35:25+0200</time>
      </trkpt>
      <trkpt lat="44.9048" lon="6.63995">
        <ele>1397.9</ele>
        <time>2022-08-07T18:35:27+0200</time>
      </trkpt>
      <trkpt lat="44.9048" lon="6.63989">
        <ele>1396.4</ele>
        <time>2022-08-07T18:35:29+0200</time>
      </trkpt>
      <trkpt lat="44.90483" lon="6.63976">
        <ele>1394.2</ele>
        <time>2022-08-07T18:35:32+0200</time>
      </trkpt>
      <trkpt lat="44.90485" lon="6.6397">
        <ele>1393.4</ele>
        <time>2022-08-07T18:35:33+0200</time>
      </trkpt>
      <trkpt lat="44.90485" lon="6.63963">
        <ele>1391.8</ele>
        <time>2022-08-07T18:35:34+0200</time>
      </trkpt>
      <trkpt lat="44.90486" lon="6.63956">
        <ele>1390.5</ele>
        <time>2022-08-07T18:35:35+0200</time>
      </trkpt>
      <trkpt lat="44.9049" lon="6.63946">
        <ele>1389.3</ele>
        <time>2022-08-07T18:35:36+0200</time>
      </trkpt>
      <trkpt lat="44.90493" lon="6.63938">
        <ele>1389.2</ele>
        <time>2022-08-07T18:35:37+0200</time>
      </trkpt>
      <trkpt lat="44.90496" lon="6.63931">
        <ele>1389.4</ele>
        <time>2022-08-07T18:35:38+0200</time>
      </trkpt>
      <trkpt lat="44.905" lon="6.63926">
        <ele>1390.4</ele>
        <time>2022-08-07T18:35:39+0200</time>
      </trkpt>
      <trkpt lat="44.90504" lon="6.63921">
        <ele>1391.6</ele>
        <time>2022-08-07T18:35:40+0200</time>
      </trkpt>
      <trkpt lat="44.90507" lon="6.63915">
        <ele>1392.2</ele>
        <time>2022-08-07T18:35:41+0200</time>
      </trkpt>
      <trkpt lat="44.90511" lon="6.63903">
        <ele>1392.6</ele>
        <time>2022-08-07T18:35:43+0200</time>
      </trkpt>
      <trkpt lat="44.90514" lon="6.63896">
        <ele>1393.3</ele>
        <time>2022-08-07T18:35:44+0200</time>
      </trkpt>
      <trkpt lat="44.90517" lon="6.6389">
        <ele>1394.4</ele>
        <time>2022-08-07T18:35:45+0200</time>
      </trkpt>
      <trkpt lat="44.90519" lon="6.63882">
        <ele>1394.4</ele>
        <time>2022-08-07T18:35:46+0200</time>
      </trkpt>
      <trkpt lat="44.9052" lon="6.63875">
        <ele>1394.4</ele>
        <time>2022-08-07T18:35:47+0200</time>
      </trkpt>
      <trkpt lat="44.90522" lon="6.63867">
        <ele>1394.2</ele>
        <time>2022-08-07T18:35:48+0200</time>
      </trkpt>
      <trkpt lat="44.90524" lon="6.63861">
        <ele>1394.8</ele>
        <time>2022-08-07T18:35:49+0200</time>
      </trkpt>
      <trkpt lat="44.90526" lon="6.63854">
        <ele>1395.1</ele>
        <time>2022-08-07T18:35:50+0200</time>
      </trkpt>
      <trkpt lat="44.90528" lon="6.63847">
        <ele>1395.5</ele>
        <time>2022-08-07T18:35:51+0200</time>
      </trkpt>
      <trkpt lat="44.90528" lon="6.6384">
        <ele>1395</ele>
        <time>2022-08-07T18:35:52+0200</time>
      </trkpt>
      <trkpt lat="44.90529" lon="6.63833">
        <ele>1394.3</ele>
        <time>2022-08-07T18:35:53+0200</time>
      </trkpt>
      <trkpt lat="44.90533" lon="6.63822">
        <ele>1393.8</ele>
        <time>2022-08-07T18:35:55+0200</time>
      </trkpt>
      <trkpt lat="44.90538" lon="6.63813">
        <ele>1394</ele>
        <time>2022-08-07T18:35:57+0200</time>
      </trkpt>
      <trkpt lat="44.90545" lon="6.63811">
        <ele>1395.5</ele>
        <time>2022-08-07T18:35:59+0200</time>
      </trkpt>
      <trkpt lat="44.90551" lon="6.63812">
        <ele>1397.3</ele>
        <time>2022-08-07T18:36:01+0200</time>
      </trkpt>
      <trkpt lat="44.90557" lon="6.63812">
        <ele>1399</ele>
        <time>2022-08-07T18:36:03+0200</time>
      </trkpt>
      <trkpt lat="44.90562" lon="6.63811">
        <ele>1400</ele>
        <time>2022-08-07T18:36:05+0200</time>
      </trkpt>
      <trkpt lat="44.90568" lon="6.63811">
        <ele>1401.6</ele>
        <time>2022-08-07T18:36:07+0200</time>
      </trkpt>
      <trkpt lat="44.90573" lon="6.63812">
        <ele>1403.2</ele>
        <time>2022-08-07T18:36:09+0200</time>
      </trkpt>
      <trkpt lat="44.90579" lon="6.63813">
        <ele>1404.8</ele>
        <time>2022-08-07T18:36:12+0200</time>
      </trkpt>
      <trkpt lat="44.90586" lon="6.63808">
        <ele>1405.3</ele>
        <time>2022-08-07T18:36:14+0200</time>
      </trkpt>
      <trkpt lat="44.90591" lon="6.63802">
        <ele>1404.8</ele>
        <time>2022-08-07T18:36:17+0200</time>
      </trkpt>
      <trkpt lat="44.90596" lon="6.63798">
        <ele>1404.5</ele>
        <time>2022-08-07T18:36:19+0200</time>
      </trkpt>
      <trkpt lat="44.90601" lon="6.63793">
        <ele>1404.3</ele>
        <time>2022-08-07T18:36:21+0200</time>
      </trkpt>
      <trkpt lat="44.90605" lon="6.63786">
        <ele>1403.2</ele>
        <time>2022-08-07T18:36:23+0200</time>
      </trkpt>
      <trkpt lat="44.90612" lon="6.63779">
        <ele>1402.6</ele>
        <time>2022-08-07T18:36:25+0200</time>
      </trkpt>
      <trkpt lat="44.90616" lon="6.63775">
        <ele>1402.6</ele>
        <time>2022-08-07T18:36:26+0200</time>
      </trkpt>
      <trkpt lat="44.90623" lon="6.63768">
        <ele>1403.2</ele>
        <time>2022-08-07T18:36:28+0200</time>
      </trkpt>
      <trkpt lat="44.90626" lon="6.63763">
        <ele>1402.7</ele>
        <time>2022-08-07T18:36:29+0200</time>
      </trkpt>
      <trkpt lat="44.90631" lon="6.63754">
        <ele>1402.2</ele>
        <time>2022-08-07T18:36:31+0200</time>
      </trkpt>
      <trkpt lat="44.90635" lon="6.63752">
        <ele>1403.1</ele>
        <time>2022-08-07T18:36:32+0200</time>
      </trkpt>
      <trkpt lat="44.90641" lon="6.63744">
        <ele>1403</ele>
        <time>2022-08-07T18:36:34+0200</time>
      </trkpt>
      <trkpt lat="44.90646" lon="6.63738">
        <ele>1403.3</ele>
        <time>2022-08-07T18:36:36+0200</time>
      </trkpt>
      <trkpt lat="44.90649" lon="6.6373">
        <ele>1402.6</ele>
        <time>2022-08-07T18:36:38+0200</time>
      </trkpt>
      <trkpt lat="44.90655" lon="6.63722">
        <ele>1402.5</ele>
        <time>2022-08-07T18:36:40+0200</time>
      </trkpt>
      <trkpt lat="44.9066" lon="6.63716">
        <ele>1403</ele>
        <time>2022-08-07T18:36:42+0200</time>
      </trkpt>
      <trkpt lat="44.90665" lon="6.63712">
        <ele>1403.6</ele>
        <time>2022-08-07T18:36:44+0200</time>
      </trkpt>
      <trkpt lat="44.90669" lon="6.63705">
        <ele>1403.7</ele>
        <time>2022-08-07T18:36:46+0200</time>
      </trkpt>
      <trkpt lat="44.90674" lon="6.637">
        <ele>1404.2</ele>
        <time>2022-08-07T18:36:48+0200</time>
      </trkpt>
      <trkpt lat="44.90679" lon="6.63696">
        <ele>1404.7</ele>
        <time>2022-08-07T18:36:51+0200</time>
      </trkpt>
      <trkpt lat="44.90684" lon="6.63695">
        <ele>1406.2</ele>
        <time>2022-08-07T18:36:53+0200</time>
      </trkpt>
      <trkpt lat="44.90687" lon="6.6369">
        <ele>1406.2</ele>
        <time>2022-08-07T18:36:55+0200</time>
      </trkpt>
      <trkpt lat="44.9069" lon="6.63684">
        <ele>1406</ele>
        <time>2022-08-07T18:36:57+0200</time>
      </trkpt>
      <trkpt lat="44.90695" lon="6.6368">
        <ele>1406.6</ele>
        <time>2022-08-07T18:36:59+0200</time>
      </trkpt>
      <trkpt lat="44.90699" lon="6.63676">
        <ele>1406.9</ele>
        <time>2022-08-07T18:37:01+0200</time>
      </trkpt>
      <trkpt lat="44.90703" lon="6.63669">
        <ele>1406.3</ele>
        <time>2022-08-07T18:37:03+0200</time>
      </trkpt>
      <trkpt lat="44.90708" lon="6.63664">
        <ele>1406.8</ele>
        <time>2022-08-07T18:37:05+0200</time>
      </trkpt>
      <trkpt lat="44.90714" lon="6.63661">
        <ele>1408.1</ele>
        <time>2022-08-07T18:37:07+0200</time>
      </trkpt>
      <trkpt lat="44.90719" lon="6.63659">
        <ele>1409.2</ele>
        <time>2022-08-07T18:37:09+0200</time>
      </trkpt>
      <trkpt lat="44.90724" lon="6.63654">
        <ele>1409.6</ele>
        <time>2022-08-07T18:37:12+0200</time>
      </trkpt>
      <trkpt lat="44.9073" lon="6.63651">
        <ele>1410.7</ele>
        <time>2022-08-07T18:37:14+0200</time>
      </trkpt>
      <trkpt lat="44.90736" lon="6.63646">
        <ele>1411.1</ele>
        <time>2022-08-07T18:37:16+0200</time>
      </trkpt>
      <trkpt lat="44.90742" lon="6.63644">
        <ele>1412.2</ele>
        <time>2022-08-07T18:37:18+0200</time>
      </trkpt>
      <trkpt lat="44.90748" lon="6.63641">
        <ele>1412.9</ele>
        <time>2022-08-07T18:37:20+0200</time>
      </trkpt>
      <trkpt lat="44.90755" lon="6.63637">
        <ele>1413.5</ele>
        <time>2022-08-07T18:37:23+0200</time>
      </trkpt>
      <trkpt lat="44.9076" lon="6.63632">
        <ele>1413.5</ele>
        <time>2022-08-07T18:37:25+0200</time>
      </trkpt>
      <trkpt lat="44.90766" lon="6.63627">
        <ele>1413.3</ele>
        <time>2022-08-07T18:37:27+0200</time>
      </trkpt>
      <trkpt lat="44.9077" lon="6.63624">
        <ele>1413.5</ele>
        <time>2022-08-07T18:37:29+0200</time>
      </trkpt>
      <trkpt lat="44.90776" lon="6.63619">
        <ele>1413.6</ele>
        <time>2022-08-07T18:37:31+0200</time>
      </trkpt>
      <trkpt lat="44.90781" lon="6.63614">
        <ele>1413.2</ele>
        <time>2022-08-07T18:37:34+0200</time>
      </trkpt>
      <trkpt lat="44.90787" lon="6.6361">
        <ele>1413.5</ele>
        <time>2022-08-07T18:37:36+0200</time>
      </trkpt>
      <trkpt lat="44.90792" lon="6.63605">
        <ele>1413.6</ele>
        <time>2022-08-07T18:37:38+0200</time>
      </trkpt>
      <trkpt lat="44.90797" lon="6.63602">
        <ele>1413.6</ele>
        <time>2022-08-07T18:37:40+0200</time>
      </trkpt>
      <trkpt lat="44.90802" lon="6.63599">
        <ele>1413.7</ele>
        <time>2022-08-07T18:37:42+0200</time>
      </trkpt>
      <trkpt lat="44.90809" lon="6.63597">
        <ele>1414.6</ele>
        <time>2022-08-07T18:37:44+0200</time>
      </trkpt>
      <trkpt lat="44.90814" lon="6.63594">
        <ele>1414.8</ele>
        <time>2022-08-07T18:37:46+0200</time>
      </trkpt>
      <trkpt lat="44.90818" lon="6.6359">
        <ele>1414.6</ele>
        <time>2022-08-07T18:37:48+0200</time>
      </trkpt>
      <trkpt lat="44.90823" lon="6.63587">
        <ele>1414.7</ele>
        <time>2022-08-07T18:37:50+0200</time>
      </trkpt>
      <trkpt lat="44.90828" lon="6.63584">
        <ele>1415</ele>
        <time>2022-08-07T18:37:52+0200</time>
      </trkpt>
      <trkpt lat="44.90833" lon="6.63581">
        <ele>1415.3</ele>
        <time>2022-08-07T18:37:54+0200</time>
      </trkpt>
      <trkpt lat="44.9084" lon="6.63579">
        <ele>1416.2</ele>
        <time>2022-08-07T18:37:56+0200</time>
      </trkpt>
      <trkpt lat="44.90847" lon="6.63573">
        <ele>1416.1</ele>
        <time>2022-08-07T18:37:58+0200</time>
      </trkpt>
      <trkpt lat="44.90852" lon="6.63573">
        <ele>1417</ele>
        <time>2022-08-07T18:38:00+0200</time>
      </trkpt>
      <trkpt lat="44.90857" lon="6.63567">
        <ele>1416.4</ele>
        <time>2022-08-07T18:38:02+0200</time>
      </trkpt>
      <trkpt lat="44.90863" lon="6.63563">
        <ele>1416.5</ele>
        <time>2022-08-07T18:38:04+0200</time>
      </trkpt>
      <trkpt lat="44.9087" lon="6.63556">
        <ele>1416.3</ele>
        <time>2022-08-07T18:38:06+0200</time>
      </trkpt>
      <trkpt lat="44.90877" lon="6.63551">
        <ele>1416.5</ele>
        <time>2022-08-07T18:38:08+0200</time>
      </trkpt>
      <trkpt lat="44.90884" lon="6.63547">
        <ele>1417.7</ele>
        <time>2022-08-07T18:38:10+0200</time>
      </trkpt>
      <trkpt lat="44.90889" lon="6.63546">
        <ele>1418.7</ele>
        <time>2022-08-07T18:38:11+0200</time>
      </trkpt>
      <trkpt lat="44.90894" lon="6.63547">
        <ele>1420.3</ele>
        <time>2022-08-07T18:38:13+0200</time>
      </trkpt>
      <trkpt lat="44.90899" lon="6.6354">
        <ele>1420</ele>
        <time>2022-08-07T18:38:15+0200</time>
      </trkpt>
      <trkpt lat="44.90903" lon="6.63534">
        <ele>1419.6</ele>
        <time>2022-08-07T18:38:17+0200</time>
      </trkpt>
      <trkpt lat="44.90905" lon="6.63528">
        <ele>1418.9</ele>
        <time>2022-08-07T18:38:18+0200</time>
      </trkpt>
      <trkpt lat="44.90911" lon="6.63521">
        <ele>1419</ele>
        <time>2022-08-07T18:38:20+0200</time>
      </trkpt>
      <trkpt lat="44.90915" lon="6.63511">
        <ele>1418.5</ele>
        <time>2022-08-07T18:38:22+0200</time>
      </trkpt>
      <trkpt lat="44.9092" lon="6.63504">
        <ele>1418.9</ele>
        <time>2022-08-07T18:38:24+0200</time>
      </trkpt>
      <trkpt lat="44.90924" lon="6.63496">
        <ele>1419.7</ele>
        <time>2022-08-07T18:38:25+0200</time>
      </trkpt>
      <trkpt lat="44.90927" lon="6.63488">
        <ele>1419.9</ele>
        <time>2022-08-07T18:38:28+0200</time>
      </trkpt>
      <trkpt lat="44.90931" lon="6.63481">
        <ele>1420.9</ele>
        <time>2022-08-07T18:38:30+0200</time>
      </trkpt>
      <trkpt lat="44.90934" lon="6.63473">
        <ele>1420.8</ele>
        <time>2022-08-07T18:38:32+0200</time>
      </trkpt>
      <trkpt lat="44.90937" lon="6.63467">
        <ele>1421.5</ele>
        <time>2022-08-07T18:38:34+0200</time>
      </trkpt>
      <trkpt lat="44.90943" lon="6.63459">
        <ele>1422.5</ele>
        <time>2022-08-07T18:38:36+0200</time>
      </trkpt>
      <trkpt lat="44.90948" lon="6.63454">
        <ele>1423.6</ele>
        <time>2022-08-07T18:38:38+0200</time>
      </trkpt>
      <trkpt lat="44.90952" lon="6.63447">
        <ele>1423.9</ele>
        <time>2022-08-07T18:38:40+0200</time>
      </trkpt>
      <trkpt lat="44.90956" lon="6.63441">
        <ele>1424</ele>
        <time>2022-08-07T18:38:42+0200</time>
      </trkpt>
      <trkpt lat="44.9096" lon="6.63436">
        <ele>1424.5</ele>
        <time>2022-08-07T18:38:44+0200</time>
      </trkpt>
      <trkpt lat="44.90964" lon="6.6343">
        <ele>1424.7</ele>
        <time>2022-08-07T18:38:46+0200</time>
      </trkpt>
      <trkpt lat="44.90969" lon="6.63425">
        <ele>1425.4</ele>
        <time>2022-08-07T18:38:48+0200</time>
      </trkpt>
      <trkpt lat="44.90974" lon="6.63419">
        <ele>1425.8</ele>
        <time>2022-08-07T18:38:50+0200</time>
      </trkpt>
      <trkpt lat="44.90979" lon="6.63414">
        <ele>1426.3</ele>
        <time>2022-08-07T18:38:52+0200</time>
      </trkpt>
      <trkpt lat="44.90984" lon="6.6341">
        <ele>1426.6</ele>
        <time>2022-08-07T18:38:54+0200</time>
      </trkpt>
      <trkpt lat="44.90988" lon="6.63404">
        <ele>1426.4</ele>
        <time>2022-08-07T18:38:56+0200</time>
      </trkpt>
      <trkpt lat="44.90992" lon="6.63398">
        <ele>1426</ele>
        <time>2022-08-07T18:38:59+0200</time>
      </trkpt>
      <trkpt lat="44.90997" lon="6.63391">
        <ele>1425.7</ele>
        <time>2022-08-07T18:39:02+0200</time>
      </trkpt>
      <trkpt lat="44.91" lon="6.63387">
        <ele>1425.4</ele>
        <time>2022-08-07T18:39:23+0200</time>
      </trkpt>
      <trkpt lat="44.91003" lon="6.63382">
        <ele>1425.2</ele>
        <time>2022-08-07T18:39:27+0200</time>
      </trkpt>
      <trkpt lat="44.91007" lon="6.63378">
        <ele>1425.1</ele>
        <time>2022-08-07T18:39:30+0200</time>
      </trkpt>
      <trkpt lat="44.91011" lon="6.63375">
        <ele>1425.4</ele>
        <time>2022-08-07T18:39:32+0200</time>
      </trkpt>
      <trkpt lat="44.91017" lon="6.63374">
        <ele>1426.3</ele>
        <time>2022-08-07T18:39:34+0200</time>
      </trkpt>
      <trkpt lat="44.91022" lon="6.63367">
        <ele>1426.1</ele>
        <time>2022-08-07T18:39:37+0200</time>
      </trkpt>
      <trkpt lat="44.91026" lon="6.63363">
        <ele>1426.1</ele>
        <time>2022-08-07T18:39:39+0200</time>
      </trkpt>
      <trkpt lat="44.91033" lon="6.63358">
        <ele>1426.4</ele>
        <time>2022-08-07T18:39:41+0200</time>
      </trkpt>
      <trkpt lat="44.91039" lon="6.63355">
        <ele>1426.8</ele>
        <time>2022-08-07T18:39:43+0200</time>
      </trkpt>
      <trkpt lat="44.91043" lon="6.63351">
        <ele>1426.6</ele>
        <time>2022-08-07T18:39:45+0200</time>
      </trkpt>
      <trkpt lat="44.9105" lon="6.63347">
        <ele>1427</ele>
        <time>2022-08-07T18:39:47+0200</time>
      </trkpt>
      <trkpt lat="44.91056" lon="6.63346">
        <ele>1428.3</ele>
        <time>2022-08-07T18:39:50+0200</time>
      </trkpt>
      <trkpt lat="44.91063" lon="6.63341">
        <ele>1428.4</ele>
        <time>2022-08-07T18:39:52+0200</time>
      </trkpt>
      <trkpt lat="44.91067" lon="6.63335">
        <ele>1428</ele>
        <time>2022-08-07T18:39:54+0200</time>
      </trkpt>
      <trkpt lat="44.91074" lon="6.6333">
        <ele>1427.9</ele>
        <time>2022-08-07T18:39:56+0200</time>
      </trkpt>
      <trkpt lat="44.91081" lon="6.63324">
        <ele>1427.6</ele>
        <time>2022-08-07T18:39:58+0200</time>
      </trkpt>
      <trkpt lat="44.91085" lon="6.63323">
        <ele>1428.7</ele>
        <time>2022-08-07T18:39:59+0200</time>
      </trkpt>
      <trkpt lat="44.91093" lon="6.6332">
        <ele>1429.8</ele>
        <time>2022-08-07T18:40:01+0200</time>
      </trkpt>
      <trkpt lat="44.911" lon="6.63317">
        <ele>1430.6</ele>
        <time>2022-08-07T18:40:03+0200</time>
      </trkpt>
      <trkpt lat="44.91106" lon="6.63313">
        <ele>1430.9</ele>
        <time>2022-08-07T18:40:05+0200</time>
      </trkpt>
      <trkpt lat="44.91113" lon="6.6331">
        <ele>1431.8</ele>
        <time>2022-08-07T18:40:07+0200</time>
      </trkpt>
      <trkpt lat="44.91118" lon="6.63308">
        <ele>1432.3</ele>
        <time>2022-08-07T18:40:09+0200</time>
      </trkpt>
      <trkpt lat="44.91124" lon="6.63305">
        <ele>1432.9</ele>
        <time>2022-08-07T18:40:11+0200</time>
      </trkpt>
      <trkpt lat="44.9113" lon="6.63302">
        <ele>1433.6</ele>
        <time>2022-08-07T18:40:13+0200</time>
      </trkpt>
      <trkpt lat="44.91136" lon="6.63299">
        <ele>1433.9</ele>
        <time>2022-08-07T18:40:15+0200</time>
      </trkpt>
      <trkpt lat="44.91142" lon="6.63295">
        <ele>1434</ele>
        <time>2022-08-07T18:40:17+0200</time>
      </trkpt>
      <trkpt lat="44.91146" lon="6.63291">
        <ele>1433.6</ele>
        <time>2022-08-07T18:40:19+0200</time>
      </trkpt>
      <trkpt lat="44.91152" lon="6.63286">
        <ele>1433.4</ele>
        <time>2022-08-07T18:40:20+0200</time>
      </trkpt>
      <trkpt lat="44.9116" lon="6.63283">
        <ele>1434.6</ele>
        <time>2022-08-07T18:40:22+0200</time>
      </trkpt>
      <trkpt lat="44.91166" lon="6.63279">
        <ele>1435.3</ele>
        <time>2022-08-07T18:40:24+0200</time>
      </trkpt>
      <trkpt lat="44.91173" lon="6.63277">
        <ele>1436.2</ele>
        <time>2022-08-07T18:40:26+0200</time>
      </trkpt>
      <trkpt lat="44.91177" lon="6.63277">
        <ele>1437.7</ele>
        <time>2022-08-07T18:40:27+0200</time>
      </trkpt>
      <trkpt lat="44.91184" lon="6.63278">
        <ele>1440.1</ele>
        <time>2022-08-07T18:40:29+0200</time>
      </trkpt>
      <trkpt lat="44.91189" lon="6.63274">
        <ele>1439.9</ele>
        <time>2022-08-07T18:40:32+0200</time>
      </trkpt>
      <trkpt lat="44.91194" lon="6.63272">
        <ele>1440.5</ele>
        <time>2022-08-07T18:40:33+0200</time>
      </trkpt>
      <trkpt lat="44.91199" lon="6.6327">
        <ele>1441.1</ele>
        <time>2022-08-07T18:40:35+0200</time>
      </trkpt>
      <trkpt lat="44.91202" lon="6.63266">
        <ele>1440.6</ele>
        <time>2022-08-07T18:40:37+0200</time>
      </trkpt>
      <trkpt lat="44.91207" lon="6.63261">
        <ele>1440.4</ele>
        <time>2022-08-07T18:40:39+0200</time>
      </trkpt>
      <trkpt lat="44.91211" lon="6.63257">
        <ele>1440.2</ele>
        <time>2022-08-07T18:40:41+0200</time>
      </trkpt>
      <trkpt lat="44.91217" lon="6.63251">
        <ele>1439.8</ele>
        <time>2022-08-07T18:40:43+0200</time>
      </trkpt>
      <trkpt lat="44.91224" lon="6.63244">
        <ele>1439.6</ele>
        <time>2022-08-07T18:40:45+0200</time>
      </trkpt>
      <trkpt lat="44.9123" lon="6.63237">
        <ele>1438.5</ele>
        <time>2022-08-07T18:40:48+0200</time>
      </trkpt>
      <trkpt lat="44.91234" lon="6.63233">
        <ele>1438.1</ele>
        <time>2022-08-07T18:40:49+0200</time>
      </trkpt>
      <trkpt lat="44.91241" lon="6.63228">
        <ele>1438.6</ele>
        <time>2022-08-07T18:40:51+0200</time>
      </trkpt>
      <trkpt lat="44.91245" lon="6.63225">
        <ele>1438.7</ele>
        <time>2022-08-07T18:40:52+0200</time>
      </trkpt>
      <trkpt lat="44.91253" lon="6.63221">
        <ele>1439.4</ele>
        <time>2022-08-07T18:40:54+0200</time>
      </trkpt>
      <trkpt lat="44.9126" lon="6.63219">
        <ele>1440.4</ele>
        <time>2022-08-07T18:40:56+0200</time>
      </trkpt>
      <trkpt lat="44.91266" lon="6.63218">
        <ele>1441.5</ele>
        <time>2022-08-07T18:40:58+0200</time>
      </trkpt>
      <trkpt lat="44.91271" lon="6.63215">
        <ele>1441.6</ele>
        <time>2022-08-07T18:41:00+0200</time>
      </trkpt>
      <trkpt lat="44.91278" lon="6.63215">
        <ele>1443.4</ele>
        <time>2022-08-07T18:41:02+0200</time>
      </trkpt>
      <trkpt lat="44.91283" lon="6.63212">
        <ele>1443.6</ele>
        <time>2022-08-07T18:41:04+0200</time>
      </trkpt>
      <trkpt lat="44.91288" lon="6.63208">
        <ele>1443.9</ele>
        <time>2022-08-07T18:41:06+0200</time>
      </trkpt>
      <trkpt lat="44.91293" lon="6.63204">
        <ele>1443.3</ele>
        <time>2022-08-07T18:41:08+0200</time>
      </trkpt>
      <trkpt lat="44.91298" lon="6.632">
        <ele>1443.3</ele>
        <time>2022-08-07T18:41:10+0200</time>
      </trkpt>
      <trkpt lat="44.91305" lon="6.63198">
        <ele>1444.4</ele>
        <time>2022-08-07T18:41:12+0200</time>
      </trkpt>
      <trkpt lat="44.9131" lon="6.63192">
        <ele>1443.5</ele>
        <time>2022-08-07T18:41:14+0200</time>
      </trkpt>
      <trkpt lat="44.91316" lon="6.63186">
        <ele>1443.4</ele>
        <time>2022-08-07T18:41:16+0200</time>
      </trkpt>
      <trkpt lat="44.91323" lon="6.6318">
        <ele>1443.4</ele>
        <time>2022-08-07T18:41:18+0200</time>
      </trkpt>
      <trkpt lat="44.9133" lon="6.63174">
        <ele>1444</ele>
        <time>2022-08-07T18:41:20+0200</time>
      </trkpt>
      <trkpt lat="44.91335" lon="6.63168">
        <ele>1443.9</ele>
        <time>2022-08-07T18:41:22+0200</time>
      </trkpt>
      <trkpt lat="44.91341" lon="6.63165">
        <ele>1444.5</ele>
        <time>2022-08-07T18:41:24+0200</time>
      </trkpt>
      <trkpt lat="44.91345" lon="6.63161">
        <ele>1444.9</ele>
        <time>2022-08-07T18:41:26+0200</time>
      </trkpt>
      <trkpt lat="44.91351" lon="6.63157">
        <ele>1445.5</ele>
        <time>2022-08-07T18:41:28+0200</time>
      </trkpt>
      <trkpt lat="44.91357" lon="6.6315">
        <ele>1445.4</ele>
        <time>2022-08-07T18:41:30+0200</time>
      </trkpt>
      <trkpt lat="44.91363" lon="6.63144">
        <ele>1445.7</ele>
        <time>2022-08-07T18:41:32+0200</time>
      </trkpt>
      <trkpt lat="44.91368" lon="6.6314">
        <ele>1446.5</ele>
        <time>2022-08-07T18:41:34+0200</time>
      </trkpt>
      <trkpt lat="44.91372" lon="6.63135">
        <ele>1446.9</ele>
        <time>2022-08-07T18:41:36+0200</time>
      </trkpt>
      <trkpt lat="44.91376" lon="6.63128">
        <ele>1447.2</ele>
        <time>2022-08-07T18:41:39+0200</time>
      </trkpt>
      <trkpt lat="44.91378" lon="6.63121">
        <ele>1446.7</ele>
        <time>2022-08-07T18:41:41+0200</time>
      </trkpt>
      <trkpt lat="44.91381" lon="6.6311">
        <ele>1446.2</ele>
        <time>2022-08-07T18:41:44+0200</time>
      </trkpt>
      <trkpt lat="44.91383" lon="6.631">
        <ele>1446.1</ele>
        <time>2022-08-07T18:41:46+0200</time>
      </trkpt>
      <trkpt lat="44.91386" lon="6.63086">
        <ele>1446.1</ele>
        <time>2022-08-07T18:41:48+0200</time>
      </trkpt>
      <trkpt lat="44.9139" lon="6.63078">
        <ele>1447.3</ele>
        <time>2022-08-07T18:41:50+0200</time>
      </trkpt>
      <trkpt lat="44.91394" lon="6.63069">
        <ele>1448.5</ele>
        <time>2022-08-07T18:41:52+0200</time>
      </trkpt>
      <trkpt lat="44.91399" lon="6.63063">
        <ele>1450.3</ele>
        <time>2022-08-07T18:41:54+0200</time>
      </trkpt>
      <trkpt lat="44.91403" lon="6.63057">
        <ele>1451.7</ele>
        <time>2022-08-07T18:41:56+0200</time>
      </trkpt>
      <trkpt lat="44.91409" lon="6.63056">
        <ele>1454.4</ele>
        <time>2022-08-07T18:41:58+0200</time>
      </trkpt>
      <trkpt lat="44.91414" lon="6.63049">
        <ele>1455.2</ele>
        <time>2022-08-07T18:42:00+0200</time>
      </trkpt>
      <trkpt lat="44.91419" lon="6.6304">
        <ele>1454.8</ele>
        <time>2022-08-07T18:42:02+0200</time>
      </trkpt>
      <trkpt lat="44.91422" lon="6.63031">
        <ele>1453.3</ele>
        <time>2022-08-07T18:42:04+0200</time>
      </trkpt>
      <trkpt lat="44.91427" lon="6.63026">
        <ele>1452.3</ele>
        <time>2022-08-07T18:42:06+0200</time>
      </trkpt>
      <trkpt lat="44.9143" lon="6.63021">
        <ele>1451.2</ele>
        <time>2022-08-07T18:42:08+0200</time>
      </trkpt>
      <trkpt lat="44.91435" lon="6.63018">
        <ele>1450.7</ele>
        <time>2022-08-07T18:42:11+0200</time>
      </trkpt>
      <trkpt lat="44.91441" lon="6.63015">
        <ele>1450.4</ele>
        <time>2022-08-07T18:42:14+0200</time>
      </trkpt>
      <trkpt lat="44.91448" lon="6.63013">
        <ele>1449.8</ele>
        <time>2022-08-07T18:42:17+0200</time>
      </trkpt>
      <trkpt lat="44.91454" lon="6.63014">
        <ele>1450</ele>
        <time>2022-08-07T18:42:19+0200</time>
      </trkpt>
      <trkpt lat="44.91462" lon="6.63014">
        <ele>1449.8</ele>
        <time>2022-08-07T18:42:22+0200</time>
      </trkpt>
      <trkpt lat="44.91467" lon="6.63017">
        <ele>1450.7</ele>
        <time>2022-08-07T18:42:24+0200</time>
      </trkpt>
      <trkpt lat="44.91472" lon="6.6302">
        <ele>1451.7</ele>
        <time>2022-08-07T18:42:26+0200</time>
      </trkpt>
      <trkpt lat="44.91476" lon="6.63024">
        <ele>1452.9</ele>
        <time>2022-08-07T18:42:28+0200</time>
      </trkpt>
      <trkpt lat="44.91481" lon="6.63029">
        <ele>1454.1</ele>
        <time>2022-08-07T18:42:29+0200</time>
      </trkpt>
      <trkpt lat="44.91486" lon="6.63031">
        <ele>1454.5</ele>
        <time>2022-08-07T18:42:31+0200</time>
      </trkpt>
      <trkpt lat="44.91491" lon="6.63033">
        <ele>1454.3</ele>
        <time>2022-08-07T18:42:34+0200</time>
      </trkpt>
      <trkpt lat="44.91496" lon="6.63034">
        <ele>1453.9</ele>
        <time>2022-08-07T18:42:37+0200</time>
      </trkpt>
      <trkpt lat="44.91501" lon="6.63035">
        <ele>1453.6</ele>
        <time>2022-08-07T18:42:39+0200</time>
      </trkpt>
      <trkpt lat="44.91506" lon="6.63033">
        <ele>1453.4</ele>
        <time>2022-08-07T18:42:41+0200</time>
      </trkpt>
      <trkpt lat="44.91512" lon="6.6303">
        <ele>1452.7</ele>
        <time>2022-08-07T18:42:43+0200</time>
      </trkpt>
      <trkpt lat="44.91516" lon="6.63028">
        <ele>1452.3</ele>
        <time>2022-08-07T18:42:45+0200</time>
      </trkpt>
      <trkpt lat="44.91523" lon="6.63024">
        <ele>1451.2</ele>
        <time>2022-08-07T18:42:47+0200</time>
      </trkpt>
      <trkpt lat="44.91529" lon="6.63016">
        <ele>1448.9</ele>
        <time>2022-08-07T18:42:49+0200</time>
      </trkpt>
      <trkpt lat="44.91536" lon="6.6301">
        <ele>1448.3</ele>
        <time>2022-08-07T18:42:51+0200</time>
      </trkpt>
      <trkpt lat="44.91544" lon="6.6301">
        <ele>1449.6</ele>
        <time>2022-08-07T18:42:53+0200</time>
      </trkpt>
      <trkpt lat="44.91551" lon="6.63009">
        <ele>1450.8</ele>
        <time>2022-08-07T18:42:55+0200</time>
      </trkpt>
      <trkpt lat="44.91558" lon="6.63009">
        <ele>1452.1</ele>
        <time>2022-08-07T18:42:57+0200</time>
      </trkpt>
      <trkpt lat="44.91565" lon="6.63009">
        <ele>1454.1</ele>
        <time>2022-08-07T18:42:59+0200</time>
      </trkpt>
      <trkpt lat="44.9157" lon="6.63007">
        <ele>1454.8</ele>
        <time>2022-08-07T18:43:01+0200</time>
      </trkpt>
      <trkpt lat="44.91576" lon="6.63007">
        <ele>1456</ele>
        <time>2022-08-07T18:43:04+0200</time>
      </trkpt>
      <trkpt lat="44.91582" lon="6.63004">
        <ele>1456.5</ele>
        <time>2022-08-07T18:43:07+0200</time>
      </trkpt>
      <trkpt lat="44.91589" lon="6.63002">
        <ele>1457.7</ele>
        <time>2022-08-07T18:43:09+0200</time>
      </trkpt>
      <trkpt lat="44.91593" lon="6.62999">
        <ele>1457.8</ele>
        <time>2022-08-07T18:43:11+0200</time>
      </trkpt>
      <trkpt lat="44.91599" lon="6.62999">
        <ele>1459.7</ele>
        <time>2022-08-07T18:43:13+0200</time>
      </trkpt>
      <trkpt lat="44.91606" lon="6.62995">
        <ele>1460.1</ele>
        <time>2022-08-07T18:43:15+0200</time>
      </trkpt>
      <trkpt lat="44.91613" lon="6.62988">
        <ele>1460</ele>
        <time>2022-08-07T18:43:17+0200</time>
      </trkpt>
      <trkpt lat="44.91618" lon="6.62982">
        <ele>1459.4</ele>
        <time>2022-08-07T18:43:19+0200</time>
      </trkpt>
      <trkpt lat="44.91622" lon="6.62975">
        <ele>1458</ele>
        <time>2022-08-07T18:43:21+0200</time>
      </trkpt>
      <trkpt lat="44.91624" lon="6.62968">
        <ele>1456.3</ele>
        <time>2022-08-07T18:43:23+0200</time>
      </trkpt>
      <trkpt lat="44.91628" lon="6.62962">
        <ele>1455.6</ele>
        <time>2022-08-07T18:43:25+0200</time>
      </trkpt>
      <trkpt lat="44.91635" lon="6.62951">
        <ele>1454</ele>
        <time>2022-08-07T18:43:26+0200</time>
      </trkpt>
      <trkpt lat="44.91642" lon="6.6294">
        <ele>1452.7</ele>
        <time>2022-08-07T18:43:27+0200</time>
      </trkpt>
      <trkpt lat="44.91649" lon="6.62928">
        <ele>1451</ele>
        <time>2022-08-07T18:43:28+0200</time>
      </trkpt>
      <trkpt lat="44.91647" lon="6.62907">
        <ele>1443.4</ele>
        <time>2022-08-07T18:43:29+0200</time>
      </trkpt>
      <trkpt lat="44.91655" lon="6.6289">
        <ele>1440.4</ele>
        <time>2022-08-07T18:43:30+0200</time>
      </trkpt>
      <trkpt lat="44.91662" lon="6.62879">
        <ele>1439.1</ele>
        <time>2022-08-07T18:43:31+0200</time>
      </trkpt>
      <trkpt lat="44.91668" lon="6.62872">
        <ele>1438.2</ele>
        <time>2022-08-07T18:43:32+0200</time>
      </trkpt>
      <trkpt lat="44.91712" lon="6.62841">
        <ele>1432.3</ele>
        <time>2022-08-07T18:43:33+0200</time>
      </trkpt>
      <trkpt lat="44.9172" lon="6.62845">
        <ele>1434.6</ele>
        <time>2022-08-07T18:43:34+0200</time>
      </trkpt>
      <trkpt lat="44.91725" lon="6.62848">
        <ele>1435.4</ele>
        <time>2022-08-07T18:43:35+0200</time>
      </trkpt>
      <trkpt lat="44.91735" lon="6.6285">
        <ele>1435.7</ele>
        <time>2022-08-07T18:43:36+0200</time>
      </trkpt>
      <trkpt lat="44.91749" lon="6.62852">
        <ele>1435.8</ele>
        <time>2022-08-07T18:43:37+0200</time>
      </trkpt>
      <trkpt lat="44.9176" lon="6.62854">
        <ele>1435.9</ele>
        <time>2022-08-07T18:43:38+0200</time>
      </trkpt>
      <trkpt lat="44.91768" lon="6.62854">
        <ele>1435.3</ele>
        <time>2022-08-07T18:43:39+0200</time>
      </trkpt>
      <trkpt lat="44.91776" lon="6.62853">
        <ele>1434.6</ele>
        <time>2022-08-07T18:43:40+0200</time>
      </trkpt>
      <trkpt lat="44.91782" lon="6.62851">
        <ele>1434</ele>
        <time>2022-08-07T18:43:41+0200</time>
      </trkpt>
      <trkpt lat="44.9179" lon="6.62847">
        <ele>1433.1</ele>
        <time>2022-08-07T18:43:42+0200</time>
      </trkpt>
      <trkpt lat="44.91797" lon="6.62841">
        <ele>1432.1</ele>
        <time>2022-08-07T18:43:43+0200</time>
      </trkpt>
      <trkpt lat="44.91802" lon="6.62836">
        <ele>1431.3</ele>
        <time>2022-08-07T18:43:44+0200</time>
      </trkpt>
      <trkpt lat="44.91795" lon="6.62841">
        <ele>1432</ele>
        <time>2022-08-07T18:43:50+0200</time>
      </trkpt>
      <trkpt lat="44.9178" lon="6.62811">
        <ele>1424.5</ele>
        <time>2022-08-07T18:43:51+0200</time>
      </trkpt>
      <trkpt lat="44.91773" lon="6.62814">
        <ele>1424.6</ele>
        <time>2022-08-07T18:43:53+0200</time>
      </trkpt>
      <trkpt lat="44.91766" lon="6.62815">
        <ele>1424.5</ele>
        <time>2022-08-07T18:43:54+0200</time>
      </trkpt>
      <trkpt lat="44.91758" lon="6.62816">
        <ele>1424.3</ele>
        <time>2022-08-07T18:43:55+0200</time>
      </trkpt>
      <trkpt lat="44.91763" lon="6.62812">
        <ele>1423.7</ele>
        <time>2022-08-07T18:44:01+0200</time>
      </trkpt>
      <trkpt lat="44.91741" lon="6.62805">
        <ele>1420.5</ele>
        <time>2022-08-07T18:44:03+0200</time>
      </trkpt>
      <trkpt lat="44.91761" lon="6.628">
        <ele>1421</ele>
        <time>2022-08-07T18:44:04+0200</time>
      </trkpt>
      <trkpt lat="44.91764" lon="6.62796">
        <ele>1420.6</ele>
        <time>2022-08-07T18:44:05+0200</time>
      </trkpt>
      <trkpt lat="44.91767" lon="6.62787">
        <ele>1419.8</ele>
        <time>2022-08-07T18:44:07+0200</time>
      </trkpt>
      <trkpt lat="44.91765" lon="6.62779">
        <ele>1418.4</ele>
        <time>2022-08-07T18:44:09+0200</time>
      </trkpt>
      <trkpt lat="44.91748" lon="6.62757">
        <ele>1411.8</ele>
        <time>2022-08-07T18:44:10+0200</time>
      </trkpt>
      <trkpt lat="44.91753" lon="6.62753">
        <ele>1412.2</ele>
        <time>2022-08-07T18:44:11+0200</time>
      </trkpt>
      <trkpt lat="44.91747" lon="6.62754">
        <ele>1411.1</ele>
        <time>2022-08-07T18:44:21+0200</time>
      </trkpt>
      <trkpt lat="44.91743" lon="6.62756">
        <ele>1410.9</ele>
        <time>2022-08-07T18:44:23+0200</time>
      </trkpt>
      <trkpt lat="44.91734" lon="6.62764">
        <ele>1410.9</ele>
        <time>2022-08-07T18:44:24+0200</time>
      </trkpt>
      <trkpt lat="44.91722" lon="6.62765">
        <ele>1409.1</ele>
        <time>2022-08-07T18:44:25+0200</time>
      </trkpt>
      <trkpt lat="44.91726" lon="6.62724">
        <ele>1401.1</ele>
        <time>2022-08-07T18:44:26+0200</time>
      </trkpt>
      <trkpt lat="44.91723" lon="6.62717">
        <ele>1399.6</ele>
        <time>2022-08-07T18:44:28+0200</time>
      </trkpt>
      <trkpt lat="44.91729" lon="6.62703">
        <ele>1399.7</ele>
        <time>2022-08-07T18:44:29+0200</time>
      </trkpt>
      <trkpt lat="44.91728" lon="6.62696">
        <ele>1398.7</ele>
        <time>2022-08-07T18:44:30+0200</time>
      </trkpt>
      <trkpt lat="44.91727" lon="6.62687">
        <ele>1397.6</ele>
        <time>2022-08-07T18:44:32+0200</time>
      </trkpt>
      <trkpt lat="44.91712" lon="6.62674">
        <ele>1393.2</ele>
        <time>2022-08-07T18:44:34+0200</time>
      </trkpt>
      <trkpt lat="44.91704" lon="6.62689">
        <ele>1392.6</ele>
        <time>2022-08-07T18:44:35+0200</time>
      </trkpt>
      <trkpt lat="44.91691" lon="6.62677">
        <ele>1388.3</ele>
        <time>2022-08-07T18:44:37+0200</time>
      </trkpt>
      <trkpt lat="44.91693" lon="6.62668">
        <ele>1387.8</ele>
        <time>2022-08-07T18:44:39+0200</time>
      </trkpt>
      <trkpt lat="44.91693" lon="6.62661">
        <ele>1387.1</ele>
        <time>2022-08-07T18:44:40+0200</time>
      </trkpt>
      <trkpt lat="44.91689" lon="6.62651">
        <ele>1385.5</ele>
        <time>2022-08-07T18:44:42+0200</time>
      </trkpt>
      <trkpt lat="44.9167" lon="6.62647">
        <ele>1380.7</ele>
        <time>2022-08-07T18:44:43+0200</time>
      </trkpt>
      <trkpt lat="44.91653" lon="6.6267">
        <ele>1379.4</ele>
        <time>2022-08-07T18:44:44+0200</time>
      </trkpt>
      <trkpt lat="44.91647" lon="6.62662">
        <ele>1377.3</ele>
        <time>2022-08-07T18:44:47+0200</time>
      </trkpt>
      <trkpt lat="44.91649" lon="6.62644">
        <ele>1376.4</ele>
        <time>2022-08-07T18:44:48+0200</time>
      </trkpt>
      <trkpt lat="44.9165" lon="6.62638">
        <ele>1375.9</ele>
        <time>2022-08-07T18:44:50+0200</time>
      </trkpt>
      <trkpt lat="44.91643" lon="6.62576">
        <ele>1370</ele>
        <time>2022-08-07T18:44:52+0200</time>
      </trkpt>
      <trkpt lat="44.91653" lon="6.62624">
        <ele>1375.4</ele>
        <time>2022-08-07T18:44:54+0200</time>
      </trkpt>
      <trkpt lat="44.91656" lon="6.6258">
        <ele>1372.8</ele>
        <time>2022-08-07T18:44:55+0200</time>
      </trkpt>
      <trkpt lat="44.9161" lon="6.62596">
        <ele>1365.2</ele>
        <time>2022-08-07T18:44:56+0200</time>
      </trkpt>
      <trkpt lat="44.91602" lon="6.62588">
        <ele>1363.6</ele>
        <time>2022-08-07T18:44:58+0200</time>
      </trkpt>
      <trkpt lat="44.91599" lon="6.62578">
        <ele>1362.5</ele>
        <time>2022-08-07T18:44:59+0200</time>
      </trkpt>
      <trkpt lat="44.91598" lon="6.62564">
        <ele>1361.6</ele>
        <time>2022-08-07T18:45:00+0200</time>
      </trkpt>
      <trkpt lat="44.91598" lon="6.62557">
        <ele>1361.2</ele>
        <time>2022-08-07T18:45:01+0200</time>
      </trkpt>
      <trkpt lat="44.91595" lon="6.62552">
        <ele>1360.4</ele>
        <time>2022-08-07T18:45:02+0200</time>
      </trkpt>
      <trkpt lat="44.91596" lon="6.62545">
        <ele>1360</ele>
        <time>2022-08-07T18:45:03+0200</time>
      </trkpt>
      <trkpt lat="44.91595" lon="6.62539">
        <ele>1359.5</ele>
        <time>2022-08-07T18:45:04+0200</time>
      </trkpt>
      <trkpt lat="44.91598" lon="6.62533">
        <ele>1359.4</ele>
        <time>2022-08-07T18:45:06+0200</time>
      </trkpt>
      <trkpt lat="44.91591" lon="6.62529">
        <ele>1358.1</ele>
        <time>2022-08-07T18:45:07+0200</time>
      </trkpt>
      <trkpt lat="44.91589" lon="6.62521">
        <ele>1357.2</ele>
        <time>2022-08-07T18:45:11+0200</time>
      </trkpt>
      <trkpt lat="44.91578" lon="6.62531">
        <ele>1356.5</ele>
        <time>2022-08-07T18:45:12+0200</time>
      </trkpt>
      <trkpt lat="44.91574" lon="6.62528">
        <ele>1355.6</ele>
        <time>2022-08-07T18:45:15+0200</time>
      </trkpt>
      <trkpt lat="44.91569" lon="6.62524">
        <ele>1354.6</ele>
        <time>2022-08-07T18:45:19+0200</time>
      </trkpt>
      <trkpt lat="44.91578" lon="6.62488">
        <ele>1352.9</ele>
        <time>2022-08-07T18:45:20+0200</time>
      </trkpt>
      <trkpt lat="44.91579" lon="6.62479">
        <ele>1352.1</ele>
        <time>2022-08-07T18:45:26+0200</time>
      </trkpt>
      <trkpt lat="44.91583" lon="6.62475">
        <ele>1352.3</ele>
        <time>2022-08-07T18:45:28+0200</time>
      </trkpt>
      <trkpt lat="44.91586" lon="6.62466">
        <ele>1352</ele>
        <time>2022-08-07T18:45:31+0200</time>
      </trkpt>
      <trkpt lat="44.9159" lon="6.62462">
        <ele>1352.5</ele>
        <time>2022-08-07T18:45:35+0200</time>
      </trkpt>
      <trkpt lat="44.91594" lon="6.62457">
        <ele>1352.8</ele>
        <time>2022-08-07T18:45:40+0200</time>
      </trkpt>
      <trkpt lat="44.91592" lon="6.6245">
        <ele>1352</ele>
        <time>2022-08-07T18:45:46+0200</time>
      </trkpt>
    </trkseg>
  </trk>
</gpx>